AF6 / F-GSQH 7700 Squawk Report (16th of June, 2021)

Aircraft B77W Reg No. F-GSQH Age 16 years old
Model 777 Jet engines 2 First flight 14-01-05
Registered 22-02-05 Rollout 05-12-04 Delivered 18-02-05
Construction No. 32711 Line No. 0501 Series 328(ER)
ADSHEX 394A07 Airline name Air France Owner Aercap Holdings N.V.
Airfield based Paris-Charles de Gaulle~Val-d'Oise~F First tracked N/A

Flight history for F-GSQH

Route Flight No Date Playback
Los Angeles Intl (LAX) - Charles De Gaulle (CDG) AF65 2021-08-04 09:10:00
Charles De Gaulle (CDG) - Los Angeles Intl (LAX) AF66 2021-08-03 19:51:00
Tokyo Intl (HND) - Charles De Gaulle (CDG) AF293 2021-08-03 08:59:00
Charles De Gaulle (CDG) - Tokyo Intl (HND) AF274 2021-08-02 09:02:00
Rafic Hariri Intl (BEY) - Charles De Gaulle (CDG) AF565 2021-08-01 21:21:00
Charles De Gaulle (CDG) - Rafic Hariri Intl (BEY) AF564 2021-08-01 13:00:00
Dubai International (DXB) - Charles De Gaulle (CDG) AF655 2021-08-01 07:18:00
Charles De Gaulle (CDG) - Dubai International (DXB) AF662 2021-07-31 18:52:00
Chicago Ohare Intl (ORD) - Charles De Gaulle (CDG) AF153 2021-07-29 09:09:00
Charles De Gaulle (CDG) - Chicago Ohare Intl (ORD) AF136 2021-07-29 01:12:00
John F Kennedy Intl (JFK) - Charles De Gaulle (CDG) AF23 2021-07-28 14:18:00
Charles De Gaulle (CDG) - John F Kennedy Intl (JFK) AF14 2021-07-27 20:44:00
Abidjan Felix Houphouet Boigny Intl (ABJ) - Charles De Gaulle (CDG) AF703 2021-07-27 10:00:00
Charles De Gaulle (CDG) - Abidjan Felix Houphouet Boigny Intl (ABJ) AF702 2021-07-26 19:24:00
Los Angeles Intl (LAX) - Charles De Gaulle (CDG) AF65 2021-07-26 13:30:00
Charles De Gaulle (CDG) - Los Angeles Intl (LAX) AF66 2021-07-25 20:17:00
O. R. Tambo International Airport (JNB) - Charles De Gaulle (CDG) AF995 2021-07-25 09:18:00
Charles De Gaulle (CDG) - O. R. Tambo International Airport (JNB) AF990 2021-07-24 16:53:00
Ambouli International Airport (JIB) - Charles De Gaulle (CDG) AF669 2021-07-23 05:15:00
Charles De Gaulle (CDG) - Ambouli International Airport (JIB) AF668 2021-07-22 03:54:00
Time Lat Lon Altitude Heading Speed Vertical Rate
2021-06-17 00:15:16 GMT 40.641781 -73.791733 0 306 0 0
2021-06-17 00:15:05 GMT 40.641781 -73.791733 0 306 0 0
2021-06-17 00:14:55 GMT 40.641781 -73.791748 0 306 0 0
2021-06-17 00:14:44 GMT 40.641781 -73.791733 0 306 0 0
2021-06-17 00:14:34 GMT 40.641754 -73.791702 0 306 2 0
2021-06-17 00:14:22 GMT 40.641712 -73.791611 0 306 2 0
2021-06-17 00:14:13 GMT 40.641663 -73.791527 0 309 3 0
2021-06-17 00:14:01 GMT 40.641548 -73.791328 0 309 5 0
2021-06-17 00:13:52 GMT 40.641460 -73.791153 0 320 5 0
2021-06-17 00:13:40 GMT 40.641300 -73.790794 0 25 6 0
2021-06-17 00:13:31 GMT 40.640999 -73.791000 0 43 11 0
2021-06-17 00:13:30 GMT 40.640961 -73.791039 0 43 11 0
2021-06-17 00:13:29 GMT 40.640919 -73.791092 0 43 11 0
2021-06-17 00:13:27 GMT 40.640839 -73.791191 0 42 10 0
2021-06-17 00:13:26 GMT 40.640800 -73.791260 0 41 10 0
2021-06-17 00:13:25 GMT 40.640751 -73.791328 0 40 9 0
2021-06-17 00:13:24 GMT 40.640739 -73.791359 0 40 10 0
2021-06-17 00:13:22 GMT 40.640659 -73.791451 0 39 9 0
2021-06-17 00:13:21 GMT 40.640640 -73.791481 0 39 9 0
2021-06-17 00:13:20 GMT 40.640610 -73.791527 0 39 9 0
2021-06-17 00:13:18 GMT 40.640549 -73.791611 0 39 10 0
2021-06-17 00:13:17 GMT 40.640511 -73.791641 0 39 9 0
2021-06-17 00:13:16 GMT 40.640480 -73.791672 0 39 10 0
2021-06-17 00:13:15 GMT 40.640411 -73.791733 0 39 10 0
2021-06-17 00:13:13 GMT 40.640362 -73.791771 0 39 9 0
2021-06-17 00:13:12 GMT 40.640339 -73.791809 0 39 10 0
2021-06-17 00:13:09 GMT 40.640289 -73.791893 0 38 10 0
2021-06-17 00:13:08 GMT 40.640289 -73.791924 0 37 10 0
2021-06-17 00:13:06 GMT 40.640282 -73.791977 0 37 10 0
2021-06-17 00:13:05 GMT 40.640270 -73.792000 0 37 10 0
2021-06-17 00:13:04 GMT 40.640240 -73.792023 0 37 11 0
2021-06-17 00:13:03 GMT 40.640148 -73.792122 0 37 10 0
2021-06-17 00:13:01 GMT 40.640121 -73.792137 0 39 11 0
2021-06-17 00:13:00 GMT 40.640060 -73.792198 0 42 10 0
2021-06-17 00:12:58 GMT 40.639980 -73.792267 0 50 9 0
2021-06-17 00:12:57 GMT 40.639938 -73.792290 0 56 9 0
2021-06-17 00:12:56 GMT 40.639919 -73.792297 0 59 11 0
2021-06-17 00:12:54 GMT 40.639851 -73.792473 0 42 7 0
2021-06-17 00:12:53 GMT 40.639839 -73.792542 0 38 5 0
2021-06-17 00:12:52 GMT 40.639809 -73.792542 0 45 4 0
2021-06-17 00:12:51 GMT 40.639801 -73.792549 0 40 8 0
2021-06-17 00:12:49 GMT 40.639778 -73.792603 0 39 9 0
2021-06-17 00:12:47 GMT 40.639702 -73.792641 0 52 8 0
2021-06-17 00:12:46 GMT 40.639648 -73.792671 0 51 7 0
2021-06-17 00:12:45 GMT 40.639660 -73.792717 0 41 9 0
2021-06-17 00:12:43 GMT 40.639599 -73.792763 0 51 10 0
2021-06-17 00:12:42 GMT 40.639568 -73.792831 0 48 9 0
2021-06-17 00:12:41 GMT 40.639542 -73.792870 0 50 7 0
2021-06-17 00:12:40 GMT 40.639488 -73.792938 0 49 7 0
2021-06-17 00:12:38 GMT 40.639469 -73.792969 0 47 8 0
2021-06-17 00:12:37 GMT 40.639462 -73.793007 0 44 8 0
2021-06-17 00:12:35 GMT 40.639400 -73.793098 0 30 7 0
2021-06-17 00:12:34 GMT 40.639381 -73.793129 0 20 7 0
2021-06-17 00:12:33 GMT 40.639320 -73.793198 0 4 5 0
2021-06-17 00:12:31 GMT 40.639301 -73.793190 0 9 6 0
2021-06-17 00:12:30 GMT 40.639278 -73.793213 0 13 7 0
2021-06-17 00:12:29 GMT 40.639240 -73.793213 0 29 8 0
2021-06-17 00:12:27 GMT 40.639221 -73.793213 0 51 9 0
2021-06-17 00:12:26 GMT 40.639179 -73.793228 0 67 8 0
2021-06-17 00:12:24 GMT 40.639091 -73.793243 0 87 7 0
2021-06-17 00:12:23 GMT 40.639080 -73.793289 0 94 8 0
2021-06-17 00:12:22 GMT 40.639080 -73.793343 0 105 7 0
2021-06-17 00:12:21 GMT 40.639080 -73.793419 0 113 8 0
2021-06-17 00:12:19 GMT 40.639080 -73.793488 0 120 7 0
2021-06-17 00:12:18 GMT 40.639099 -73.793541 0 124 6 0
2021-06-17 00:12:16 GMT 40.639118 -73.793571 0 119 9 0
2021-06-17 00:12:15 GMT 40.639149 -73.793640 0 121 7 0
2021-06-17 00:12:14 GMT 40.639172 -73.793671 0 122 8 0
2021-06-17 00:12:13 GMT 40.639172 -73.793732 0 129 8 0
2021-06-17 00:12:11 GMT 40.639221 -73.793770 0 120 13 0
2021-06-17 00:12:10 GMT 40.639252 -73.793831 0 118 14 0
2021-06-17 00:12:08 GMT 40.639309 -73.793983 0 119 12 0
2021-06-17 00:12:07 GMT 40.639339 -73.794037 0 120 14 0
2021-06-17 00:12:06 GMT 40.639359 -73.794113 0 123 14 0
2021-06-17 00:12:05 GMT 40.639389 -73.794167 0 123 14 0
2021-06-17 00:12:04 GMT 40.639481 -73.794312 0 110 14 0
2021-06-17 00:12:02 GMT 40.639500 -73.794403 0 115 13 0
2021-06-17 00:12:01 GMT 40.639519 -73.794456 0 116 14 0
2021-06-17 00:12:00 GMT 40.639580 -73.794609 0 118 14 0
2021-06-17 00:11:58 GMT 40.639610 -73.794708 0 124 12 0
2021-06-17 00:11:57 GMT 40.639641 -73.794769 0 123 13 0
2021-06-17 00:11:56 GMT 40.639660 -73.794838 0 130 14 0
2021-06-17 00:11:54 GMT 40.639740 -73.794968 0 127 14 0
2021-06-17 00:11:53 GMT 40.639771 -73.795036 0 130 14 0
2021-06-17 00:11:52 GMT 40.639870 -73.795181 0 136 12 0
2021-06-17 00:11:50 GMT 40.639889 -73.795227 0 144 13 0
2021-06-17 00:11:49 GMT 40.639919 -73.795303 0 147 13 0
2021-06-17 00:11:48 GMT 40.639980 -73.795311 0 138 16 0
2021-06-17 00:11:46 GMT 40.640099 -73.795448 0 140 16 0
2021-06-17 00:11:45 GMT 40.640148 -73.795509 0 141 17 0
2021-06-17 00:11:44 GMT 40.640209 -73.795570 0 143 16 0
2021-06-17 00:11:42 GMT 40.640331 -73.795700 0 150 16 0
2021-06-17 00:11:41 GMT 40.640388 -73.795776 0 158 16 0
2021-06-17 00:11:40 GMT 40.640511 -73.795830 0 157 19 0
2021-06-17 00:11:38 GMT 40.640591 -73.795914 0 163 18 0
2021-06-17 00:11:37 GMT 40.640671 -73.795937 0 163 18 0
2021-06-17 00:11:36 GMT 40.640831 -73.796043 0 174 17 0
2021-06-17 00:11:34 GMT 40.640900 -73.796059 0 176 18 0
2021-06-17 00:11:32 GMT 40.641071 -73.796120 0 185 18 0
2021-06-17 00:11:31 GMT 40.641159 -73.796089 0 179 16 0
2021-06-17 00:11:30 GMT 40.641312 -73.796066 0 171 18 0
2021-06-17 00:11:28 GMT 40.641411 -73.796082 0 171 17 0
2021-06-17 00:11:27 GMT 40.641479 -73.796097 0 172 17 0
2021-06-17 00:11:26 GMT 40.641560 -73.796120 0 175 17 0
2021-06-17 00:11:25 GMT 40.641731 -73.796143 0 183 16 0
2021-06-17 00:11:23 GMT 40.641811 -73.796188 0 198 17 0
2021-06-17 00:11:22 GMT 40.641880 -73.796127 0 190 17 0
2021-06-17 00:11:21 GMT 40.642040 -73.796082 0 185 16 0
2021-06-17 00:11:19 GMT 40.642109 -73.796051 0 179 16 0
2021-06-17 00:11:18 GMT 40.642189 -73.796066 0 184 15 0
2021-06-17 00:11:17 GMT 40.642262 -73.796051 0 180 15 0
2021-06-17 00:11:15 GMT 40.642410 -73.796082 0 193 13 0
2021-06-17 00:11:14 GMT 40.642441 -73.796043 0 186 17 0
2021-06-17 00:11:13 GMT 40.642540 -73.796043 0 191 15 0
2021-06-17 00:11:12 GMT 40.642578 -73.796021 0 188 18 0
2021-06-17 00:11:11 GMT 40.642731 -73.795952 0 175 18 0
2021-06-17 00:11:09 GMT 40.642799 -73.795959 0 176 20 0
2021-06-17 00:11:08 GMT 40.642899 -73.795998 0 182 19 0
2021-06-17 00:11:06 GMT 40.643070 -73.795990 0 181 20 0
2021-06-17 00:11:05 GMT 40.643188 -73.795998 0 185 17 0
2021-06-17 00:11:04 GMT 40.643280 -73.795998 0 189 16 0
2021-06-17 00:11:02 GMT 40.643421 -73.795990 0 191 16 0
2021-06-17 00:11:01 GMT 40.643501 -73.795914 0 180 16 0
2021-06-17 00:11:00 GMT 40.643600 -73.795921 0 180 16 0
2021-06-17 00:10:59 GMT 40.643650 -73.795898 0 179 17 0
2021-06-17 00:10:57 GMT 40.643791 -73.795891 0 175 19 0
2021-06-17 00:10:56 GMT 40.643902 -73.795891 0 173 17 0
2021-06-17 00:10:55 GMT 40.644081 -73.795891 0 166 14 0
2021-06-17 00:10:53 GMT 40.644131 -73.795937 0 173 16 0
2021-06-17 00:10:52 GMT 40.644199 -73.795967 0 178 15 0
2021-06-17 00:10:51 GMT 40.644291 -73.795982 0 180 14 0
2021-06-17 00:10:49 GMT 40.644402 -73.795982 0 180 16 0
2021-06-17 00:10:48 GMT 40.644482 -73.795959 0 173 16 0
2021-06-17 00:10:47 GMT 40.644550 -73.795959 0 171 15 0
2021-06-17 00:10:45 GMT 40.644718 -73.796051 0 200 13 0
2021-06-17 00:10:44 GMT 40.644772 -73.796021 0 198 14 0
2021-06-17 00:10:43 GMT 40.644871 -73.795952 0 178 16 0
2021-06-17 00:10:41 GMT 40.644932 -73.795921 0 172 18 0
2021-06-17 00:10:40 GMT 40.645020 -73.795952 0 175 17 0
2021-06-17 00:10:39 GMT 40.645100 -73.795937 0 168 16 0
2021-06-17 00:10:37 GMT 40.645241 -73.795937 0 154 17 0
2021-06-17 00:10:36 GMT 40.645309 -73.795959 0 149 18 0
2021-06-17 00:10:35 GMT 40.645378 -73.796013 0 149 18 0
2021-06-17 00:10:34 GMT 40.645458 -73.796059 0 146 19 0
2021-06-17 00:10:32 GMT 40.645599 -73.796181 0 146 18 0
2021-06-17 00:10:31 GMT 40.645672 -73.796227 0 143 19 0
2021-06-17 00:10:29 GMT 40.645889 -73.796440 0 143 16 0
2021-06-17 00:10:27 GMT 40.645969 -73.796516 0 146 14 0
2021-06-17 00:10:26 GMT 40.646000 -73.796577 0 155 15 0
2021-06-17 00:10:25 GMT 40.646111 -73.796593 0 141 22 0
2021-06-17 00:10:23 GMT 40.646179 -73.796661 0 140 23 0
2021-06-17 00:10:22 GMT 40.646271 -73.796753 0 140 22 0
2021-06-17 00:10:21 GMT 40.646431 -73.796951 0 149 19 0
2021-06-17 00:10:19 GMT 40.646500 -73.796989 0 146 21 0
2021-06-17 00:10:18 GMT 40.646580 -73.797043 0 141 22 0
2021-06-17 00:10:16 GMT 40.646751 -73.797218 0 142 20 0
2021-06-17 00:10:15 GMT 40.646832 -73.797287 0 139 20 0
2021-06-17 00:10:14 GMT 40.646889 -73.797394 0 145 20 0
2021-06-17 00:10:13 GMT 40.647060 -73.797577 0 155 15 0
2021-06-17 00:10:11 GMT 40.647091 -73.797607 0 157 18 0
2021-06-17 00:10:10 GMT 40.647160 -73.797623 0 154 21 0
2021-06-17 00:10:08 GMT 40.647331 -73.797783 0 165 21 0
2021-06-17 00:10:06 GMT 40.647530 -73.797829 0 162 19 0
2021-06-17 00:10:05 GMT 40.647610 -73.797859 0 164 20 0
2021-06-17 00:10:04 GMT 40.647701 -73.797928 0 168 19 0
2021-06-17 00:10:03 GMT 40.647770 -73.797951 0 171 21 0
2021-06-17 00:10:02 GMT 40.647839 -73.797974 0 170 23 0
2021-06-17 00:10:00 GMT 40.648079 -73.798042 0 178 21 0
2021-06-17 00:09:59 GMT 40.648178 -73.798027 0 175 21 0
2021-06-17 00:09:57 GMT 40.648399 -73.798103 0 184 18 0
2021-06-17 00:09:55 GMT 40.648571 -73.798058 0 181 18 0
2021-06-17 00:09:54 GMT 40.648651 -73.798080 0 186 19 0
2021-06-17 00:09:53 GMT 40.648720 -73.798058 0 183 21 0
2021-06-17 00:09:52 GMT 40.648830 -73.798027 0 179 20 0
2021-06-17 00:09:50 GMT 40.649029 -73.798012 0 172 17 0
2021-06-17 00:09:49 GMT 40.649109 -73.797997 0 171 17 0
2021-06-17 00:09:48 GMT 40.649189 -73.798058 0 178 18 0
2021-06-17 00:09:46 GMT 40.649349 -73.798027 0 171 18 0
2021-06-17 00:09:45 GMT 40.649422 -73.798050 0 175 20 0
2021-06-17 00:09:44 GMT 40.649509 -73.798103 0 185 20 0
2021-06-17 00:09:42 GMT 40.649700 -73.798073 0 185 18 0
2021-06-17 00:09:41 GMT 40.649792 -73.798111 0 194 18 0
2021-06-17 00:09:40 GMT 40.649948 -73.798088 0 201 19 0
2021-06-17 00:09:38 GMT 40.650028 -73.798073 0 203 20 0
2021-06-17 00:09:37 GMT 40.650120 -73.797997 0 200 19 0
2021-06-17 00:09:36 GMT 40.650211 -73.797958 0 198 17 0
2021-06-17 00:09:34 GMT 40.650360 -73.797890 0 201 16 0
2021-06-17 00:09:33 GMT 40.650410 -73.797882 0 204 19 0
2021-06-17 00:09:32 GMT 40.650509 -73.797829 0 207 17 0
2021-06-17 00:09:30 GMT 40.650639 -73.797760 0 216 20 0
2021-06-17 00:09:29 GMT 40.650719 -73.797722 0 220 21 0
2021-06-17 00:09:28 GMT 40.650799 -73.797607 0 218 19 0
2021-06-17 00:09:26 GMT 40.650951 -73.797478 0 226 17 0
2021-06-17 00:09:25 GMT 40.651009 -73.797417 0 229 18 0
2021-06-17 00:09:24 GMT 40.651058 -73.797348 0 231 19 0
2021-06-17 00:09:22 GMT 40.651169 -73.797188 0 237 21 0
2021-06-17 00:09:21 GMT 40.651230 -73.797089 0 238 21 0
2021-06-17 00:09:20 GMT 40.651279 -73.796982 0 240 20 0
2021-06-17 00:09:19 GMT 40.651379 -73.796761 0 240 19 0
2021-06-17 00:09:17 GMT 40.651459 -73.796570 0 240 20 0
2021-06-17 00:09:15 GMT 40.651489 -73.796478 0 239 22 0
2021-06-17 00:09:14 GMT 40.651539 -73.796341 0 236 21 0
2021-06-17 00:09:12 GMT 40.651649 -73.796120 0 238 17 0
2021-06-17 00:09:11 GMT 40.651691 -73.796051 0 239 20 0
2021-06-17 00:09:09 GMT 40.651810 -73.795853 0 246 20 0
2021-06-17 00:09:08 GMT 40.651821 -73.795723 0 238 20 0
2021-06-17 00:09:07 GMT 40.651871 -73.795601 0 237 19 0
2021-06-17 00:09:05 GMT 40.651981 -73.795410 0 242 17 0
2021-06-17 00:09:04 GMT 40.652020 -73.795372 0 246 21 0
2021-06-17 00:09:03 GMT 40.652039 -73.795197 0 237 18 0
2021-06-17 00:09:02 GMT 40.652081 -73.795113 0 237 18 0
2021-06-17 00:09:00 GMT 40.652191 -73.794922 0 242 19 0
2021-06-17 00:08:59 GMT 40.652222 -73.794830 0 241 20 0
2021-06-17 00:08:58 GMT 40.652271 -73.794701 0 238 18 0
2021-06-17 00:08:56 GMT 40.652359 -73.794518 0 242 20 0
2021-06-17 00:08:55 GMT 40.652409 -73.794418 0 243 20 0
2021-06-17 00:08:53 GMT 40.652500 -73.794212 0 247 20 0
2021-06-17 00:08:52 GMT 40.652538 -73.794090 0 245 19 0
2021-06-17 00:08:51 GMT 40.652550 -73.793991 0 238 22 0
2021-06-17 00:08:50 GMT 40.652599 -73.793877 0 243 22 0
2021-06-17 00:08:49 GMT 40.652691 -73.793671 0 245 22 0
2021-06-17 00:08:47 GMT 40.652740 -73.793518 0 252 20 0
2021-06-17 00:08:46 GMT 40.652802 -73.793312 0 253 20 0
2021-06-17 00:08:44 GMT 40.652828 -73.793182 0 254 20 0
2021-06-17 00:08:43 GMT 40.652859 -73.793068 0 260 20 0
2021-06-17 00:08:41 GMT 40.652889 -73.792839 0 266 21 0
2021-06-17 00:08:40 GMT 40.652901 -73.792709 0 268 21 0
2021-06-17 00:08:39 GMT 40.652950 -73.792580 0 281 20 0
2021-06-17 00:08:38 GMT 40.652950 -73.792473 0 284 22 0
2021-06-17 00:08:36 GMT 40.652901 -73.792198 0 286 21 0
2021-06-17 00:08:35 GMT 40.652859 -73.792122 0 282 23 0
2021-06-17 00:08:34 GMT 40.652828 -73.791977 0 282 24 0
2021-06-17 00:08:33 GMT 40.652821 -73.791817 0 285 22 0
2021-06-17 00:08:31 GMT 40.652779 -73.791580 0 288 24 0
2021-06-17 00:08:30 GMT 40.652721 -73.791420 0 286 22 0
2021-06-17 00:08:29 GMT 40.652691 -73.791290 0 285 21 0
2021-06-17 00:08:27 GMT 40.652660 -73.791061 0 288 22 0
2021-06-17 00:08:26 GMT 40.652599 -73.790932 0 283 22 0
2021-06-17 00:08:25 GMT 40.652592 -73.790810 0 285 23 0
2021-06-17 00:08:23 GMT 40.652531 -73.790527 0 288 22 0
2021-06-17 00:08:21 GMT 40.652500 -73.790253 0 295 20 0
2021-06-17 00:08:19 GMT 40.652409 -73.790062 0 287 21 0
2021-06-17 00:08:18 GMT 40.652390 -73.789963 0 287 22 0
2021-06-17 00:08:17 GMT 40.652309 -73.789680 0 283 20 0
2021-06-17 00:08:15 GMT 40.652290 -73.789558 0 286 21 0
2021-06-17 00:08:14 GMT 40.652279 -73.789459 0 283 22 0
2021-06-17 00:08:12 GMT 40.652180 -73.789238 0 269 23 0
2021-06-17 00:08:11 GMT 40.652199 -73.789108 0 271 23 0
2021-06-17 00:08:10 GMT 40.652199 -73.788963 0 271 22 0
2021-06-17 00:08:09 GMT 40.652168 -73.788742 0 261 17 0
2021-06-17 00:08:07 GMT 40.652199 -73.788551 0 264 18 0
2021-06-17 00:08:06 GMT 40.652199 -73.788452 0 261 18 0
2021-06-17 00:08:05 GMT 40.652161 -73.788353 0 248 20 0
2021-06-17 00:08:03 GMT 40.652222 -73.788116 0 243 20 0
2021-06-17 00:08:02 GMT 40.652271 -73.788017 0 246 20 0
2021-06-17 00:08:01 GMT 40.652309 -73.787903 0 246 19 0
2021-06-17 00:07:59 GMT 40.652401 -73.787659 0 251 16 0
2021-06-17 00:07:58 GMT 40.652409 -73.787567 0 248 17 0
2021-06-17 00:07:57 GMT 40.652439 -73.787468 0 248 17 0
2021-06-17 00:07:55 GMT 40.652470 -73.787262 0 234 16 0
2021-06-17 00:07:54 GMT 40.652500 -73.787178 0 234 17 0
2021-06-17 00:07:53 GMT 40.652569 -73.787064 0 236 14 0
2021-06-17 00:07:52 GMT 40.652599 -73.786980 0 237 14 0
2021-06-17 00:07:50 GMT 40.652691 -73.786858 0 242 15 0
2021-06-17 00:07:49 GMT 40.652729 -73.786789 0 244 15 0
2021-06-17 00:07:48 GMT 40.652760 -73.786713 0 243 15 0
2021-06-17 00:07:47 GMT 40.652790 -73.786629 0 244 15 0
2021-06-17 00:07:45 GMT 40.652859 -73.786469 0 244 15 0
2021-06-17 00:07:44 GMT 40.652882 -73.786369 0 242 15 0
2021-06-17 00:07:43 GMT 40.652908 -73.786293 0 241 16 0
2021-06-17 00:07:41 GMT 40.652962 -73.786133 0 237 17 0
2021-06-17 00:07:39 GMT 40.653061 -73.785980 0 243 18 0
2021-06-17 00:07:38 GMT 40.653141 -73.785858 0 249 16 0
2021-06-17 00:07:37 GMT 40.653191 -73.785683 0 248 16 0
2021-06-17 00:07:35 GMT 40.653191 -73.785591 0 243 17 0
2021-06-17 00:07:34 GMT 40.653210 -73.785530 0 239 20 0
2021-06-17 00:07:33 GMT 40.653252 -73.785393 0 235 17 0
2021-06-17 00:07:32 GMT 40.653351 -73.785210 0 244 17 0
2021-06-17 00:07:30 GMT 40.653381 -73.785133 0 245 17 0
2021-06-17 00:07:28 GMT 40.653461 -73.784912 0 243 16 0
2021-06-17 00:07:27 GMT 40.653500 -73.784813 0 243 16 0
2021-06-17 00:07:26 GMT 40.653530 -73.784714 0 242 16 0
2021-06-17 00:07:25 GMT 40.653561 -73.784630 0 241 16 0
2021-06-17 00:07:23 GMT 40.653641 -73.784462 0 243 16 0
2021-06-17 00:07:22 GMT 40.653671 -73.784370 0 244 16 0
2021-06-17 00:07:21 GMT 40.653721 -73.784286 0 246 16 0
2021-06-17 00:07:19 GMT 40.653839 -73.784058 0 250 15 0
2021-06-17 00:07:18 GMT 40.653900 -73.783943 0 250 15 0
2021-06-17 00:07:16 GMT 40.653961 -73.783707 0 243 18 0
2021-06-17 00:07:15 GMT 40.654129 -73.783607 0 257 15 0
2021-06-17 00:07:14 GMT 40.654091 -73.783493 0 244 16 0
2021-06-17 00:07:13 GMT 40.654148 -73.783279 0 256 13 0
2021-06-17 00:07:11 GMT 40.654179 -73.783180 0 261 11 0
2021-06-17 00:07:10 GMT 40.654251 -73.783012 0 276 9 0
2021-06-17 00:07:08 GMT 40.654251 -73.782890 0 279 7 0
2021-06-17 00:07:07 GMT 40.654282 -73.782837 0 284 7 0
2021-06-17 00:07:06 GMT 40.654308 -73.782753 0 290 6 0
2021-06-17 00:07:04 GMT 40.654308 -73.782738 0 292 7 0
2021-06-17 00:07:03 GMT 40.654320 -73.782707 0 295 9 0
2021-06-17 00:07:01 GMT 40.654289 -73.782570 0 299 13 0
2021-06-17 00:07:00 GMT 40.654228 -73.782410 0 299 16 0
2021-06-17 00:06:59 GMT 40.654202 -73.782333 0 300 20 0
2021-06-17 00:06:57 GMT 40.654160 -73.782242 0 300 23 0
2021-06-17 00:06:56 GMT 40.654099 -73.782127 0 299 26 0
2021-06-17 00:06:54 GMT 40.653992 -73.781853 0 300 33 0
2021-06-17 00:06:53 GMT 40.653919 -73.781700 0 301 37 0
2021-06-17 00:06:52 GMT 40.653751 -73.781349 0 299 45 0
2021-06-17 00:06:50 GMT 40.653648 -73.781143 0 299 48 0
2021-06-17 00:06:49 GMT 40.653542 -73.780899 0 299 52 0
2021-06-17 00:06:48 GMT 40.653439 -73.780678 0 299 57 0
2021-06-17 00:06:46 GMT 40.653149 -73.780052 0 299 60 0
2021-06-17 00:06:45 GMT 40.653019 -73.779732 0 300 63 0
2021-06-17 00:06:44 GMT 40.652889 -73.779358 0 301 65 0
2021-06-17 00:06:43 GMT 40.652592 -73.778679 0 302 72 0
2021-06-17 00:06:41 GMT 40.652401 -73.778313 25 301 73 0
2021-06-17 00:06:40 GMT 40.652241 -73.777962 25 302 80 0
2021-06-17 00:06:38 GMT 40.651852 -73.777138 25 301 86 0
2021-06-17 00:06:37 GMT 40.651630 -73.776741 25 300 92 0
2021-06-17 00:06:36 GMT 40.651421 -73.776260 25 300 94 0
2021-06-17 00:06:34 GMT 40.651001 -73.775299 25 300 102 0
2021-06-17 00:06:33 GMT 40.650761 -73.774757 25 300 103 0
2021-06-17 00:06:32 GMT 40.650249 -73.773666 25 299 109 0
2021-06-17 00:06:30 GMT 40.650028 -73.773132 25 300 117 0
2021-06-17 00:06:29 GMT 40.649769 -73.772530 25 301 120 0
2021-06-17 00:06:28 GMT 40.649502 -73.771942 25 301 125 0
2021-06-17 00:06:27 GMT 40.649231 -73.771294 25 301 128 224
2021-06-17 00:06:25 GMT 40.648609 -73.769997 25 300 136 224
2021-06-17 00:06:24 GMT 40.648312 -73.769318 25 300 138 224
2021-06-17 00:06:23 GMT 40.647991 -73.768623 25 301 140 224
2021-06-17 00:06:21 GMT 40.647308 -73.767174 25 300 142 -672
2021-06-17 00:06:20 GMT 40.646980 -73.766418 25 300 143 -672
2021-06-17 00:06:19 GMT 40.646648 -73.765663 50 301 142 -672
2021-06-17 00:06:17 GMT 40.645950 -73.764183 50 300 144 -672
2021-06-17 00:06:16 GMT 40.645618 -73.763390 75 301 141 -672
2021-06-17 00:06:15 GMT 40.645279 -73.762672 100 301 143 -672
2021-06-17 00:06:14 GMT 40.644581 -73.761162 150 300 140 -672
2021-06-17 00:06:12 GMT 40.644241 -73.760437 150 300 141 -672
2021-06-17 00:06:11 GMT 40.643909 -73.759697 150 300 141 -672
2021-06-17 00:06:10 GMT 40.643261 -73.758202 175 301 140 -672
2021-06-17 00:06:08 GMT 40.642929 -73.757469 175 301 139 -672
2021-06-17 00:06:07 GMT 40.642620 -73.756752 200 302 142 -672
2021-06-17 00:06:05 GMT 40.641941 -73.755280 225 301 140 -672
2021-06-17 00:06:04 GMT 40.641602 -73.754539 250 301 139 -576
2021-06-17 00:06:03 GMT 40.641281 -73.753838 250 301 143 -576
2021-06-17 00:06:02 GMT 40.640930 -73.753082 250 301 141 -576
2021-06-17 00:06:00 GMT 40.640221 -73.751640 300 300 140 -576
2021-06-17 00:05:59 GMT 40.639912 -73.750893 300 300 141 -576
2021-06-17 00:05:58 GMT 40.639580 -73.750153 300 301 143 -576
2021-06-17 00:05:56 GMT 40.638889 -73.748657 350 299 141 -576
2021-06-17 00:05:55 GMT 40.638561 -73.747902 350 300 140 -576
2021-06-17 00:05:54 GMT 40.638229 -73.747169 400 300 140 -576
2021-06-17 00:05:52 GMT 40.637569 -73.745750 500 299 141 -576
2021-06-17 00:05:51 GMT 40.637260 -73.745018 500 300 144 -576
2021-06-17 00:05:50 GMT 40.636909 -73.744186 500 301 139 -576
2021-06-17 00:05:49 GMT 40.636600 -73.743500 500 301 142 -576
2021-06-17 00:05:47 GMT 40.635921 -73.741982 500 301 137 -576
2021-06-17 00:05:46 GMT 40.635601 -73.741318 500 301 141 -576
2021-06-17 00:05:45 GMT 40.635262 -73.740593 500 301 141 -576
2021-06-17 00:05:43 GMT 40.634579 -73.739128 500 298 138 -576
2021-06-17 00:05:42 GMT 40.634281 -73.738358 600 300 137 -576
2021-06-17 00:05:41 GMT 40.633991 -73.737679 600 300 141 -576
2021-06-17 00:05:40 GMT 40.633640 -73.736893 600 300 136 -576
2021-06-17 00:05:38 GMT 40.633030 -73.735512 625 300 140 -576
2021-06-17 00:05:37 GMT 40.632690 -73.734703 625 302 135 -576
2021-06-17 00:05:36 GMT 40.632381 -73.734001 625 302 137 -576
2021-06-17 00:05:34 GMT 40.631710 -73.732628 625 302 137 -576
2021-06-17 00:05:33 GMT 40.631351 -73.731979 625 300 140 -576
2021-06-17 00:05:32 GMT 40.630981 -73.731239 700 299 137 -576
2021-06-17 00:05:31 GMT 40.630322 -73.729736 700 299 134 -576
2021-06-17 00:05:28 GMT 40.629700 -73.728333 700 301 136 -576
2021-06-17 00:05:27 GMT 40.629059 -73.726952 700 300 137 -576
2021-06-17 00:05:25 GMT 40.628738 -73.726189 700 301 134 -576
2021-06-17 00:05:24 GMT 40.628422 -73.725517 725 301 135 -576
2021-06-17 00:05:23 GMT 40.627750 -73.724098 800 300 133 -576
2021-06-17 00:05:21 GMT 40.627419 -73.723381 800 300 131 -576
2021-06-17 00:05:20 GMT 40.626801 -73.722061 800 300 136 -576
2021-06-17 00:05:18 GMT 40.626511 -73.721336 800 301 138 -576
2021-06-17 00:05:17 GMT 40.626171 -73.720581 800 302 135 -576
2021-06-17 00:05:16 GMT 40.625809 -73.719841 800 300 130 -576
2021-06-17 00:05:15 GMT 40.625191 -73.718437 875 301 131 -576
2021-06-17 00:05:13 GMT 40.624870 -73.717781 875 300 131 -576
2021-06-17 00:05:12 GMT 40.624550 -73.717133 875 299 133 -576
2021-06-17 00:05:11 GMT 40.624241 -73.716476 875 298 136 -576
2021-06-17 00:05:09 GMT 40.623661 -73.714981 925 301 137 -576
2021-06-17 00:05:08 GMT 40.623291 -73.714149 925 301 127 -576
2021-06-17 00:05:07 GMT 40.622959 -73.713509 925 300 127 -576
2021-06-17 00:05:06 GMT 40.622410 -73.712212 975 302 134 -576
2021-06-17 00:05:04 GMT 40.622059 -73.711540 975 300 135 -832
2021-06-17 00:05:03 GMT 40.621738 -73.710831 1,000 301 134 -832
2021-06-17 00:05:01 GMT 40.621101 -73.709457 1,000 299 135 -832
2021-06-17 00:05:00 GMT 40.620770 -73.708748 1,000 299 134 -832
2021-06-17 00:04:59 GMT 40.620510 -73.707977 1,100 302 132 -832
2021-06-17 00:04:58 GMT 40.619869 -73.706680 1,100 301 134 -832
2021-06-17 00:04:56 GMT 40.619541 -73.705978 1,100 300 133 -832
2021-06-17 00:04:55 GMT 40.619228 -73.705292 1,100 300 134 -832
2021-06-17 00:04:54 GMT 40.618610 -73.703873 1,100 301 133 -832
2021-06-17 00:04:52 GMT 40.618301 -73.703247 1,125 300 137 -832
2021-06-17 00:04:51 GMT 40.617981 -73.702499 1,125 301 135 -832
2021-06-17 00:04:50 GMT 40.617630 -73.701790 1,200 300 133 -832
2021-06-17 00:04:48 GMT 40.617020 -73.700439 1,200 300 137 -832
2021-06-17 00:04:47 GMT 40.616680 -73.699661 1,200 300 133 -832
2021-06-17 00:04:46 GMT 40.616379 -73.698990 1,200 301 135 -832
2021-06-17 00:04:44 GMT 40.615719 -73.697594 1,200 300 135 -832
2021-06-17 00:04:43 GMT 40.615410 -73.696930 1,300 300 138 -832
2021-06-17 00:04:42 GMT 40.614799 -73.695480 1,300 302 139 -832
2021-06-17 00:04:40 GMT 40.614441 -73.694763 1,300 301 138 -832
2021-06-17 00:04:39 GMT 40.614071 -73.694031 1,300 300 134 -832
2021-06-17 00:04:38 GMT 40.613739 -73.693382 1,400 299 137 -832
2021-06-17 00:04:37 GMT 40.613129 -73.691856 1,400 300 135 -832
2021-06-17 00:04:35 GMT 40.612820 -73.691147 1,400 301 135 -832
2021-06-17 00:04:34 GMT 40.612499 -73.690483 1,400 300 136 -832
2021-06-17 00:04:33 GMT 40.612179 -73.689751 1,400 301 135 -832
2021-06-17 00:04:32 GMT 40.611511 -73.688332 1,400 300 133 -832
2021-06-17 00:04:30 GMT 40.611210 -73.687637 1,400 301 135 -832
2021-06-17 00:04:29 GMT 40.610909 -73.686996 1,400 300 139 -832
2021-06-17 00:04:28 GMT 40.610592 -73.686302 1,400 300 140 -832
2021-06-17 00:04:27 GMT 40.609909 -73.684822 1,400 300 138 -832
2021-06-17 00:04:25 GMT 40.609581 -73.684082 1,400 300 136 -832
2021-06-17 00:04:24 GMT 40.609241 -73.683380 1,600 300 137 -832
2021-06-17 00:04:22 GMT 40.608620 -73.681969 1,600 300 141 -832
2021-06-17 00:04:21 GMT 40.608299 -73.681259 1,600 300 142 -832
2021-06-17 00:04:20 GMT 40.607979 -73.680580 1,600 300 146 -832
2021-06-17 00:04:19 GMT 40.607300 -73.679123 1,600 299 151 -832
2021-06-17 00:04:15 GMT 40.606522 -73.677307 1,525 301 137 -768
2021-06-17 00:04:12 GMT 40.605606 -73.675354 1,575 301 137 -704
2021-06-17 00:04:09 GMT 40.604233 -73.672302 1,625 301 136 -768
2021-06-17 00:04:06 GMT 40.603088 -73.669800 1,675 301 136 -704
2021-06-17 00:04:03 GMT 40.602081 -73.667603 1,700 301 136 -704
2021-06-17 00:04:00 GMT 40.601559 -73.666451 1,725 301 137 -704
2021-06-17 00:03:57 GMT 40.600708 -73.664612 1,750 301 137 -768
2021-06-17 00:03:54 GMT 40.599556 -73.662018 1,800 301 137 -640
2021-06-17 00:03:51 GMT 40.598740 -73.660278 1,850 301 137 -768
2021-06-17 00:03:48 GMT 40.597507 -73.657585 1,900 301 136 -768
2021-06-17 00:03:45 GMT 40.596268 -73.654907 1,925 301 136 -768
2021-06-17 00:03:42 GMT 40.595581 -73.653381 1,950 301 136 -768
2021-06-17 00:03:38 GMT 40.594250 -73.650406 2,000 301 136 -704
2021-06-17 00:03:35 GMT 40.593063 -73.647888 2,025 301 136 -768
2021-06-17 00:03:30 GMT 40.591827 -73.645081 2,050 301 137 -768
2021-06-17 00:03:27 GMT 40.590729 -73.642700 2,125 301 137 -704
2021-06-17 00:03:24 GMT 40.589722 -73.640503 2,150 301 136 -768
2021-06-17 00:03:21 GMT 40.588615 -73.638046 2,200 301 136 -768
2021-06-17 00:03:18 GMT 40.587826 -73.636299 2,225 301 136 -768
2021-06-17 00:03:14 GMT 40.586472 -73.633423 2,275 301 134 -704
2021-06-17 00:03:10 GMT 40.585236 -73.630615 2,350 301 134 -704
2021-06-17 00:03:07 GMT 40.584473 -73.628937 2,450 302 135 -704
2021-06-17 00:03:04 GMT 40.583218 -73.626190 2,425 301 134 -704
2021-06-17 00:03:01 GMT 40.582397 -73.624329 2,500 302 135 -768
2021-06-17 00:02:58 GMT 40.581390 -73.622192 2,500 302 135 -768
2021-06-17 00:02:55 GMT 40.580284 -73.619759 2,525 301 134 -704
2021-06-17 00:02:51 GMT 40.577911 -73.614578 2,625 301 134 -768
2021-06-17 00:02:45 GMT 40.577454 -73.613525 2,700 301 134 -768
2021-06-17 00:02:40 GMT 40.575630 -73.609520 2,700 301 136 -704
2021-06-17 00:02:36 GMT 40.574326 -73.606651 2,825 302 137 -704
2021-06-17 00:02:33 GMT 40.573116 -73.604027 2,800 302 137 -704
2021-06-17 00:02:29 GMT 40.572231 -73.602097 2,850 302 137 -768
2021-06-17 00:02:26 GMT 40.570953 -73.599243 2,900 301 136 -768
2021-06-17 00:02:22 GMT 40.569717 -73.596558 2,925 301 136 -832
2021-06-17 00:02:18 GMT 40.568275 -73.593483 2,975 302 135 -768
2021-06-17 00:02:14 GMT 40.567341 -73.591423 3,025 302 136 -704
2021-06-17 00:02:09 GMT 40.565575 -73.587547 3,075 302 139 -768
2021-06-17 00:02:05 GMT 40.563709 -73.583488 3,275 302 144 -704
2021-06-17 00:02:02 GMT 40.562874 -73.581680 3,200 301 141 -832
2021-06-17 00:01:59 GMT 40.562130 -73.580055 3,225 301 143 -832
2021-06-17 00:01:55 GMT 40.560966 -73.577438 3,300 301 144 -768
2021-06-17 00:01:52 GMT 40.560036 -73.575439 3,375 302 144 -704
2021-06-17 00:01:49 GMT 40.558731 -73.572510 3,350 302 144 -640
2021-06-17 00:01:44 GMT 40.557148 -73.569138 3,450 302 145 -896
2021-06-17 00:01:41 GMT 40.556030 -73.566704 3,450 302 145 -896
2021-06-17 00:01:38 GMT 40.555054 -73.564575 3,700 301 153 -768
2021-06-17 00:01:33 GMT 40.552917 -73.559998 3,575 302 147 -832
2021-06-17 00:01:30 GMT 40.552414 -73.558838 3,600 301 148 -768
2021-06-17 00:01:27 GMT 40.551315 -73.556458 3,725 301 153 -768
2021-06-17 00:01:24 GMT 40.549747 -73.552963 3,675 301 154 -832
2021-06-17 00:01:21 GMT 40.549095 -73.551529 3,700 301 156 -832
2021-06-17 00:01:18 GMT 40.547745 -73.548599 3,950 301 161 -896
2021-06-17 00:01:14 GMT 40.546394 -73.545540 3,850 301 159 -960
2021-06-17 00:01:11 GMT 40.545273 -73.543030 3,900 301 160 -960
2021-06-17 00:01:08 GMT 40.543835 -73.539856 3,950 301 161 -896
2021-06-17 00:01:03 GMT 40.542023 -73.535828 4,000 301 159 -192
2021-06-17 00:00:59 GMT 40.540810 -73.533119 4,025 301 160 -320
2021-06-17 00:00:56 GMT 40.539829 -73.531059 4,050 301 159 -256
2021-06-17 00:00:53 GMT 40.538177 -73.527405 4,050 302 158 64
2021-06-17 00:00:50 GMT 40.537079 -73.524963 4,050 302 158 0
2021-06-17 00:00:47 GMT 40.536015 -73.522690 4,050 302 157 0
2021-06-17 00:00:42 GMT 40.534332 -73.519043 4,050 301 157 0
2021-06-17 00:00:39 GMT 40.533218 -73.516579 4,050 301 157 64
2021-06-17 00:00:35 GMT 40.531498 -73.512833 4,050 302 156 -64
2021-06-17 00:00:31 GMT 40.530193 -73.510086 4,050 301 156 0
2021-06-17 00:00:26 GMT 40.528198 -73.505798 4,050 302 156 0
2021-06-17 00:00:22 GMT 40.526562 -73.502220 4,050 302 156 0
2021-06-17 00:00:19 GMT 40.525452 -73.499756 4,050 302 156 0
2021-06-17 00:00:16 GMT 40.524261 -73.497253 4,050 301 156 0
2021-06-17 00:00:12 GMT 40.522980 -73.494385 4,050 301 156 0
2021-06-17 00:00:09 GMT 40.521721 -73.491608 4,050 301 156 0
2021-06-17 00:00:06 GMT 40.520462 -73.488953 4,050 301 156 0
2021-06-17 00:00:03 GMT 40.519531 -73.486862 4,050 301 156 0
2021-06-17 00:00:00 GMT 40.518814 -73.485291 4,050 301 155 0
2021-06-16 23:59:57 GMT 40.517624 -73.482681 4,050 301 155 0
2021-06-16 23:59:54 GMT 40.516617 -73.480347 4,050 301 155 0
2021-06-16 23:59:51 GMT 40.515106 -73.477051 4,050 301 155 0
2021-06-16 23:59:48 GMT 40.512634 -73.471497 4,050 301 155 0
2021-06-16 23:59:45 GMT 40.512634 -73.471497 4,050 301 155 0
2021-06-16 23:59:40 GMT 40.511387 -73.468697 4,050 301 156 0
2021-06-16 23:59:37 GMT 40.510036 -73.465828 4,050 301 156 0
2021-06-16 23:59:34 GMT 40.509014 -73.463516 4,050 301 156 -64
2021-06-16 23:59:31 GMT 40.508080 -73.461456 4,050 301 156 -64
2021-06-16 23:59:28 GMT 40.506866 -73.458740 4,050 301 156 -64
2021-06-16 23:59:25 GMT 40.505493 -73.455688 4,050 302 156 0
2021-06-16 23:59:22 GMT 40.504124 -73.452782 4,050 301 157 0
2021-06-16 23:59:19 GMT 40.503567 -73.451530 4,050 301 157 64
2021-06-16 23:59:16 GMT 40.502518 -73.449341 4,050 301 157 64
2021-06-16 23:59:13 GMT 40.501053 -73.446106 4,050 302 157 0
2021-06-16 23:59:10 GMT 40.499725 -73.443237 4,050 302 157 0
2021-06-16 23:59:06 GMT 40.498398 -73.440369 4,050 302 157 64
2021-06-16 23:59:03 GMT 40.497375 -73.438232 4,050 302 157 0
2021-06-16 23:58:59 GMT 40.495747 -73.434738 4,050 302 156 0
2021-06-16 23:58:56 GMT 40.494816 -73.432739 4,050 302 157 0
2021-06-16 23:58:52 GMT 40.493454 -73.429810 4,050 301 157 0
2021-06-16 23:58:49 GMT 40.492298 -73.427376 4,050 301 157 0
2021-06-16 23:58:46 GMT 40.491043 -73.424629 4,050 301 158 64
2021-06-16 23:58:43 GMT 40.489601 -73.421448 4,050 301 158 0
2021-06-16 23:58:39 GMT 40.488064 -73.418076 4,050 302 161 0
2021-06-16 23:58:36 GMT 40.486713 -73.415138 4,050 301 163 -64
2021-06-16 23:58:32 GMT 40.485641 -73.412827 4,050 302 167 -64
2021-06-16 23:58:29 GMT 40.484665 -73.410706 4,050 302 169 -64
2021-06-16 23:58:25 GMT 40.482990 -73.407089 4,050 303 172 -64
2021-06-16 23:58:22 GMT 40.481777 -73.404526 4,050 303 175 0
2021-06-16 23:58:19 GMT 40.480431 -73.401779 4,050 303 177 0
2021-06-16 23:58:16 GMT 40.478668 -73.398132 4,050 303 178 64
2021-06-16 23:58:13 GMT 40.477066 -73.394775 4,050 303 178 0
2021-06-16 23:58:10 GMT 40.475876 -73.392334 4,050 303 178 0
2021-06-16 23:58:07 GMT 40.474915 -73.390381 4,050 303 178 0
2021-06-16 23:58:04 GMT 40.473816 -73.388062 4,050 303 178 0
2021-06-16 23:58:01 GMT 40.472260 -73.384888 4,050 303 178 0
2021-06-16 23:57:57 GMT 40.470467 -73.381241 4,050 303 179 0
2021-06-16 23:57:54 GMT 40.469009 -73.378296 4,050 302 180 0
2021-06-16 23:57:50 GMT 40.467674 -73.375565 4,050 302 180 -64
2021-06-16 23:57:46 GMT 40.465717 -73.371384 4,050 302 180 -64
2021-06-16 23:57:42 GMT 40.463654 -73.366882 4,050 301 180 -64
2021-06-16 23:57:39 GMT 40.462326 -73.363953 4,050 300 180 -64
2021-06-16 23:57:36 GMT 40.461296 -73.361702 4,075 300 180 -64
2021-06-16 23:57:33 GMT 40.460041 -73.358772 4,075 296 181 64
2021-06-16 23:57:30 GMT 40.458782 -73.355835 4,075 298 180 0
2021-06-16 23:57:27 GMT 40.457947 -73.353775 4,075 296 181 64
2021-06-16 23:57:24 GMT 40.456192 -73.349060 4,050 291 181 0
2021-06-16 23:57:20 GMT 40.455151 -73.345352 4,050 285 181 128
2021-06-16 23:57:17 GMT 40.454735 -73.343414 4,050 276 181 128
2021-06-16 23:57:14 GMT 40.454269 -73.340149 4,050 263 182 64
2021-06-16 23:57:11 GMT 40.454266 -73.336174 4,050 263 182 64
2021-06-16 23:57:07 GMT 40.455093 -73.331665 4,050 244 185 -64
2021-06-16 23:57:03 GMT 40.458481 -73.323730 4,050 238 186 0
2021-06-16 23:56:58 GMT 40.458481 -73.323730 4,050 238 186 64
2021-06-16 23:56:55 GMT 40.460087 -73.320442 4,050 239 188 64
2021-06-16 23:56:52 GMT 40.461437 -73.317451 4,050 209 195 -448
2021-06-16 23:56:47 GMT 40.463882 -73.312683 4,075 227 191 -128
2021-06-16 23:56:44 GMT 40.467773 -73.307617 4,100 212 195 -384
2021-06-16 23:56:41 GMT 40.467773 -73.307617 4,100 204 197 -640
2021-06-16 23:56:36 GMT 40.471539 -73.304710 4,125 197 199 -960
2021-06-16 23:56:32 GMT 40.474640 -73.303284 4,225 190 201 -1152
2021-06-16 23:56:29 GMT 40.477753 -73.302307 4,250 187 201 -1088
2021-06-16 23:56:25 GMT 40.480774 -73.301880 4,300 185 200 -1152
2021-06-16 23:56:20 GMT 40.485352 -73.301453 4,400 184 200 -1088
2021-06-16 23:56:17 GMT 40.489197 -73.301086 4,475 184 200 -1088
2021-06-16 23:56:11 GMT 40.494579 -73.300659 4,575 184 201 -896
2021-06-16 23:56:07 GMT 40.498123 -73.300354 4,625 184 201 -768
2021-06-16 23:56:03 GMT 40.504669 -73.299805 4,700 184 203 -576
2021-06-16 23:56:00 GMT 40.504669 -73.299805 4,700 184 204 -576
2021-06-16 23:55:56 GMT 40.509293 -73.299469 4,750 184 206 -512
2021-06-16 23:55:53 GMT 40.511353 -73.299255 4,825 184 207 -576
2021-06-16 23:55:49 GMT 40.514603 -73.299011 4,800 184 208 -640
2021-06-16 23:55:45 GMT 40.519043 -73.298645 4,850 184 210 -832
2021-06-16 23:55:40 GMT 40.524235 -73.298225 4,925 184 212 -768
2021-06-16 23:55:36 GMT 40.527466 -73.297974 4,975 184 213 -640
2021-06-16 23:55:33 GMT 40.530891 -73.297661 5,000 185 214 -704
2021-06-16 23:55:29 GMT 40.534653 -73.297302 5,050 185 216 -448
2021-06-16 23:55:26 GMT 40.538361 -73.296936 5,075 185 218 -256
2021-06-16 23:55:23 GMT 40.540375 -73.296753 5,075 186 220 -128
2021-06-16 23:55:20 GMT 40.542809 -73.296471 5,050 188 224 192
2021-06-16 23:55:16 GMT 40.548065 -73.295715 5,050 190 228 128
2021-06-16 23:55:13 GMT 40.550259 -73.295227 5,050 192 228 64
2021-06-16 23:55:09 GMT 40.555801 -73.293640 5,050 199 230 -64
2021-06-16 23:55:06 GMT 40.558079 -73.292793 5,050 205 230 0
2021-06-16 23:55:02 GMT 40.562828 -73.289917 5,050 211 229 0
2021-06-16 23:54:59 GMT 40.564362 -73.288857 5,050 213 229 0
2021-06-16 23:54:56 GMT 40.567993 -73.285927 5,050 213 229 0
2021-06-16 23:54:53 GMT 40.570496 -73.283813 5,050 213 229 0
2021-06-16 23:54:49 GMT 40.574844 -73.280029 5,050 214 228 64
2021-06-16 23:54:46 GMT 40.579468 -73.276123 5,050 214 226 64
2021-06-16 23:54:42 GMT 40.579468 -73.276123 5,050 214 226 64
2021-06-16 23:54:39 GMT 40.583405 -73.272766 5,050 213 226 -64
2021-06-16 23:54:36 GMT 40.585968 -73.270569 5,050 213 226 -64
2021-06-16 23:54:33 GMT 40.587524 -73.269226 5,050 213 226 -64
2021-06-16 23:54:30 GMT 40.590340 -73.266823 5,075 213 226 -256
2021-06-16 23:54:27 GMT 40.592651 -73.264893 5,075 213 226 -384
2021-06-16 23:54:24 GMT 40.596497 -73.261597 5,150 213 226 -1088
2021-06-16 23:54:20 GMT 40.599834 -73.258774 5,175 213 226 -1024
2021-06-16 23:54:17 GMT 40.602402 -73.256592 5,225 213 226 -1152
2021-06-16 23:54:14 GMT 40.604164 -73.255089 5,250 213 226 -1152
2021-06-16 23:54:11 GMT 40.607239 -73.252464 5,325 214 226 -1152
2021-06-16 23:54:08 GMT 40.612930 -73.247620 5,425 214 226 -1280
2021-06-16 23:54:05 GMT 40.612930 -73.247620 5,450 214 226 -1280
2021-06-16 23:54:02 GMT 40.614761 -73.246033 5,500 214 226 -1280
2021-06-16 23:53:59 GMT 40.617386 -73.243729 5,575 214 226 -1152
2021-06-16 23:53:56 GMT 40.620529 -73.241028 5,650 214 225 -1152
2021-06-16 23:53:53 GMT 40.623596 -73.238403 5,725 214 225 -1216
2021-06-16 23:53:50 GMT 40.626709 -73.235779 5,775 214 225 -1216
2021-06-16 23:53:46 GMT 40.629677 -73.233238 5,850 213 224 -1152
2021-06-16 23:53:42 GMT 40.632656 -73.230743 5,950 214 225 -1088
2021-06-16 23:53:39 GMT 40.635124 -73.228622 5,975 213 226 -1088
2021-06-16 23:53:36 GMT 40.637310 -73.226746 6,025 213 226 -1024
2021-06-16 23:53:33 GMT 40.641174 -73.223503 6,075 213 226 -960
2021-06-16 23:53:29 GMT 40.643921 -73.221191 6,125 213 227 -960
2021-06-16 23:53:26 GMT 40.646389 -73.219070 6,200 213 227 -1024
2021-06-16 23:53:23 GMT 40.649460 -73.216446 6,250 213 228 -960
2021-06-16 23:53:19 GMT 40.653557 -73.213013 6,300 213 228 -960
2021-06-16 23:53:14 GMT 40.657887 -73.209335 6,825 214 229 -960
2021-06-16 23:53:09 GMT 40.661453 -73.206360 6,450 214 229 -960
2021-06-16 23:53:06 GMT 40.665298 -73.203064 6,600 215 256 -256
2021-06-16 23:53:03 GMT 40.667244 -73.201408 6,525 214 230 -832
2021-06-16 23:52:59 GMT 40.670654 -73.198486 6,575 214 231 -768
2021-06-16 23:52:55 GMT 40.673714 -73.195847 6,650 214 233 -704
2021-06-16 23:52:52 GMT 40.676506 -73.193474 6,650 214 234 -640
2021-06-16 23:52:48 GMT 40.681503 -73.189148 6,725 214 238 -576
2021-06-16 23:52:43 GMT 40.688938 -73.182678 6,825 214 240 -640
2021-06-16 23:52:39 GMT 40.688938 -73.182678 6,800 214 240 -640
2021-06-16 23:52:36 GMT 40.691162 -73.180786 6,850 214 240 -640
2021-06-16 23:52:32 GMT 40.695740 -73.176819 6,900 223 259 -448
2021-06-16 23:52:29 GMT 40.698528 -73.174377 6,925 214 244 -704
2021-06-16 23:52:26 GMT 40.701370 -73.171936 6,975 214 244 -640
2021-06-16 23:52:22 GMT 40.704300 -73.169434 7,000 213 246 -640
2021-06-16 23:52:19 GMT 40.708721 -73.165634 7,050 214 248 -512
2021-06-16 23:52:15 GMT 40.715103 -73.160217 7,075 214 252 -256
2021-06-16 23:52:12 GMT 40.715103 -73.160217 7,150 223 259 -448
2021-06-16 23:52:08 GMT 40.717705 -73.157898 7,100 216 257 -320
2021-06-16 23:52:04 GMT 40.723068 -73.153076 7,100 218 258 -384
2021-06-16 23:52:01 GMT 40.725082 -73.151062 7,125 220 259 -384
2021-06-16 23:51:58 GMT 40.728378 -73.147644 7,150 225 260 -512
2021-06-16 23:51:54 GMT 40.731068 -73.144226 7,175 230 260 -576
2021-06-16 23:51:51 GMT 40.733349 -73.140793 7,200 238 261 -640
2021-06-16 23:51:48 GMT 40.736698 -73.134117 7,250 251 264 -896
2021-06-16 23:51:45 GMT 40.737770 -73.131432 7,275 248 263 -576
2021-06-16 23:51:41 GMT 40.739677 -73.125313 7,325 253 264 -1088
2021-06-16 23:51:35 GMT 40.741653 -73.116211 7,475 256 265 -1344
2021-06-16 23:51:31 GMT 40.743122 -73.108711 7,550 256 265 -1344
2021-06-16 23:51:26 GMT 40.744148 -73.103218 7,625 256 266 -1344
2021-06-16 23:51:23 GMT 40.745312 -73.097099 7,750 256 266 -1280
2021-06-16 23:51:20 GMT 40.746151 -73.092850 7,900 256 267 -1280
2021-06-16 23:51:17 GMT 40.747284 -73.086853 7,850 256 266 -1216
2021-06-16 23:51:13 GMT 40.748150 -73.082306 7,950 256 267 0
2021-06-16 23:51:10 GMT 40.749069 -73.077576 8,000 256 267 -1344
2021-06-16 23:51:07 GMT 40.750168 -73.071777 8,075 256 267 -1344
2021-06-16 23:51:04 GMT 40.751083 -73.066895 8,125 256 267 -1280
2021-06-16 23:51:00 GMT 40.752342 -73.060265 8,225 256 267 -1280
2021-06-16 23:50:55 GMT 40.753372 -73.054932 8,300 256 267 -1280
2021-06-16 23:50:52 GMT 40.754425 -73.049683 8,375 256 267 -1344
2021-06-16 23:50:49 GMT 40.755459 -73.044350 8,450 255 267 -1280
2021-06-16 23:50:46 GMT 40.756668 -73.038330 8,525 256 268 -1408
2021-06-16 23:50:42 GMT 40.757904 -73.032227 8,650 255 268 -1408
2021-06-16 23:50:39 GMT 40.758636 -73.028748 8,675 255 268 -1408
2021-06-16 23:50:36 GMT 40.759735 -73.023193 8,800 255 267 -1408
2021-06-16 23:50:33 GMT 40.760788 -73.018311 8,825 255 267 -1472
2021-06-16 23:50:29 GMT 40.762070 -73.012016 8,925 255 267 -1472
2021-06-16 23:50:24 GMT 40.763329 -73.005898 9,025 255 267 -1344
2021-06-16 23:50:21 GMT 40.764725 -72.999161 9,125 255 267 -1344
2021-06-16 23:50:18 GMT 40.765503 -72.995361 9,300 255 268 -1344
2021-06-16 23:50:15 GMT 40.766865 -72.988792 9,275 255 267 -1344
2021-06-16 23:50:11 GMT 40.767838 -72.984070 9,350 255 268 -1344
2021-06-16 23:50:08 GMT 40.769165 -72.977905 9,425 252 269 -1280
2021-06-16 23:50:05 GMT 40.770035 -72.973999 9,550 253 269 -1280
2021-06-16 23:50:00 GMT 40.771984 -72.965889 9,600 251 270 -1280
2021-06-16 23:49:56 GMT 40.773243 -72.961082 9,650 248 271 -1344
2021-06-16 23:49:52 GMT 40.775291 -72.954903 9,775 240 272 -1472
2021-06-16 23:49:49 GMT 40.777267 -72.950256 9,825 235 274 -1472
2021-06-16 23:49:46 GMT 40.778599 -72.947594 10,625 216 285 -1152
2021-06-16 23:49:43 GMT 40.781948 -72.942101 9,975 224 279 -1408
2021-06-16 23:49:40 GMT 40.784695 -72.938484 10,075 220 281 -1408
2021-06-16 23:49:37 GMT 40.787537 -72.935173 10,150 218 283 -1408
2021-06-16 23:49:34 GMT 40.791229 -72.931396 10,200 217 284 -1344
2021-06-16 23:49:30 GMT 40.795074 -72.927742 10,275 216 284 -1216
2021-06-16 23:49:26 GMT 40.798691 -72.924255 10,350 216 285 -1152
2021-06-16 23:49:22 GMT 40.804062 -72.919197 10,450 216 286 -1088
2021-06-16 23:49:19 GMT 40.806343 -72.917068 10,500 216 287 -1024
2021-06-16 23:49:16 GMT 40.809448 -72.914124 10,525 216 288 -1024
2021-06-16 23:49:11 GMT 40.815418 -72.908455 10,650 216 289 -1152
2021-06-16 23:49:08 GMT 40.821518 -72.902718 10,675 216 289 -1216
2021-06-16 23:49:05 GMT 40.821518 -72.902718 10,800 216 290 -1280
2021-06-16 23:49:01 GMT 40.826870 -72.897659 10,850 216 291 -1280
2021-06-16 23:48:58 GMT 40.829151 -72.895538 10,925 216 291 -1280
2021-06-16 23:48:55 GMT 40.832886 -72.892029 10,950 216 291 -1280
2021-06-16 23:48:52 GMT 40.835857 -72.889229 11,000 216 291 -1280
2021-06-16 23:48:48 GMT 40.841301 -72.884048 11,125 216 291 -1344
2021-06-16 23:48:44 GMT 40.844055 -72.881470 11,175 216 291 -1472
2021-06-16 23:48:40 GMT 40.849319 -72.876404 11,300 216 292 -1472
2021-06-16 23:48:37 GMT 40.852386 -72.873535 11,350 216 292 -1472
2021-06-16 23:48:34 GMT 40.855316 -72.870728 11,625 216 293 -1408
2021-06-16 23:48:30 GMT 40.860489 -72.865784 11,525 216 293 -1408
2021-06-16 23:48:27 GMT 40.862595 -72.863831 11,600 216 293 -1472
2021-06-16 23:48:24 GMT 40.865982 -72.860596 11,675 216 292 -1600
2021-06-16 23:48:21 GMT 40.870056 -72.856689 11,800 217 292 -1664
2021-06-16 23:48:18 GMT 40.872772 -72.854088 11,875 217 292 -1600
2021-06-16 23:48:15 GMT 40.877151 -72.849915 11,925 217 291 -1408
2021-06-16 23:48:12 GMT 40.879803 -72.847343 12,000 217 293 -704
2021-06-16 23:48:09 GMT 40.883057 -72.844177 12,025 217 295 -64
2021-06-16 23:48:06 GMT 40.886215 -72.841064 12,025 217 295 -128
2021-06-16 23:48:02 GMT 40.891342 -72.835999 12,025 218 294 0
2021-06-16 23:47:59 GMT 40.894089 -72.833252 12,050 217 294 0
2021-06-16 23:47:56 GMT 40.898422 -72.828934 12,050 217 293 0
2021-06-16 23:47:53 GMT 40.900085 -72.827332 12,050 217 293 0
2021-06-16 23:47:48 GMT 40.905624 -72.821899 12,050 218 291 -64
2021-06-16 23:47:45 GMT 40.908852 -72.818695 12,050 219 291 0
2021-06-16 23:47:42 GMT 40.912079 -72.815430 12,050 221 290 0
2021-06-16 23:47:39 GMT 40.915180 -72.812012 12,050 224 288 0
2021-06-16 23:47:37 GMT 40.918114 -72.808456 12,050 226 287 64
2021-06-16 23:47:32 GMT 40.922470 -72.802490 12,050 231 288 0
2021-06-16 23:47:29 GMT 40.924347 -72.799500 12,050 234 289 -128
2021-06-16 23:47:25 GMT 40.928726 -72.791725 12,075 239 290 -512
2021-06-16 23:47:22 GMT 40.930115 -72.788879 12,100 241 291 -512
2021-06-16 23:47:19 GMT 40.932358 -72.783813 12,125 245 292 -512
2021-06-16 23:47:15 GMT 40.934917 -72.776680 12,150 250 294 -512
2021-06-16 23:47:12 GMT 40.936035 -72.773247 12,175 251 295 -576
2021-06-16 23:47:09 GMT 40.937153 -72.769127 12,250 252 298 -512
2021-06-16 23:47:06 GMT 40.939041 -72.761780 12,225 252 300 -512
2021-06-16 23:47:02 GMT 40.940872 -72.754517 12,275 252 301 -512
2021-06-16 23:46:59 GMT 40.942429 -72.748413 12,300 252 303 -448
2021-06-16 23:46:55 GMT 40.943527 -72.744019 12,300 252 306 -448
2021-06-16 23:46:51 GMT 40.945496 -72.736389 12,350 252 309 -512
2021-06-16 23:46:47 GMT 40.947582 -72.728180 12,375 252 312 -512
2021-06-16 23:46:44 GMT 40.949066 -72.722412 12,425 252 315 -448
2021-06-16 23:46:41 GMT 40.950420 -72.716942 12,425 252 316 -448
2021-06-16 23:46:38 GMT 40.951397 -72.713135 12,450 252 319 -512
2021-06-16 23:46:35 GMT 40.952980 -72.706833 12,475 252 321 -576
2021-06-16 23:46:32 GMT 40.954834 -72.699585 12,525 252 324 -576
2021-06-16 23:46:27 GMT 40.957218 -72.690163 12,575 252 327 -448
2021-06-16 23:46:23 GMT 40.958405 -72.685425 12,575 252 329 -384
2021-06-16 23:46:20 GMT 40.959961 -72.679138 12,600 252 333 -576
2021-06-16 23:46:17 GMT 40.961792 -72.671997 12,625 252 335 -640
2021-06-16 23:46:14 GMT 40.962757 -72.668068 12,675 252 337 -704
2021-06-16 23:46:11 GMT 40.963989 -72.663208 12,700 252 339 -832
2021-06-16 23:46:08 GMT 40.965820 -72.655945 12,775 252 341 -1152
2021-06-16 23:46:06 GMT 40.966900 -72.651588 12,850 252 342 -1344
2021-06-16 23:46:02 GMT 40.970169 -72.638489 12,950 252 343 -1664
2021-06-16 23:45:59 GMT 40.970169 -72.638489 12,950 252 343 -1728
2021-06-16 23:45:56 GMT 40.971451 -72.633545 13,025 252 343 -1920
2021-06-16 23:45:53 GMT 40.973232 -72.626373 13,250 252 343 -1920
2021-06-16 23:45:49 GMT 40.975479 -72.617615 13,300 252 345 -1920
2021-06-16 23:45:46 GMT 40.977421 -72.610016 13,425 252 345 -1920
2021-06-16 23:45:42 GMT 40.979282 -72.602654 13,525 252 344 -1984
2021-06-16 23:45:39 GMT 40.980057 -72.599670 13,575 252 345 -1984
2021-06-16 23:45:36 GMT 40.981846 -72.592415 13,700 252 345 -1920
2021-06-16 23:45:33 GMT 40.983707 -72.584984 13,875 252 346 -1984
2021-06-16 23:45:30 GMT 40.985474 -72.577995 14,075 252 347 -1984
2021-06-16 23:45:25 GMT 40.987755 -72.568939 14,100 252 347 -1984
2021-06-16 23:45:22 GMT 40.988918 -72.564262 14,150 252 348 -1984
2021-06-16 23:45:18 GMT 40.991386 -72.554398 14,575 252 349 -1920
2021-06-16 23:45:14 GMT 40.992970 -72.548096 14,450 252 349 -1920
2021-06-16 23:45:10 GMT 40.995670 -72.537354 14,575 252 350 -1920
2021-06-16 23:45:07 GMT 40.996674 -72.533325 14,650 252 351 -1920
2021-06-16 23:45:04 GMT 40.997669 -72.529427 14,700 252 351 -1920
2021-06-16 23:45:02 GMT 40.999420 -72.522522 14,825 252 353 -1984
2021-06-16 23:44:59 GMT 41.000977 -72.516441 14,900 252 352 -1920
2021-06-16 23:44:55 GMT 41.004410 -72.502747 15,075 252 352 -1920
2021-06-16 23:44:52 GMT 41.006004 -72.496407 15,200 252 353 -1984
2021-06-16 23:44:49 GMT 41.006004 -72.496407 15,250 252 353 -1984
2021-06-16 23:44:46 GMT 41.007496 -72.490479 15,325 252 353 -1984
2021-06-16 23:44:42 GMT 41.009495 -72.482422 15,450 252 354 -1984
2021-06-16 23:44:38 GMT 41.011497 -72.474434 15,575 252 355 -1984
2021-06-16 23:44:34 GMT 41.013565 -72.466187 15,725 252 355 -1984
2021-06-16 23:44:32 GMT 41.015129 -72.460014 15,850 252 355 -1984
2021-06-16 23:44:29 GMT 41.016060 -72.456268 15,925 252 355 -1984
2021-06-16 23:44:26 GMT 41.018280 -72.447632 16,675 252 356 -1984
2021-06-16 23:44:23 GMT 41.019791 -72.441650 16,125 252 356 -1984
2021-06-16 23:44:20 GMT 41.020855 -72.437355 16,175 252 356 -1984
2021-06-16 23:44:17 GMT 41.022537 -72.430725 16,300 252 356 -1984
2021-06-16 23:44:14 GMT 41.024113 -72.424500 16,400 252 356 -1984
2021-06-16 23:44:11 GMT 41.025650 -72.418320 16,500 252 357 -1920
2021-06-16 23:44:07 GMT 41.027664 -72.410217 16,600 252 357 -1792
2021-06-16 23:44:04 GMT 41.029236 -72.403770 16,700 252 358 -1728
2021-06-16 23:43:59 GMT 41.032120 -72.392097 16,850 252 360 -1664
2021-06-16 23:43:54 GMT 41.034447 -72.382675 17,025 253 363 -1984
2021-06-16 23:43:50 GMT 41.036823 -72.373184 17,125 252 362 -1984
2021-06-16 23:43:47 GMT 41.038513 -72.366516 17,250 252 362 -1984
2021-06-16 23:43:43 GMT 41.041626 -72.353882 17,425 252 363 -1984
2021-06-16 23:43:40 GMT 41.041626 -72.353882 17,450 252 363 -1984
2021-06-16 23:43:36 GMT 41.043617 -72.345848 17,625 253 363 -1984
2021-06-16 23:43:33 GMT 41.045151 -72.339478 17,675 253 363 -1984
2021-06-16 23:43:29 GMT 41.047806 -72.328674 17,925 253 364 -1984
2021-06-16 23:43:26 GMT 41.049179 -72.322937 17,925 253 364 -1984
2021-06-16 23:43:23 GMT 41.050274 -72.318504 18,350 253 366 -1984
2021-06-16 23:43:19 GMT 41.052795 -72.308044 18,150 253 366 -1984
2021-06-16 23:43:16 GMT 41.054325 -72.301903 18,275 253 366 -1984
2021-06-16 23:43:13 GMT 41.055679 -72.296326 18,350 253 366 -1984
2021-06-16 23:43:10 GMT 41.057632 -72.288231 18,500 253 367 -2048
2021-06-16 23:43:06 GMT 41.058929 -72.282898 18,550 253 367 -1984
2021-06-16 23:43:03 GMT 41.060936 -72.274750 18,675 253 368 -1984
2021-06-16 23:42:58 GMT 41.063187 -72.265320 18,900 253 369 -1984
2021-06-16 23:42:55 GMT 41.065498 -72.255829 18,975 253 369 -1984
2021-06-16 23:42:52 GMT 41.066345 -72.252380 20,700 253 370 -1984
2021-06-16 23:42:48 GMT 41.068523 -72.243347 19,150 253 370 -1984
2021-06-16 23:42:45 GMT 41.070015 -72.237358 19,250 253 370 -1984
2021-06-16 23:42:41 GMT 41.072937 -72.225464 19,450 252 371 -1984
2021-06-16 23:42:38 GMT 41.073971 -72.221375 19,575 252 372 -1984
2021-06-16 23:42:35 GMT 41.076233 -72.212280 19,650 252 373 -1984
2021-06-16 23:42:32 GMT 41.077560 -72.206909 19,725 252 373 -2048
2021-06-16 23:42:28 GMT 41.079391 -72.199768 19,850 252 373 -2048
2021-06-16 23:42:25 GMT 41.081001 -72.193474 20,050 252 373 -2048
2021-06-16 23:42:21 GMT 41.083282 -72.184570 20,150 252 375 -1984
2021-06-16 23:42:18 GMT 41.085388 -72.176331 20,200 252 376 -1984
2021-06-16 23:42:13 GMT 41.087769 -72.167175 20,350 250 377 -2048
2021-06-16 23:42:10 GMT 41.089371 -72.161560 20,700 246 378 -2048
2021-06-16 23:42:07 GMT 41.091660 -72.154114 20,600 244 380 -2048
2021-06-16 23:42:04 GMT 41.096237 -72.141785 20,700 241 381 -2048
2021-06-16 23:42:01 GMT 41.096237 -72.141785 20,800 237 383 -2048
2021-06-16 23:41:58 GMT 41.099808 -72.133484 20,900 238 382 -2048
2021-06-16 23:41:55 GMT 41.102783 -72.127319 21,000 235 384 -2048
2021-06-16 23:41:50 GMT 41.107674 -72.118126 21,150 224 390 -2048
2021-06-16 23:41:47 GMT 41.110420 -72.113449 21,400 229 388 -1984
2021-06-16 23:41:44 GMT 41.113262 -72.108887 21,400 228 389 -2048
2021-06-16 23:41:41 GMT 41.116837 -72.103516 21,425 226 390 -2048
2021-06-16 23:41:39 GMT 41.119965 -72.099274 21,500 224 391 -2048
2021-06-16 23:41:36 GMT 41.123734 -72.094406 21,600 222 392 -2112
2021-06-16 23:41:33 GMT 41.128342 -72.088974 21,725 221 393 -2176
2021-06-16 23:41:30 GMT 41.130569 -72.086487 21,775 220 393 -2112
2021-06-16 23:41:28 GMT 41.135468 -72.081116 21,900 220 394 -2112
2021-06-16 23:41:24 GMT 41.139816 -72.076355 22,025 220 394 -2112
2021-06-16 23:41:22 GMT 41.142654 -72.073303 22,025 220 394 -2112
2021-06-16 23:41:19 GMT 41.147430 -72.068062 22,225 220 395 -1920
2021-06-16 23:41:16 GMT 41.152363 -72.062698 22,350 220 396 -1664
2021-06-16 23:41:13 GMT 41.155060 -72.059753 22,400 220 397 -1600
2021-06-16 23:41:10 GMT 41.159180 -72.055298 22,425 220 397 -1472
2021-06-16 23:41:08 GMT 41.163300 -72.050781 22,500 220 399 -1216
2021-06-16 23:41:05 GMT 41.166145 -72.047714 22,575 220 399 -1152
2021-06-16 23:41:03 GMT 41.169708 -72.043823 22,600 220 399 -1152
2021-06-16 23:41:00 GMT 41.174149 -72.039001 22,650 220 399 -1152
2021-06-16 23:40:55 GMT 41.180557 -72.031982 22,750 220 400 -1024
2021-06-16 23:40:53 GMT 41.184677 -72.027466 22,775 220 400 -960
2021-06-16 23:40:50 GMT 41.188396 -72.023369 22,825 220 401 -896
2021-06-16 23:40:48 GMT 41.192413 -72.018982 22,875 220 403 -1024
2021-06-16 23:40:45 GMT 41.199738 -72.010986 22,925 220 402 -960
2021-06-16 23:40:42 GMT 41.199738 -72.010986 22,975 220 403 -1024
2021-06-16 23:40:38 GMT 41.206364 -72.003769 23,025 220 404 -1088
2021-06-16 23:40:35 GMT 41.210632 -71.999084 23,100 220 404 -1088
2021-06-16 23:40:32 GMT 41.214249 -71.995117 23,150 220 404 -1088
2021-06-16 23:40:29 GMT 41.218281 -71.990662 23,175 220 404 -1088
2021-06-16 23:40:25 GMT 41.224007 -71.984360 23,250 220 404 -1088
2021-06-16 23:40:22 GMT 41.232834 -71.974670 23,350 220 405 -1024
2021-06-16 23:40:19 GMT 41.232834 -71.974670 23,350 220 406 -1024
2021-06-16 23:40:15 GMT 41.238857 -71.968002 23,425 220 406 -1088
2021-06-16 23:40:12 GMT 41.243935 -71.962448 23,500 220 406 -1152
2021-06-16 23:40:09 GMT 41.247391 -71.958618 23,525 220 406 -1216
2021-06-16 23:40:07 GMT 41.251144 -71.954468 23,650 222 405 -1280
2021-06-16 23:40:04 GMT 41.253891 -71.951477 23,625 221 405 -1344
2021-06-16 23:39:59 GMT 41.261578 -71.942657 23,750 223 405 -1152
2021-06-16 23:39:56 GMT 41.265625 -71.937790 23,850 226 405 -704
2021-06-16 23:39:53 GMT 41.272797 -71.928711 23,850 225 405 -832
2021-06-16 23:39:51 GMT 41.272797 -71.928711 23,900 226 405 -640
2021-06-16 23:39:48 GMT 41.275311 -71.925369 23,900 226 405 -640
2021-06-16 23:39:45 GMT 41.286072 -71.910156 23,975 228 404 -512
2021-06-16 23:39:41 GMT 41.286072 -71.910156 24,000 236 406 -1088
2021-06-16 23:39:38 GMT 41.288391 -71.906639 24,000 230 404 -448
2021-06-16 23:39:34 GMT 41.294312 -71.897339 24,025 232 404 -448
2021-06-16 23:39:31 GMT 41.296535 -71.893654 24,050 233 404 -640
2021-06-16 23:39:28 GMT 41.300541 -71.886787 24,075 235 404 -960
2021-06-16 23:39:24 GMT 41.305473 -71.877739 24,175 236 404 -1024
2021-06-16 23:39:21 GMT 41.307587 -71.873657 24,200 236 404 -1024
2021-06-16 23:39:18 GMT 41.311203 -71.866699 24,250 236 405 -1024
2021-06-16 23:39:12 GMT 41.318371 -71.853020 24,375 236 406 -1088
2021-06-16 23:39:08 GMT 41.322514 -71.845032 24,450 236 406 -1088
2021-06-16 23:39:05 GMT 41.326172 -71.838013 24,500 236 406 -1088
2021-06-16 23:39:01 GMT 41.329823 -71.831047 24,575 236 406 -1088
2021-06-16 23:38:58 GMT 41.333038 -71.824890 24,625 236 408 -1088
2021-06-16 23:38:53 GMT 41.338074 -71.815186 24,700 236 408 -1088
2021-06-16 23:38:50 GMT 41.341694 -71.808205 24,800 236 408 -1088
2021-06-16 23:38:47 GMT 41.344162 -71.803406 24,825 236 409 -1152
2021-06-16 23:38:42 GMT 41.350071 -71.792030 24,925 236 409 -1088
2021-06-16 23:38:40 GMT 41.352768 -71.786865 24,975 236 409 -1088
2021-06-16 23:38:37 GMT 41.355057 -71.782532 25,000 236 411 -1024
2021-06-16 23:38:33 GMT 41.362827 -71.767563 25,100 236 411 -960
2021-06-16 23:38:30 GMT 41.362827 -71.767563 25,125 236 411 -960
2021-06-16 23:38:27 GMT 41.366180 -71.761131 25,175 236 412 -1024
2021-06-16 23:38:23 GMT 41.370941 -71.751953 25,250 236 412 -1216
2021-06-16 23:38:20 GMT 41.373871 -71.746338 25,350 236 412 -1280
2021-06-16 23:38:17 GMT 41.382980 -71.728760 25,400 236 413 -1280
2021-06-16 23:38:12 GMT 41.382980 -71.728760 25,475 236 413 -1280
2021-06-16 23:38:09 GMT 41.385033 -71.724808 25,550 236 414 -1280
2021-06-16 23:38:06 GMT 41.388851 -71.717476 25,600 236 414 -1216
2021-06-16 23:38:02 GMT 41.393597 -71.708214 25,700 236 415 -1344
2021-06-16 23:37:59 GMT 41.396759 -71.702080 25,825 236 415 -1472
2021-06-16 23:37:55 GMT 41.400673 -71.694542 25,850 236 415 -1664
2021-06-16 23:37:51 GMT 41.405144 -71.685852 25,975 236 414 -1664
2021-06-16 23:37:46 GMT 41.415802 -71.665253 27,225 236 424 -1472
2021-06-16 23:37:41 GMT 41.419418 -71.658264 26,300 236 417 -1472
2021-06-16 23:37:36 GMT 41.421387 -71.654457 26,350 236 418 -1472
2021-06-16 23:37:30 GMT 41.427956 -71.641716 26,475 236 419 -1472
2021-06-16 23:37:26 GMT 41.432327 -71.633232 26,575 236 420 -1472
2021-06-16 23:37:21 GMT 41.438801 -71.620644 26,725 236 420 -1472
2021-06-16 23:37:18 GMT 41.442200 -71.614059 26,800 236 422 -1472
2021-06-16 23:37:13 GMT 41.447830 -71.603142 26,950 236 422 -1472
2021-06-16 23:37:09 GMT 41.450855 -71.597328 27,025 236 422 -1472
2021-06-16 23:37:06 GMT 41.454952 -71.589401 27,100 236 423 -1472
2021-06-16 23:37:03 GMT 41.457687 -71.584045 27,150 236 424 -1472
2021-06-16 23:37:00 GMT 41.461121 -71.577362 27,300 236 425 -1472
2021-06-16 23:36:58 GMT 41.464264 -71.571327 27,300 236 425 -1472
2021-06-16 23:36:55 GMT 41.466454 -71.567047 27,400 236 434 -1472
2021-06-16 23:36:50 GMT 41.473480 -71.553459 27,500 236 426 -1472
2021-06-16 23:36:47 GMT 41.476692 -71.547188 27,600 236 427 -1472
2021-06-16 23:36:44 GMT 41.478516 -71.543716 27,600 236 427 -1472
2021-06-16 23:36:41 GMT 41.481861 -71.537155 27,700 236 427 -1472
2021-06-16 23:36:38 GMT 41.489914 -71.521492 27,825 236 429 -1472
2021-06-16 23:36:35 GMT 41.489914 -71.521492 27,875 236 430 -1472
2021-06-16 23:36:32 GMT 41.493164 -71.515190 27,950 236 430 -1472
2021-06-16 23:36:29 GMT 41.495640 -71.510391 28,025 236 430 -1472
2021-06-16 23:36:27 GMT 41.498993 -71.503815 28,075 236 431 -1472
2021-06-16 23:36:24 GMT 41.501366 -71.499275 28,125 236 432 -1472
2021-06-16 23:36:19 GMT 41.507034 -71.488289 28,275 236 432 -1472
2021-06-16 23:36:17 GMT 41.509644 -71.483292 28,325 236 433 -1472
2021-06-16 23:36:14 GMT 41.513168 -71.476486 28,375 236 433 -1472
2021-06-16 23:36:11 GMT 41.516693 -71.469688 28,450 236 434 -1472
2021-06-16 23:36:08 GMT 41.518871 -71.465492 28,500 236 434 -1472
2021-06-16 23:36:05 GMT 41.524429 -71.454704 28,625 236 435 -1472
2021-06-16 23:36:01 GMT 41.528179 -71.447411 28,700 236 436 -1472
2021-06-16 23:35:58 GMT 41.531067 -71.441856 28,825 236 437 -1472
2021-06-16 23:35:55 GMT 41.535023 -71.434067 28,850 236 437 -1472
2021-06-16 23:35:51 GMT 41.539959 -71.424545 28,975 236 438 -1472
2021-06-16 23:35:48 GMT 41.543381 -71.417877 29,275 236 440 -1472
2021-06-16 23:35:43 GMT 41.548325 -71.408264 29,150 236 439 -1472
2021-06-16 23:35:38 GMT 41.554714 -71.395805 29,350 236 440 -1472
2021-06-16 23:35:34 GMT 41.558300 -71.388840 29,350 236 440 -1472
2021-06-16 23:35:32 GMT 41.560253 -71.385010 29,400 236 441 -1472
2021-06-16 23:35:29 GMT 41.564167 -71.377403 29,525 236 441 -1472
2021-06-16 23:35:26 GMT 41.568283 -71.369308 29,575 236 441 -1536
2021-06-16 23:35:23 GMT 41.571754 -71.362587 29,650 236 441 -1536
2021-06-16 23:35:20 GMT 41.575291 -71.355629 29,725 236 442 -1536
2021-06-16 23:35:17 GMT 41.577618 -71.351089 29,775 236 442 -1536
2021-06-16 23:35:14 GMT 41.581856 -71.342789 29,875 236 442 -1536
2021-06-16 23:35:12 GMT 41.583572 -71.339348 29,925 236 442 -1536
2021-06-16 23:35:09 GMT 41.587372 -71.331917 30,000 236 442 -1536
2021-06-16 23:35:06 GMT 41.590839 -71.325157 30,075 236 442 -1472
2021-06-16 23:35:03 GMT 41.594425 -71.318199 30,150 236 443 -1472
2021-06-16 23:35:00 GMT 41.598476 -71.310272 30,250 236 443 -1472
2021-06-16 23:34:57 GMT 41.601219 -71.304909 30,300 236 443 -1472
2021-06-16 23:34:55 GMT 41.604153 -71.299225 30,375 236 443 -1536
2021-06-16 23:34:52 GMT 41.607971 -71.291817 30,450 236 443 -1536
2021-06-16 23:34:49 GMT 41.611450 -71.285042 30,525 236 443 -1536
2021-06-16 23:34:46 GMT 41.614815 -71.278465 30,600 236 444 -1536
2021-06-16 23:34:43 GMT 41.617702 -71.272842 30,675 236 445 -1536
2021-06-16 23:34:41 GMT 41.619781 -71.268745 30,700 236 445 -1536
2021-06-16 23:34:37 GMT 41.624908 -71.258759 30,825 236 447 -1472
2021-06-16 23:34:34 GMT 41.627663 -71.253304 30,875 236 447 -1472
2021-06-16 23:34:31 GMT 41.631638 -71.245590 30,950 236 448 -1472
2021-06-16 23:34:27 GMT 41.636742 -71.235481 31,075 236 449 -1472
2021-06-16 23:34:25 GMT 41.638275 -71.232544 31,100 236 450 -1472
2021-06-16 23:34:21 GMT 41.643677 -71.221939 31,225 236 451 -1472
2021-06-16 23:34:18 GMT 41.646973 -71.215500 31,275 236 452 -1472
2021-06-16 23:34:15 GMT 41.650520 -71.208588 31,375 236 456 -1472
2021-06-16 23:34:11 GMT 41.655083 -71.199585 31,475 236 454 -1472
2021-06-16 23:34:08 GMT 41.659012 -71.191971 31,525 236 454 -1472
2021-06-16 23:34:05 GMT 41.662529 -71.184952 31,600 236 455 -1472
2021-06-16 23:34:02 GMT 41.665009 -71.180107 31,675 236 456 -1472
2021-06-16 23:34:00 GMT 41.668118 -71.174034 31,725 236 456 -1472
2021-06-16 23:33:55 GMT 41.675079 -71.160255 31,850 236 457 -1472
2021-06-16 23:33:52 GMT 41.677002 -71.156509 31,900 236 458 -1472
2021-06-16 23:33:50 GMT 41.680454 -71.149757 31,975 236 459 -1472
2021-06-16 23:33:46 GMT 41.684132 -71.142479 32,075 236 459 -1472
2021-06-16 23:33:44 GMT 41.687061 -71.136604 32,125 236 459 -1472
2021-06-16 23:33:41 GMT 41.690643 -71.129547 32,200 236 460 -1472
2021-06-16 23:33:38 GMT 41.693527 -71.123863 32,250 236 460 -1472
2021-06-16 23:33:35 GMT 41.698517 -71.113991 32,300 236 460 -1472
2021-06-16 23:33:32 GMT 41.702087 -71.106949 32,450 236 461 -1472
2021-06-16 23:33:29 GMT 41.704754 -71.101730 32,475 236 462 -1408
2021-06-16 23:33:25 GMT 41.709270 -71.092789 32,550 236 462 -1408
2021-06-16 23:33:22 GMT 41.713577 -71.084290 32,650 236 462 -1408
2021-06-16 23:33:19 GMT 41.717415 -71.076691 32,725 237 463 -1408
2021-06-16 23:33:14 GMT 41.724014 -71.063690 32,850 237 463 -1408
2021-06-16 23:33:11 GMT 41.725842 -71.060081 32,875 237 463 -1344
2021-06-16 23:33:08 GMT 41.731476 -71.048965 33,075 237 463 -1280
2021-06-16 23:33:05 GMT 41.734222 -71.043472 33,050 237 463 -1344
2021-06-16 23:33:02 GMT 41.737572 -71.036835 33,100 237 463 -1280
2021-06-16 23:33:00 GMT 41.739990 -71.032104 33,150 237 463 -1280
2021-06-16 23:32:57 GMT 41.742142 -71.027863 33,175 237 463 -1216
2021-06-16 23:32:54 GMT 41.746418 -71.019333 33,300 237 463 -1088
2021-06-16 23:32:51 GMT 41.750374 -71.011475 33,350 237 463 -1024
2021-06-16 23:32:48 GMT 41.754330 -71.003677 33,425 237 463 -960
2021-06-16 23:32:45 GMT 41.757824 -70.996780 33,425 237 463 -960
2021-06-16 23:32:43 GMT 41.759125 -70.994148 33,425 237 463 -896
2021-06-16 23:32:40 GMT 41.764153 -70.984200 33,500 236 464 -768
2021-06-16 23:32:37 GMT 41.767273 -70.978050 33,525 236 464 -768
2021-06-16 23:32:34 GMT 41.771835 -70.968994 33,575 237 466 -384
2021-06-16 23:32:31 GMT 41.775467 -70.961845 33,600 237 466 -384
2021-06-16 23:32:26 GMT 41.779888 -70.953026 33,625 237 467 -448
2021-06-16 23:32:23 GMT 41.784126 -70.944664 33,650 237 467 -512
2021-06-16 23:32:20 GMT 41.787277 -70.938408 33,675 237 467 -768
2021-06-16 23:32:16 GMT 41.791618 -70.929779 33,750 237 467 -1216
2021-06-16 23:32:13 GMT 41.797253 -70.918472 33,825 237 466 -1408
2021-06-16 23:32:10 GMT 41.799683 -70.913689 33,950 237 463 -1984
2021-06-16 23:32:07 GMT 41.808060 -70.897026 34,025 237 463 -2048
2021-06-16 23:32:04 GMT 41.808060 -70.897026 34,125 237 462 -2112
2021-06-16 23:32:00 GMT 41.811264 -70.890625 34,200 237 458 -1600
2021-06-16 23:31:58 GMT 41.814941 -70.883278 34,300 237 459 -1792
2021-06-16 23:31:54 GMT 41.818851 -70.875488 34,475 237 458 -1600
2021-06-16 23:31:50 GMT 41.823807 -70.865562 34,500 237 457 -1472
2021-06-16 23:31:47 GMT 41.826645 -70.859947 34,600 237 458 -1344
2021-06-16 23:31:44 GMT 41.831142 -70.851021 34,675 237 458 -1216
2021-06-16 23:31:41 GMT 41.840591 -70.832245 34,750 237 458 -1216
2021-06-16 23:31:36 GMT 41.840591 -70.832245 34,825 237 456 -1600
2021-06-16 23:31:33 GMT 41.844360 -70.824738 34,950 237 454 -1920
2021-06-16 23:31:30 GMT 41.846832 -70.819855 35,000 237 453 -2176
2021-06-16 23:31:25 GMT 41.853722 -70.806114 35,250 236 448 -2688
2021-06-16 23:31:20 GMT 41.858963 -70.795837 35,425 236 444 -2624
2021-06-16 23:31:16 GMT 41.862442 -70.789032 35,575 236 440 -2752
2021-06-16 23:31:13 GMT 41.867111 -70.779732 35,750 237 438 -2112
2021-06-16 23:31:10 GMT 41.870758 -70.772522 35,850 237 438 -1664
2021-06-16 23:31:07 GMT 41.874390 -70.765312 35,925 237 439 -896
2021-06-16 23:31:02 GMT 41.878952 -70.756294 35,950 237 439 -512
2021-06-16 23:30:59 GMT 41.882767 -70.748642 36,000 237 440 -320
2021-06-16 23:30:56 GMT 41.886566 -70.741158 35,975 236 440 -256
2021-06-16 23:30:53 GMT 41.888729 -70.736877 36,000 236 441 -64
2021-06-16 23:30:50 GMT 41.892609 -70.729172 36,000 236 441 -64
2021-06-16 23:30:47 GMT 41.896503 -70.721550 36,000 236 441 0
2021-06-16 23:30:43 GMT 41.901077 -70.712502 36,000 236 441 0
2021-06-16 23:30:40 GMT 41.904510 -70.705711 36,000 236 441 0
2021-06-16 23:30:37 GMT 41.907814 -70.699127 36,000 236 441 0
2021-06-16 23:30:34 GMT 41.911972 -70.691032 36,000 236 441 0
2021-06-16 23:30:31 GMT 41.920105 -70.674988 36,000 236 441 0
2021-06-16 23:30:27 GMT 41.920105 -70.674988 36,000 236 441 0
2021-06-16 23:30:23 GMT 41.923595 -70.668282 36,000 236 441 0
2021-06-16 23:30:20 GMT 41.928177 -70.659256 36,000 236 441 0
2021-06-16 23:30:17 GMT 41.930019 -70.655632 36,000 236 441 0
2021-06-16 23:30:14 GMT 41.933945 -70.647957 36,000 236 441 0
2021-06-16 23:30:10 GMT 41.938202 -70.639595 36,000 236 441 0
2021-06-16 23:30:08 GMT 41.941772 -70.632599 36,000 236 441 0
2021-06-16 23:30:05 GMT 41.944778 -70.626762 36,000 236 441 0
2021-06-16 23:30:01 GMT 41.949600 -70.617249 36,000 236 441 0
2021-06-16 23:29:58 GMT 41.953388 -70.609833 36,000 236 441 0
2021-06-16 23:29:54 GMT 41.957748 -70.601204 36,000 236 442 0
2021-06-16 23:29:50 GMT 41.962189 -70.592400 36,000 236 441 0
2021-06-16 23:29:47 GMT 41.965401 -70.586075 36,000 237 441 0
2021-06-16 23:29:44 GMT 41.967911 -70.581039 36,000 237 441 0
2021-06-16 23:29:41 GMT 41.972122 -70.572617 36,000 237 442 0
2021-06-16 23:29:38 GMT 41.975510 -70.565811 36,000 237 441 0
2021-06-16 23:29:35 GMT 41.980247 -70.556244 36,000 237 441 -64
2021-06-16 23:29:32 GMT 41.983200 -70.550270 36,000 237 441 -64
2021-06-16 23:29:27 GMT 41.988190 -70.539970 36,000 238 441 0
2021-06-16 23:29:23 GMT 41.992767 -70.530540 36,000 238 441 0
2021-06-16 23:29:19 GMT 41.996964 -70.521812 36,000 238 441 0
2021-06-16 23:29:16 GMT 41.999943 -70.515617 36,000 238 441 0
2021-06-16 23:29:13 GMT 42.003708 -70.507820 36,000 238 441 0
2021-06-16 23:29:09 GMT 42.008377 -70.497833 36,000 241 441 64
2021-06-16 23:29:05 GMT 42.011253 -70.491219 36,000 246 442 0
2021-06-16 23:29:01 GMT 42.015656 -70.479477 36,000 248 443 64
2021-06-16 23:28:58 GMT 42.018082 -70.472176 36,000 251 444 0
2021-06-16 23:28:54 GMT 42.021355 -70.460304 36,000 254 445 0
2021-06-16 23:28:50 GMT 42.023125 -70.452705 36,000 257 447 0
2021-06-16 23:28:47 GMT 42.024799 -70.444397 36,000 262 449 0
2021-06-16 23:28:43 GMT 42.026413 -70.434097 36,000 264 451 0
2021-06-16 23:28:40 GMT 42.028473 -70.413628 36,000 265 451 0
2021-06-16 23:28:37 GMT 42.028473 -70.413628 36,000 266 452 0
2021-06-16 23:28:33 GMT 42.028851 -70.405502 36,000 272 456 0
2021-06-16 23:28:30 GMT 42.028896 -70.395027 36,000 274 457 0
2021-06-16 23:28:27 GMT 42.028709 -70.388000 36,000 276 459 0
2021-06-16 23:28:24 GMT 42.028244 -70.379478 36,000 279 461 0
2021-06-16 23:28:21 GMT 42.027313 -70.369858 36,000 284 466 0
2021-06-16 23:28:17 GMT 42.025543 -70.357719 36,000 285 466 0
2021-06-16 23:28:14 GMT 42.023941 -70.349640 36,000 288 468 0
2021-06-16 23:28:11 GMT 42.022053 -70.341240 36,000 289 470 0
2021-06-16 23:28:08 GMT 42.019913 -70.332687 36,000 289 469 0
2021-06-16 23:28:04 GMT 42.017632 -70.323616 36,000 289 469 64
2021-06-16 23:27:59 GMT 42.013916 -70.309006 36,000 289 469 0
2021-06-16 23:27:56 GMT 42.011536 -70.299576 36,000 289 469 0
2021-06-16 23:27:51 GMT 42.006363 -70.279167 36,000 289 469 0
2021-06-16 23:27:47 GMT 42.006363 -70.279167 36,000 289 469 0
2021-06-16 23:27:44 GMT 42.003159 -70.266495 36,000 289 469 0
2021-06-16 23:27:40 GMT 42.000221 -70.254951 36,000 289 469 0
2021-06-16 23:27:37 GMT 41.997986 -70.246147 36,000 289 468 0
2021-06-16 23:27:34 GMT 41.996777 -70.241409 36,000 289 468 0
2021-06-16 23:27:31 GMT 41.991886 -70.222183 36,000 289 468 0
2021-06-16 23:27:27 GMT 41.991886 -70.222183 36,000 289 468 0
2021-06-16 23:27:25 GMT 41.989655 -70.213371 36,000 289 468 0
2021-06-16 23:27:20 GMT 41.986954 -70.202637 36,000 289 468 0
2021-06-16 23:27:17 GMT 41.984756 -70.194084 36,000 289 468 0
2021-06-16 23:27:15 GMT 41.980865 -70.178726 36,000 289 468 0
2021-06-16 23:27:11 GMT 41.980865 -70.178726 36,000 289 468 0
2021-06-16 23:27:07 GMT 41.977890 -70.166931 36,000 289 468 0
2021-06-16 23:27:04 GMT 41.975407 -70.157288 36,000 289 467 0
2021-06-16 23:27:01 GMT 41.973175 -70.148514 36,000 289 467 0
2021-06-16 23:26:57 GMT 41.970612 -70.138405 36,000 289 467 0
2021-06-16 23:26:54 GMT 41.968918 -70.131851 36,000 289 467 0
2021-06-16 23:26:51 GMT 41.966843 -70.123627 36,000 289 467 0
2021-06-16 23:26:46 GMT 41.962933 -70.108292 36,000 289 466 0
2021-06-16 23:26:43 GMT 41.960861 -70.100075 36,000 289 466 0
2021-06-16 23:26:40 GMT 41.958694 -70.091621 36,000 289 466 0
2021-06-16 23:26:35 GMT 41.954773 -70.076294 36,000 289 466 0
2021-06-16 23:26:32 GMT 41.952969 -70.069206 36,000 289 466 0
2021-06-16 23:26:29 GMT 41.951248 -70.062370 36,000 289 466 0
2021-06-16 23:26:25 GMT 41.948456 -70.051453 36,000 289 466 0
2021-06-16 23:26:22 GMT 41.946358 -70.043274 36,000 289 466 0
2021-06-16 23:26:19 GMT 41.943558 -70.032349 36,000 289 466 0
2021-06-16 23:26:16 GMT 41.942276 -70.027420 36,000 289 467 0
2021-06-16 23:26:14 GMT 41.940811 -70.021675 36,000 289 467 64
2021-06-16 23:26:11 GMT 41.938660 -70.013184 36,000 289 467 0
2021-06-16 23:26:04 GMT 41.933899 -69.994583 36,000 290 466 0
2021-06-16 23:26:01 GMT 41.930996 -69.983421 36,000 289 466 0
2021-06-16 23:25:54 GMT 41.926388 -69.965347 36,000 290 466 0
2021-06-16 23:25:50 GMT 41.923874 -69.955566 36,000 290 466 0
2021-06-16 23:25:45 GMT 41.918613 -69.935066 36,000 290 465 0
2021-06-16 23:25:42 GMT 41.918613 -69.935066 36,000 290 465 0
2021-06-16 23:25:38 GMT 41.915726 -69.923920 36,000 290 465 0
2021-06-16 23:25:35 GMT 41.913307 -69.914627 36,000 290 466 0
2021-06-16 23:25:32 GMT 41.911911 -69.909203 36,000 290 466 0
2021-06-16 23:25:29 GMT 41.908607 -69.896362 36,000 290 466 0
2021-06-16 23:25:23 GMT 41.905441 -69.884094 36,000 290 466 0
2021-06-16 23:25:19 GMT 41.900970 -69.866661 36,000 290 466 0
2021-06-16 23:25:15 GMT 41.898922 -69.858742 36,000 290 466 0
2021-06-16 23:25:12 GMT 41.897156 -69.851906 36,000 290 466 0
2021-06-16 23:25:08 GMT 41.894405 -69.841240 36,000 290 466 0
2021-06-16 23:25:05 GMT 41.890358 -69.825394 36,000 290 466 0
2021-06-16 23:25:02 GMT 41.890358 -69.825394 36,000 290 466 0
2021-06-16 23:24:57 GMT 41.886658 -69.811249 36,000 290 466 0
2021-06-16 23:24:54 GMT 41.884258 -69.801956 36,000 290 466 0
2021-06-16 23:24:50 GMT 41.881603 -69.791862 36,000 290 466 0
2021-06-16 23:24:47 GMT 41.878719 -69.780685 36,000 290 466 0
2021-06-16 23:24:44 GMT 41.876999 -69.774170 36,000 290 466 0
2021-06-16 23:24:40 GMT 41.875122 -69.766808 36,000 290 466 0
2021-06-16 23:24:34 GMT 41.870853 -69.750412 36,000 290 467 0
2021-06-16 23:24:32 GMT 41.868801 -69.742485 36,000 290 467 0
2021-06-16 23:24:26 GMT 41.864426 -69.725563 36,000 289 467 0
2021-06-16 23:24:23 GMT 41.863358 -69.721481 36,000 289 467 64
2021-06-16 23:24:21 GMT 41.861401 -69.713806 36,000 290 467 0
2021-06-16 23:24:14 GMT 41.856400 -69.694397 36,000 290 467 0
2021-06-16 23:24:10 GMT 41.854000 -69.685127 36,000 290 466 0
2021-06-16 23:24:06 GMT 41.850788 -69.672867 36,000 290 466 0
2021-06-16 23:24:03 GMT 41.848434 -69.663811 36,000 290 467 0
2021-06-16 23:24:00 GMT 41.846100 -69.654816 36,000 290 467 0
2021-06-16 23:23:54 GMT 41.841988 -69.639015 36,000 290 467 0
2021-06-16 23:23:51 GMT 41.839756 -69.630585 36,000 290 466 0
2021-06-16 23:23:48 GMT 41.838226 -69.624603 36,000 290 466 0
2021-06-16 23:23:41 GMT 41.831223 -69.597893 36,000 290 466 0
2021-06-16 23:23:33 GMT 41.827465 -69.583504 36,000 290 466 0
2021-06-16 23:23:29 GMT 41.823898 -69.569923 36,000 290 466 0
2021-06-16 23:23:23 GMT 41.820343 -69.556358 36,000 290 464 0
2021-06-16 23:23:18 GMT 41.816666 -69.542244 36,000 290 464 0
2021-06-16 23:23:13 GMT 41.813171 -69.528893 36,000 290 464 0
2021-06-16 23:23:09 GMT 41.807373 -69.506691 36,000 290 464 0
2021-06-16 23:23:06 GMT 41.807373 -69.506691 36,000 290 464 0
2021-06-16 23:23:03 GMT 41.805817 -69.500725 36,000 290 464 0
2021-06-16 23:22:58 GMT 41.802654 -69.488464 36,000 290 464 0
2021-06-16 23:22:53 GMT 41.798927 -69.474091 36,000 290 464 0
2021-06-16 23:22:47 GMT 41.794415 -69.456779 36,000 290 464 0
2021-06-16 23:22:43 GMT 41.791718 -69.446449 36,000 290 465 0
2021-06-16 23:22:39 GMT 41.787277 -69.429665 36,000 290 464 0
2021-06-16 23:22:32 GMT 41.784451 -69.418839 36,000 290 464 0
2021-06-16 23:22:28 GMT 41.781097 -69.406128 36,000 290 464 0
2021-06-16 23:22:24 GMT 41.778679 -69.396927 36,000 290 464 0
2021-06-16 23:22:21 GMT 41.776585 -69.389076 36,000 290 464 0
2021-06-16 23:22:18 GMT 41.774002 -69.379349 36,000 290 464 0
2021-06-16 23:22:12 GMT 41.769470 -69.362305 36,000 290 463 0
2021-06-16 23:22:08 GMT 41.766251 -69.350174 36,000 290 464 0
2021-06-16 23:22:00 GMT 41.761082 -69.330696 36,000 290 464 0
2021-06-16 23:21:57 GMT 41.758987 -69.322899 36,000 290 464 0
2021-06-16 23:21:52 GMT 41.755005 -69.307747 36,000 290 464 0
2021-06-16 23:21:50 GMT 41.753727 -69.302910 36,000 290 464 0
2021-06-16 23:21:46 GMT 41.749603 -69.287216 36,000 290 463 0
2021-06-16 23:21:42 GMT 41.748093 -69.281532 36,000 290 463 0
2021-06-16 23:21:36 GMT 41.743698 -69.264740 36,000 290 464 64
2021-06-16 23:21:30 GMT 41.740082 -69.250946 36,000 290 464 0
2021-06-16 23:21:26 GMT 41.737152 -69.239838 36,000 290 463 0
2021-06-16 23:21:20 GMT 41.733105 -69.224472 36,000 290 463 0
2021-06-16 23:21:16 GMT 41.729706 -69.211502 36,000 290 462 0
2021-06-16 23:21:10 GMT 41.725796 -69.196747 36,000 290 461 0
2021-06-16 23:21:05 GMT 41.722229 -69.183281 36,000 290 461 -64
2021-06-16 23:21:00 GMT 41.718765 -69.170174 36,000 290 460 0
2021-06-16 23:20:55 GMT 41.715042 -69.156189 36,000 290 460 0
2021-06-16 23:20:51 GMT 41.711876 -69.144440 36,000 290 460 0
2021-06-16 23:20:44 GMT 41.707535 -69.128098 36,000 290 460 0
2021-06-16 23:20:39 GMT 41.703827 -69.114182 36,000 290 461 0
2021-06-16 23:20:34 GMT 41.700165 -69.100510 36,000 290 461 0
2021-06-16 23:20:30 GMT 41.696934 -69.088417 36,000 290 461 0
2021-06-16 23:20:24 GMT 41.692795 -69.072853 36,000 290 461 0
2021-06-16 23:20:14 GMT 41.685619 -69.046066 36,000 290 461 0
2021-06-16 23:20:09 GMT 41.681618 -69.031059 36,000 290 461 0
2021-06-16 23:20:06 GMT 41.679428 -69.022758 36,000 290 461 0
2021-06-16 23:20:03 GMT 41.677826 -69.016800 36,000 290 461 0
2021-06-16 23:19:54 GMT 41.670910 -68.990822 36,000 290 461 0
2021-06-16 23:19:43 GMT 41.663452 -68.962990 36,000 290 461 0
2021-06-16 23:19:39 GMT 41.659561 -68.948509 36,000 290 461 0
2021-06-16 23:19:32 GMT 41.655827 -68.934608 36,000 290 461 0
2021-06-16 23:19:22 GMT 41.647888 -68.905190 36,000 290 461 0
2021-06-16 23:19:17 GMT 41.645004 -68.894516 36,000 290 461 0
2021-06-16 23:19:14 GMT 41.642002 -68.883316 36,000 290 461 0
2021-06-16 23:19:11 GMT 41.640564 -68.877975 36,000 290 461 0
2021-06-16 23:19:03 GMT 41.634521 -68.855499 36,000 290 461 0
2021-06-16 23:18:58 GMT 41.629898 -68.838394 36,000 290 460 0
2021-06-16 23:18:51 GMT 41.626171 -68.824493 36,000 290 459 0
2021-06-16 23:18:41 GMT 41.618538 -68.796196 36,000 290 459 0
2021-06-16 23:18:35 GMT 41.614258 -68.780228 36,000 290 459 -64
2021-06-16 23:18:30 GMT 41.610718 -68.767136 36,000 290 459 -64
2021-06-16 23:18:22 GMT 41.605225 -68.746635 36,000 290 458 -64
2021-06-16 23:18:19 GMT 41.603363 -68.739731 36,000 290 458 0
2021-06-16 23:18:16 GMT 41.600555 -68.729347 36,000 290 458 0
2021-06-16 23:18:10 GMT 41.596481 -68.714180 36,000 290 458 0
2021-06-16 23:18:05 GMT 41.593029 -68.701408 36,000 290 458 0
2021-06-16 23:18:00 GMT 41.588978 -68.686523 36,000 290 458 0
2021-06-16 23:17:55 GMT 41.586227 -68.676414 36,000 290 458 0
2021-06-16 23:17:49 GMT 41.581467 -68.658936 36,000 290 457 0
2021-06-16 23:17:42 GMT 41.575569 -68.637215 36,000 290 457 0
2021-06-16 23:17:38 GMT 41.573429 -68.629227 36,000 290 457 0
2021-06-16 23:17:34 GMT 41.570709 -68.619171 36,000 290 457 0
2021-06-16 23:17:29 GMT 41.566132 -68.602257 36,000 290 456 0
2021-06-16 23:17:24 GMT 41.563702 -68.593269 36,000 290 456 0
2021-06-16 23:17:19 GMT 41.559494 -68.577721 36,000 290 456 0
2021-06-16 23:17:15 GMT 41.556564 -68.566925 36,000 290 455 0
2021-06-16 23:17:07 GMT 41.551575 -68.548447 36,000 290 455 0
2021-06-16 23:17:04 GMT 41.549332 -68.540268 36,000 290 455 0
2021-06-16 23:16:58 GMT 41.544243 -68.521599 36,000 290 455 0
2021-06-16 23:16:53 GMT 41.541367 -68.511055 36,000 290 454 0
2021-06-16 23:16:48 GMT 41.537167 -68.495537 36,000 290 454 -64
2021-06-16 23:16:43 GMT 41.534512 -68.485832 36,000 291 454 0
2021-06-16 23:16:40 GMT 41.531532 -68.475037 36,000 291 454 0
2021-06-16 23:16:34 GMT 41.526718 -68.457436 36,000 291 454 0
2021-06-16 23:16:26 GMT 41.521568 -68.438568 36,000 291 454 64
2021-06-16 23:16:22 GMT 41.519382 -68.430641 36,000 291 454 64
2021-06-16 23:16:17 GMT 41.515053 -68.414864 36,000 291 454 -64
2021-06-16 23:16:10 GMT 41.510769 -68.399155 36,000 290 454 -64
2021-06-16 23:16:06 GMT 41.507584 -68.387581 36,000 291 454 0
2021-06-16 23:16:03 GMT 41.504425 -68.376038 36,000 291 454 0
2021-06-16 23:15:56 GMT 41.499458 -68.357895 36,000 291 454 0
2021-06-16 23:15:51 GMT 41.496918 -68.348694 36,025 291 454 0
2021-06-16 23:15:45 GMT 41.491592 -68.329277 36,000 291 454 0
2021-06-16 23:15:42 GMT 41.490189 -68.324287 36,000 291 454 0
2021-06-16 23:15:36 GMT 41.486095 -68.309349 36,000 291 453 0
2021-06-16 23:15:33 GMT 41.483723 -68.300720 36,000 291 453 0
2021-06-16 23:15:23 GMT 41.475857 -68.272110 36,000 291 453 64
2021-06-16 23:15:19 GMT 41.472839 -68.261177 36,000 291 453 64
2021-06-16 23:15:13 GMT 41.469757 -68.249878 35,975 291 453 64
2021-06-16 23:15:03 GMT 41.462448 -68.223503 36,000 291 452 64
2021-06-16 23:14:53 GMT 41.454163 -68.193413 36,000 291 452 0
2021-06-16 23:14:46 GMT 41.449768 -68.177528 36,000 291 452 64
2021-06-16 23:14:43 GMT 41.447598 -68.169716 36,000 291 452 64
2021-06-16 23:14:39 GMT 41.444759 -68.159561 35,975 291 453 128
2021-06-16 23:14:32 GMT 41.439964 -68.142319 36,000 291 454 0
2021-06-16 23:14:22 GMT 41.432007 -68.113426 36,025 291 456 -576
2021-06-16 23:14:12 GMT 41.425049 -68.088394 36,225 291 458 -1280
2021-06-16 23:14:00 GMT 41.416874 -68.058830 36,400 291 457 -1344
2021-06-16 23:13:51 GMT 41.408821 -68.029839 36,650 291 458 -1088
2021-06-16 23:13:39 GMT 41.400650 -68.000504 36,825 291 459 -960
2021-06-16 23:13:30 GMT 41.394333 -67.977783 36,925 291 460 -576
2021-06-16 23:13:21 GMT 41.387466 -67.953125 36,975 291 460 -128
2021-06-16 23:13:10 GMT 41.379730 -67.925293 37,000 291 460 0
2021-06-16 23:13:01 GMT 41.372372 -67.898750 37,000 291 460 0
2021-06-16 23:12:50 GMT 41.364990 -67.872253 37,000 291 459 64
2021-06-16 23:12:40 GMT 41.357193 -67.844444 37,000 291 461 -64
2021-06-16 23:12:30 GMT 41.349609 -67.817444 37,000 291 460 0
2021-06-16 23:12:19 GMT 41.341827 -67.789734 37,000 291 460 64
2021-06-16 23:12:06 GMT 41.332443 -67.756409 37,000 291 460 0
2021-06-16 23:11:57 GMT 41.324654 -67.728653 37,000 291 460 0
2021-06-16 23:11:48 GMT 41.318802 -67.708069 37,000 291 459 0
2021-06-16 23:11:38 GMT 41.311249 -67.681152 37,000 291 459 0
2021-06-16 23:11:30 GMT 41.305660 -67.661423 37,000 291 459 0
2021-06-16 23:11:26 GMT 41.302002 -67.648499 37,000 291 458 0
2021-06-16 23:11:16 GMT 41.294769 -67.622658 37,000 291 458 0
2021-06-16 23:11:04 GMT 41.286621 -67.593750 37,000 291 458 0
2021-06-16 23:10:56 GMT 41.279175 -67.567413 37,000 291 458 0
2021-06-16 23:10:46 GMT 41.272751 -67.544571 37,000 291 457 0
2021-06-16 23:10:34 GMT 41.264091 -67.514107 37,000 291 457 0
2021-06-16 23:10:25 GMT 41.256687 -67.487892 37,000 291 456 0
2021-06-16 23:10:15 GMT 41.249565 -67.462799 37,000 291 456 0
2021-06-16 23:10:11 GMT 41.246494 -67.452057 37,000 291 456 0
2021-06-16 23:10:02 GMT 41.240479 -67.430908 37,000 291 455 0
2021-06-16 23:09:53 GMT 41.232388 -67.402435 37,000 291 455 0
2021-06-16 23:09:45 GMT 41.226753 -67.382645 37,000 291 454 0
2021-06-16 23:09:39 GMT 41.223267 -67.370361 37,000 291 454 0
2021-06-16 23:09:34 GMT 41.219147 -67.356079 37,000 291 453 0
2021-06-16 23:09:31 GMT 41.217133 -67.349060 37,000 291 453 0
2021-06-16 23:09:23 GMT 41.211533 -67.329651 37,000 291 453 0
2021-06-16 23:09:20 GMT 41.208088 -67.317665 37,000 291 453 0
2021-06-16 23:09:12 GMT 41.202988 -67.299805 37,000 291 452 0
2021-06-16 23:09:01 GMT 41.194702 -67.271057 37,000 291 452 0
2021-06-16 23:08:52 GMT 41.187370 -67.245689 37,000 291 452 0
2021-06-16 23:08:40 GMT 41.179092 -67.216980 37,000 292 452 0
2021-06-16 23:08:30 GMT 41.171814 -67.191895 37,000 292 452 0
2021-06-16 23:08:21 GMT 41.164143 -67.165543 37,000 292 452 0
2021-06-16 23:08:12 GMT 41.156937 -67.140747 37,000 291 451 0
2021-06-16 23:08:01 GMT 41.149612 -67.115173 37,000 291 450 0
2021-06-16 23:07:56 GMT 41.145893 -67.101997 37,000 291 450 0
2021-06-16 23:07:50 GMT 41.141281 -67.085754 37,000 291 451 0
2021-06-16 23:07:41 GMT 41.134552 -67.062317 37,000 291 450 0
2021-06-16 23:07:30 GMT 41.127548 -67.036194 37,000 286 441 0
2021-06-16 23:07:26 GMT 41.125317 -67.026093 37,000 286 441 0
2021-06-16 23:07:19 GMT 41.121597 -67.004944 37,000 280 432 0
2021-06-16 23:07:07 GMT 41.118427 -66.976654 37,000 275 425 0
2021-06-16 23:06:57 GMT 41.117451 -66.951118 37,000 270 418 0
2021-06-16 23:06:48 GMT 41.117638 -66.928337 37,000 270 418 0
2021-06-16 23:06:45 GMT 41.117798 -66.917664 37,000 270 418 0
2021-06-16 23:06:37 GMT 41.118008 -66.898247 37,000 270 417 0
2021-06-16 23:06:28 GMT 41.118256 -66.876831 37,000 270 417 0
2021-06-16 23:06:23 GMT 41.118439 -66.864563 37,000 270 417 0
2021-06-16 23:06:17 GMT 41.118622 -66.848755 37,000 270 417 0
2021-06-16 23:06:08 GMT 41.118938 -66.823219 37,000 270 418 0
2021-06-16 23:05:59 GMT 41.119217 -66.802307 37,000 270 418 0
2021-06-16 23:05:55 GMT 41.119312 -66.792564 37,000 270 418 0
2021-06-16 23:05:47 GMT 41.119545 -66.771408 37,000 270 418 0
2021-06-16 23:05:36 GMT 41.119869 -66.742508 37,000 270 418 0
2021-06-16 23:05:25 GMT 41.120224 -66.715881 37,000 270 419 0
2021-06-16 23:05:15 GMT 41.120522 -66.690819 37,000 270 419 0
2021-06-16 23:05:06 GMT 41.120804 -66.664978 37,000 270 418 0
2021-06-16 23:04:55 GMT 41.121082 -66.638885 37,000 270 418 0
2021-06-16 23:04:44 GMT 41.121368 -66.611511 37,000 270 418 0
2021-06-16 23:04:35 GMT 41.121643 -66.585449 37,000 270 418 0
2021-06-16 23:04:23 GMT 41.121964 -66.554260 37,000 270 418 0
2021-06-16 23:04:12 GMT 41.122246 -66.529205 37,000 270 418 0
2021-06-16 23:04:03 GMT 41.122478 -66.504364 37,000 270 418 0
2021-06-16 23:03:52 GMT 41.122696 -66.478271 37,000 270 418 0
2021-06-16 23:03:43 GMT 41.122898 -66.453743 37,000 270 418 0
2021-06-16 23:03:32 GMT 41.123108 -66.427368 37,000 270 418 0
2021-06-16 23:03:23 GMT 41.123363 -66.400307 37,000 270 418 0
2021-06-16 23:03:11 GMT 41.123550 -66.372902 37,000 270 418 0
2021-06-16 23:03:01 GMT 41.123749 -66.348389 37,000 270 418 0
2021-06-16 23:02:52 GMT 41.123966 -66.321594 37,000 270 418 0
2021-06-16 23:02:41 GMT 41.124199 -66.295815 37,000 270 417 0
2021-06-16 23:02:30 GMT 41.124390 -66.267517 37,000 270 417 0
2021-06-16 23:02:21 GMT 41.124573 -66.242493 37,000 270 417 0
2021-06-16 23:02:10 GMT 41.124756 -66.216797 37,000 270 416 0
2021-06-16 23:01:59 GMT 41.124939 -66.190308 37,000 270 416 0
2021-06-16 23:01:50 GMT 41.125130 -66.164413 37,000 270 416 0
2021-06-16 23:01:39 GMT 41.125305 -66.137451 37,000 270 415 0
2021-06-16 23:01:28 GMT 41.125458 -66.111603 37,000 270 415 0
2021-06-16 23:01:19 GMT 41.125580 -66.084900 37,000 270 415 0
2021-06-16 23:01:08 GMT 41.125717 -66.059814 37,000 270 415 0
2021-06-16 23:00:58 GMT 41.125877 -66.033134 37,000 270 415 0
2021-06-16 23:00:48 GMT 41.126038 -66.007324 37,000 270 414 0
2021-06-16 23:00:37 GMT 41.126175 -65.981201 37,000 270 414 0
2021-06-16 23:00:26 GMT 41.126312 -65.954407 37,000 270 413 0
2021-06-16 23:00:16 GMT 41.126450 -65.927429 37,000 270 413 0
2021-06-16 23:00:06 GMT 41.126575 -65.902176 37,000 270 412 0
2021-06-16 22:59:54 GMT 41.126678 -65.873718 37,000 270 412 0
2021-06-16 22:59:45 GMT 41.126762 -65.849052 37,000 270 412 0
2021-06-16 22:59:35 GMT 41.126816 -65.824402 37,000 270 411 0
2021-06-16 22:59:25 GMT 41.126945 -65.799240 37,000 270 411 0
2021-06-16 22:59:14 GMT 41.127041 -65.772339 37,000 270 411 0
2021-06-16 22:59:05 GMT 41.127136 -65.747742 37,000 270 411 0
2021-06-16 22:58:54 GMT 41.127228 -65.720901 37,000 270 411 0
2021-06-16 22:58:43 GMT 41.127274 -65.695000 37,000 270 411 0
2021-06-16 22:58:27 GMT 41.127411 -65.651794 37,000 270 411 0
2021-06-16 22:58:23 GMT 41.127411 -65.643494 37,000 270 411 0
2021-06-16 22:58:12 GMT 41.127411 -65.616096 37,000 270 412 0
2021-06-16 22:58:03 GMT 41.127411 -65.590691 37,000 270 412 0
2021-06-16 22:57:52 GMT 41.127411 -65.565720 37,000 270 412 0
2021-06-16 22:57:41 GMT 41.127411 -65.539001 37,000 270 413 0
2021-06-16 22:57:31 GMT 41.127457 -65.510498 37,000 270 413 0
2021-06-16 22:57:21 GMT 41.127460 -65.487251 37,000 270 413 0
2021-06-16 22:57:11 GMT 41.127502 -65.461487 37,000 270 414 0
2021-06-16 22:56:51 GMT 41.116669 -65.383331 37,000 270 420
2021-06-16 22:55:50 GMT 41.116669 -65.233330 37,000 270 420
We lost coverage of the aircraft here for a total of 323 minutes
2021-06-16 17:32:57 GMT 48.154518 -9.764310 34,000 282 476 0
2021-06-16 17:32:46 GMT 48.149963 -9.729424 34,000 282 477 0
2021-06-16 17:32:17 GMT 48.137787 -9.636589 34,000 282 477 0
2021-06-16 17:32:11 GMT 48.135155 -9.616910 34,000 282 477 0
2021-06-16 17:31:54 GMT 48.127937 -9.562261 34,000 282 478 0
2021-06-16 17:31:47 GMT 48.124741 -9.538330 34,000 282 479 0
2021-06-16 17:30:08 GMT 48.080734 -9.216191 34,000 283 484 0
2021-06-16 17:29:57 GMT 48.075302 -9.179695 34,000 283 484 0
2021-06-16 17:29:50 GMT 48.071842 -9.157175 34,000 284 485 0
2021-06-16 17:29:39 GMT 48.066422 -9.123322 34,000 285 486 0
2021-06-16 17:29:28 GMT 48.060471 -9.088577 34,000 285 487 0
2021-06-16 17:29:19 GMT 48.055084 -9.059073 34,000 287 489 0
2021-06-16 17:29:09 GMT 48.048843 -9.027328 34,000 288 489 0
2021-06-16 17:28:59 GMT 48.041771 -8.993859 34,000 289 490 0
2021-06-16 17:28:47 GMT 48.033531 -8.957731 34,000 290 491 -64
2021-06-16 17:28:38 GMT 48.026733 -8.928314 34,000 288 489 0
2021-06-16 17:28:29 GMT 48.020775 -8.897588 34,000 283 486 0
2021-06-16 17:28:19 GMT 48.016071 -8.864488 34,000 282 487 0
2021-06-16 17:28:14 GMT 48.013744 -8.848149 34,000 282 487 0
2021-06-16 17:28:08 GMT 48.010803 -8.827446 34,000 281 486 0
2021-06-16 17:27:58 GMT 48.006866 -8.794899 34,000 279 484 0
2021-06-16 17:27:48 GMT 48.003754 -8.761597 34,000 277 481 0
2021-06-16 17:27:38 GMT 48.001549 -8.727229 34,000 274 480 0
2021-06-16 17:27:28 GMT 48.000412 -8.694305 34,000 272 478 0
2021-06-16 17:27:19 GMT 48.000198 -8.666734 34,000 270 476 0
2021-06-16 17:27:08 GMT 48.000275 -8.632645 34,000 270 476 0
2021-06-16 17:26:58 GMT 48.000385 -8.599196 34,000 270 475 0
2021-06-16 17:26:48 GMT 48.000477 -8.566167 34,000 270 475 0
2021-06-16 17:26:39 GMT 48.000523 -8.533842 34,000 270 474 0
2021-06-16 17:26:28 GMT 48.000595 -8.493736 34,000 270 473 0
2021-06-16 17:26:17 GMT 48.000641 -8.466751 34,000 270 473 0
2021-06-16 17:26:07 GMT 48.000687 -8.432556 34,000 270 472 0
2021-06-16 17:25:59 GMT 48.000687 -8.403648 34,000 270 472 0
2021-06-16 17:25:49 GMT 48.000710 -8.371159 34,000 270 472 0
2021-06-16 17:25:38 GMT 48.000664 -8.337778 34,000 271 472 0
2021-06-16 17:25:28 GMT 48.000664 -8.305594 34,000 271 472 0
2021-06-16 17:25:18 GMT 48.000572 -8.272494 34,000 271 472 0
2021-06-16 17:25:08 GMT 48.000504 -8.239952 34,000 271 473 0
2021-06-16 17:25:02 GMT 48.000458 -8.221138 34,000 271 473 0
2021-06-16 17:24:57 GMT 48.000431 -8.206787 34,000 271 473 0
2021-06-16 17:24:53 GMT 48.000412 -8.193810 34,000 271 473 0
2021-06-16 17:24:48 GMT 48.000385 -8.175237 34,000 271 473 0
2021-06-16 17:24:45 GMT 48.000340 -8.167067 34,000 271 474 0
2021-06-16 17:24:37 GMT 48.000320 -8.139977 34,000 270 474 0
2021-06-16 17:24:35 GMT 48.000340 -8.134813 34,000 270 474 0
2021-06-16 17:24:28 GMT 48.000340 -8.108685 34,000 271 475 0
2021-06-16 17:24:25 GMT 48.000294 -8.099811 34,000 271 475 0
2021-06-16 17:24:16 GMT 48.000229 -8.071381 34,000 270 475 0
2021-06-16 17:24:07 GMT 48.000805 -8.042696 34,000 267 472 0
2021-06-16 17:23:58 GMT 48.002335 -8.010887 34,000 265 471 0
2021-06-16 17:23:47 GMT 48.004990 -7.977722 34,000 262 469 0
2021-06-16 17:23:37 GMT 48.008698 -7.945175 34,000 259 468 0
2021-06-16 17:23:28 GMT 48.013187 -7.914382 34,000 258 467 0
2021-06-16 17:23:17 GMT 48.018082 -7.882347 34,000 258 467 0
2021-06-16 17:23:08 GMT 48.022636 -7.852478 34,000 258 467 0
2021-06-16 17:22:58 GMT 48.027573 -7.820153 34,000 258 467 0
2021-06-16 17:22:47 GMT 48.032368 -7.788743 34,000 258 468 0
2021-06-16 17:22:38 GMT 48.036942 -7.758476 34,000 258 469 0
2021-06-16 17:22:28 GMT 48.041862 -7.726276 34,000 258 469 0
2021-06-16 17:22:18 GMT 48.046600 -7.694756 34,000 258 469 0
2021-06-16 17:22:07 GMT 48.051544 -7.661907 34,000 258 469 0
2021-06-16 17:21:57 GMT 48.056293 -7.630357 34,000 258 469 0
2021-06-16 17:21:48 GMT 48.060974 -7.599449 34,000 258 468 0
2021-06-16 17:21:37 GMT 48.065735 -7.567657 34,000 258 468 0
2021-06-16 17:21:26 GMT 48.070633 -7.535179 34,000 258 468 0
2021-06-16 17:21:17 GMT 48.075150 -7.505000 34,000 258 467 0
2021-06-16 17:21:07 GMT 48.079803 -7.473872 34,000 258 467 0
2021-06-16 17:20:57 GMT 48.084549 -7.441795 34,000 258 467 0
2021-06-16 17:20:47 GMT 48.089485 -7.408518 34,000 258 467 0
2021-06-16 17:20:37 GMT 48.094280 -7.376122 34,000 258 465 0
2021-06-16 17:20:27 GMT 48.098740 -7.346008 34,000 258 465 64
2021-06-16 17:20:17 GMT 48.103500 -7.313667 34,000 258 465 0
2021-06-16 17:20:07 GMT 48.108215 -7.281670 34,000 258 466 0
2021-06-16 17:19:57 GMT 48.112808 -7.250977 34,000 258 465 0
2021-06-16 17:19:46 GMT 48.117325 -7.220284 34,000 258 464 0
2021-06-16 17:19:35 GMT 48.122269 -7.186775 34,000 258 464 0
2021-06-16 17:19:26 GMT 48.126663 -7.156700 34,000 258 464 0
2021-06-16 17:19:16 GMT 48.131428 -7.123789 34,000 258 464 0
2021-06-16 17:19:06 GMT 48.135853 -7.093365 34,000 258 465 0
2021-06-16 17:18:56 GMT 48.140488 -7.061600 34,000 258 466 0
2021-06-16 17:18:45 GMT 48.145348 -7.027940 34,000 258 467 0
2021-06-16 17:18:36 GMT 48.149506 -6.999252 34,000 258 467 0
2021-06-16 17:18:26 GMT 48.154285 -6.966107 34,000 258 467 0
2021-06-16 17:18:16 GMT 48.158936 -6.933884 34,000 258 468 0
2021-06-16 17:18:06 GMT 48.163410 -6.902956 34,000 258 468 0
2021-06-16 17:17:56 GMT 48.167953 -6.871244 34,000 258 469 0
2021-06-16 17:17:46 GMT 48.172535 -6.839567 34,000 258 469 -64
2021-06-16 17:17:36 GMT 48.177189 -6.807548 34,000 258 469 -128
2021-06-16 17:17:26 GMT 48.181778 -6.775184 34,025 258 470 0
2021-06-16 17:17:16 GMT 48.186356 -6.743070 33,975 259 472 384
2021-06-16 17:17:10 GMT 48.189331 -6.722013 33,925 259 473 832
2021-06-16 17:17:06 GMT 48.190876 -6.711129 33,875 259 473 960
2021-06-16 17:16:56 GMT 48.195328 -6.679828 33,650 259 473 1728
2021-06-16 17:16:45 GMT 48.200142 -6.645861 33,300 259 475 2112
2021-06-16 17:16:36 GMT 48.204376 -6.615649 32,950 259 477 2240
2021-06-16 17:16:25 GMT 48.209080 -6.581967 32,575 259 479 2240
2021-06-16 17:16:15 GMT 48.213593 -6.549471 32,200 259 482 2240
2021-06-16 17:16:05 GMT 48.222931 -6.482849 31,175 259 482 1216
2021-06-16 17:15:54 GMT 48.222931 -6.482849 31,500 259 483 1664
2021-06-16 17:15:45 GMT 48.227325 -6.451143 31,275 259 482 1216
2021-06-16 17:15:38 GMT 48.230530 -6.428340 31,125 259 481 1600
2021-06-16 17:15:34 GMT 48.232075 -6.417244 31,025 259 480 1664
2021-06-16 17:15:25 GMT 48.236404 -6.386092 30,775 259 479 1664
2021-06-16 17:15:18 GMT 48.239731 -6.362352 30,575 259 478 1600
2021-06-16 17:15:15 GMT 48.240875 -6.353928 30,500 259 477 1600
2021-06-16 17:15:05 GMT 48.245361 -6.321575 30,250 259 475 1536
2021-06-16 17:15:02 GMT 48.246918 -6.309955 30,150 259 475 1536
2021-06-16 17:14:55 GMT 48.249905 -6.288444 29,975 259 474 1664
2021-06-16 17:14:52 GMT 48.251266 -6.278475 29,875 259 473 1728
2021-06-16 17:14:47 GMT 48.253445 -6.262713 29,750 259 473 1664
2021-06-16 17:14:43 GMT 48.254791 -6.252739 29,650 259 472 1664
2021-06-16 17:14:41 GMT 48.255676 -6.246378 29,600 259 472 1600
2021-06-16 17:14:35 GMT 48.258656 -6.224622 29,425 259 471 1600
2021-06-16 17:14:31 GMT 48.260193 -6.213419 29,325 259 469 1664
2021-06-16 17:14:25 GMT 48.263081 -6.192386 29,150 259 469 1664
2021-06-16 17:14:22 GMT 48.264130 -6.184739 29,075 259 467 1664
2021-06-16 17:14:15 GMT 48.267426 -6.160583 28,875 259 466 1664
2021-06-16 17:14:11 GMT 48.268898 -6.149886 28,775 259 466 1664
2021-06-16 17:14:05 GMT 48.271729 -6.129315 28,600 259 465 1664
2021-06-16 17:14:01 GMT 48.273376 -6.116990 28,475 259 463 1664
2021-06-16 17:13:55 GMT 48.276123 -6.096919 28,300 259 462 1664
2021-06-16 17:13:52 GMT 48.277229 -6.088739 28,225 259 462 1728
2021-06-16 17:13:45 GMT 48.280396 -6.065537 28,025 259 460 1664
2021-06-16 17:13:34 GMT 48.284725 -6.033446 27,725 259 458 1664
2021-06-16 17:13:24 GMT 48.289078 -6.000930 27,450 259 454 1664
2021-06-16 17:13:14 GMT 48.297062 -5.941363 27,100 259 450 1536
2021-06-16 17:13:04 GMT 48.297062 -5.941363 26,950 259 446 1280
2021-06-16 17:12:55 GMT 48.301018 -5.912018 26,775 259 441 960
2021-06-16 17:12:44 GMT 48.305161 -5.881227 26,650 259 435 768
2021-06-16 17:12:35 GMT 48.309036 -5.852473 26,525 259 427 576
2021-06-16 17:12:24 GMT 48.313202 -5.821557 26,450 259 420 704
2021-06-16 17:12:15 GMT 48.316727 -5.795147 26,250 259 414 1664
2021-06-16 17:12:04 GMT 48.320709 -5.765005 25,875 259 413 2112
2021-06-16 17:11:54 GMT 48.324371 -5.737539 25,575 259 411 1920
2021-06-16 17:11:45 GMT 48.327972 -5.710795 25,250 259 408 1984
2021-06-16 17:11:43 GMT 48.328392 -5.707759 25,225 259 408 1984
2021-06-16 17:11:34 GMT 48.331787 -5.681974 24,925 259 406 2048
2021-06-16 17:11:25 GMT 48.335175 -5.656269 24,600 259 404 1984
2021-06-16 17:11:22 GMT 48.336182 -5.648874 24,500 259 403 1984
2021-06-16 17:11:14 GMT 48.339066 -5.626901 24,225 259 401 1920
2021-06-16 17:11:04 GMT 48.342865 -5.598027 23,900 259 399 2048
2021-06-16 17:10:59 GMT 48.344315 -5.586620 23,750 259 397 2048
2021-06-16 17:10:55 GMT 48.346069 -5.573097 23,575 259 397 2112
2021-06-16 17:10:51 GMT 48.347305 -5.563660 23,325 259 395 2112
2021-06-16 17:10:43 GMT 48.350006 -5.542884 23,175 260 393 2304
2021-06-16 17:10:40 GMT 48.350922 -5.535664 23,075 260 393 2304
2021-06-16 17:10:34 GMT 48.353027 -5.519292 22,675 259 392 2624
2021-06-16 17:10:30 GMT 48.354416 -5.508632 22,650 259 392 2624
2021-06-16 17:10:24 GMT 48.356556 -5.492080 22,375 260 392 2752
2021-06-16 17:10:20 GMT 48.357906 -5.481672 22,175 260 392 2816
2021-06-16 17:10:14 GMT 48.360031 -5.465346 21,725 259 392 2560
2021-06-16 17:10:10 GMT 48.361450 -5.454430 21,725 259 392 2560
2021-06-16 17:10:04 GMT 48.363491 -5.438666 21,475 259 391 2560
2021-06-16 17:10:00 GMT 48.364838 -5.428584 21,300 259 390 2560
2021-06-16 17:09:54 GMT 48.367126 -5.411048 19,525 259 378 2944
2021-06-16 17:09:50 GMT 48.368382 -5.401443 20,875 259 388 2368
2021-06-16 17:09:44 GMT 48.370560 -5.384850 20,650 259 387 2304
2021-06-16 17:09:39 GMT 48.372391 -5.370836 20,450 259 386 2240
2021-06-16 17:09:34 GMT 48.374012 -5.358509 20,275 259 383 2176
2021-06-16 17:09:29 GMT 48.375595 -5.346800 20,125 259 382 2112
2021-06-16 17:09:24 GMT 48.377552 -5.331766 19,925 259 380 2368
2021-06-16 17:09:19 GMT 48.379028 -5.320341 19,725 259 379 2624
2021-06-16 17:09:14 GMT 48.380859 -5.306467 19,475 259 378 2944
2021-06-16 17:09:11 GMT 48.383240 -5.288438 18,975 259 376 2368
2021-06-16 17:09:04 GMT 48.384300 -5.280449 19,025 259 375 2496
2021-06-16 17:09:01 GMT 48.385281 -5.273076 18,900 259 375 2496
2021-06-16 17:08:58 GMT 48.385941 -5.267944 18,825 259 373 2752
2021-06-16 17:08:53 GMT 48.387840 -5.253416 18,400 260 375 4480
2021-06-16 17:08:50 GMT 48.388824 -5.245760 17,925 260 378 5056
2021-06-16 17:08:44 GMT 48.390724 -5.230360 17,800 260 380 5248
2021-06-16 17:08:42 GMT 48.391571 -5.223647 17,575 260 381 5248
2021-06-16 17:08:39 GMT 48.392303 -5.217661 17,375 260 384 5312
2021-06-16 17:08:34 GMT 48.393951 -5.204210 16,650 260 391 3840
2021-06-16 17:08:30 GMT 48.395416 -5.192519 16,650 260 391 3840
2021-06-16 17:08:24 GMT 48.397430 -5.176814 16,300 260 391 3008
2021-06-16 17:08:19 GMT 48.398987 -5.164490 16,025 260 389 2752
2021-06-16 17:08:14 GMT 48.400826 -5.150203 15,850 260 387 2816
2021-06-16 17:08:09 GMT 48.402271 -5.138566 15,650 260 386 2944
2021-06-16 17:08:04 GMT 48.404068 -5.124277 15,350 260 385 3264
2021-06-16 17:07:54 GMT 48.407501 -5.097163 14,800 260 384 3136
2021-06-16 17:07:44 GMT 48.410706 -5.071740 14,300 260 382 2944
2021-06-16 17:07:34 GMT 48.414143 -5.044604 13,775 260 380 3200
2021-06-16 17:07:23 GMT 48.417526 -5.017372 13,200 260 378 3328
2021-06-16 17:07:19 GMT 48.418762 -5.007301 12,975 260 378 3392
2021-06-16 17:07:13 GMT 48.420868 -4.990540 12,625 260 376 3264
2021-06-16 17:07:04 GMT 48.423824 -4.967194 12,150 260 373 2688
2021-06-16 17:06:56 GMT 48.426041 -4.949130 11,900 260 368 1920
2021-06-16 17:06:53 GMT 48.427277 -4.939340 11,775 260 365 1664
We lost coverage of the aircraft here for a total of 133 minutes
2021-06-16 14:54:15 GMT 48.409332 -4.760672 3,800 116 198 -1856
2021-06-16 14:53:34 GMT 48.427139 -4.815463 4,675 115 232 -1024
2021-06-16 14:53:27 GMT 48.430202 -4.825166 4,800 115 239 -768
2021-06-16 14:53:12 GMT 48.437557 -4.847862 4,950 115 250 -832
2021-06-16 14:53:07 GMT 48.440094 -4.855675 5,025 115 250 -1152
2021-06-16 14:49:02 GMT 48.569904 -5.259921 7,825 115 272 -576
2021-06-16 14:48:56 GMT 48.573166 -5.270198 7,875 115 272 -576
2021-06-16 14:48:55 GMT 48.573860 -5.272426 7,875 115 272 -576
2021-06-16 14:48:52 GMT 48.575272 -5.276888 7,900 115 272 -512
2021-06-16 14:48:43 GMT 48.583450 -5.302566 8,025 115 272 -448
2021-06-16 14:48:37 GMT 48.583450 -5.302566 8,025 115 272 -448
2021-06-16 14:48:33 GMT 48.586617 -5.312468 8,075 115 274 -256
2021-06-16 14:48:32 GMT 48.586617 -5.312468 8,075 115 274 -256
2021-06-16 14:48:30 GMT 48.588200 -5.317455 8,075 115 274 -256
2021-06-16 14:48:29 GMT 48.588200 -5.317455 8,075 115 275 -320
2021-06-16 14:48:25 GMT 48.591202 -5.326820 8,100 115 275 -320
2021-06-16 14:48:14 GMT 48.596161 -5.342463 8,150 115 278 -256
2021-06-16 14:48:12 GMT 48.597610 -5.346961 8,150 115 278 -256
2021-06-16 14:48:10 GMT 48.599808 -5.353793 8,175 115 283 -384
2021-06-16 14:48:08 GMT 48.599808 -5.353793 8,175 115 283 -384
2021-06-16 14:48:07 GMT 48.605804 -5.372807 8,225 115 283 -384
2021-06-16 14:47:57 GMT 48.605804 -5.372807 8,225 115 283 -384
2021-06-16 14:47:37 GMT 48.618134 -5.411851 8,375 115 286 -576
2021-06-16 14:47:35 GMT 48.618134 -5.411851 8,375 115 286 -576
2021-06-16 14:47:33 GMT 48.619308 -5.415415 8,400 115 286 -576
2021-06-16 14:47:31 GMT 48.620506 -5.419223 8,400 115 287 -640
2021-06-16 14:47:27 GMT 48.622330 -5.424992 8,450 115 288 -960
2021-06-16 14:47:26 GMT 48.622833 -5.426612 8,475 115 288 -1024
2021-06-16 14:47:25 GMT 48.624138 -5.430788 8,500 115 288 -1024
2021-06-16 14:47:23 GMT 48.624649 -5.432450 8,525 115 288 -1024
2021-06-16 14:47:22 GMT 48.625908 -5.436425 8,550 115 288 -1024
2021-06-16 14:47:20 GMT 48.626495 -5.438303 8,575 115 289 -960
2021-06-16 14:47:18 GMT 48.627491 -5.441340 8,600 115 290 -896
2021-06-16 14:47:17 GMT 48.628647 -5.444993 8,625 115 291 0
2021-06-16 14:47:15 GMT 48.629196 -5.446824 8,650 115 291 -832
2021-06-16 14:47:14 GMT 48.629974 -5.449219 8,650 115 291 -832
2021-06-16 14:47:10 GMT 48.632812 -5.458233 8,750 115 291 -1152
2021-06-16 14:47:08 GMT 48.633408 -5.460064 8,750 115 291 -1152
2021-06-16 14:47:07 GMT 48.633961 -5.461867 8,775 115 291 -1216
2021-06-16 14:47:06 GMT 48.635124 -5.465554 8,825 115 291 -1216
2021-06-16 14:47:03 GMT 48.636887 -5.471051 8,875 115 292 -1216
2021-06-16 14:47:01 GMT 48.637451 -5.472926 8,900 115 292 -1216
2021-06-16 14:46:59 GMT 48.638756 -5.476974 8,950 115 292 -1280
2021-06-16 14:46:58 GMT 48.640274 -5.481755 9,000 115 292 -1280
2021-06-16 14:46:46 GMT 48.645950 -5.499784 9,200 115 293 -1280
2021-06-16 14:46:44 GMT 48.647228 -5.503861 9,250 115 293 -1216
2021-06-16 14:46:43 GMT 48.648067 -5.506463 9,300 115 293 -1216
2021-06-16 14:46:41 GMT 48.648952 -5.509210 9,325 115 293 -1216
2021-06-16 14:46:39 GMT 48.650349 -5.513691 9,375 115 294 -1280
2021-06-16 14:46:37 GMT 48.651489 -5.517390 9,400 115 294 -1280
2021-06-16 14:46:36 GMT 48.652023 -5.519040 9,425 115 294 -1280
2021-06-16 14:46:33 GMT 48.653641 -5.524222 9,475 115 294 -1280
2021-06-16 14:46:32 GMT 48.654305 -5.526268 9,500 115 294 -1280
2021-06-16 14:46:03 GMT 48.671448 -5.580703 10,125 115 297 -1280
2021-06-16 14:46:01 GMT 48.672367 -5.583657 10,200 115 297 -1280
2021-06-16 14:45:59 GMT 48.674042 -5.588933 10,200 115 297 -1280
2021-06-16 14:45:58 GMT 48.674973 -5.591900 10,250 115 297 -1280
2021-06-16 14:45:55 GMT 48.676392 -5.596407 10,300 115 297 -1280
2021-06-16 14:45:53 GMT 48.677486 -5.599992 10,325 115 298 -1280
2021-06-16 14:45:51 GMT 48.678604 -5.603606 10,350 115 298 -1344
2021-06-16 14:45:50 GMT 48.679138 -5.605281 10,375 115 298 -1344
2021-06-16 14:45:49 GMT 48.679676 -5.607003 10,475 115 298 -1408
2021-06-16 14:45:46 GMT 48.681492 -5.612785 10,475 115 298 -1408
2021-06-16 14:45:43 GMT 48.687653 -5.632395 10,725 115 297 -1408
2021-06-16 14:45:36 GMT 48.687653 -5.632395 10,725 115 298 -1408
2021-06-16 14:45:35 GMT 48.687962 -5.633312 10,725 115 298 -1408
2021-06-16 14:45:34 GMT 48.689404 -5.638010 10,800 115 298 -1408
2021-06-16 14:45:32 GMT 48.689941 -5.639719 10,825 115 298 -1344
2021-06-16 14:45:31 GMT 48.690567 -5.641624 10,825 115 298 -1344
2021-06-16 14:45:22 GMT 48.695435 -5.657255 11,025 115 299 -1280
2021-06-16 14:45:20 GMT 48.696621 -5.660995 11,075 115 299 -1280
2021-06-16 14:45:19 GMT 48.697693 -5.664392 11,100 115 300 -1216
2021-06-16 14:45:17 GMT 48.698948 -5.668367 11,150 115 300 -1216
2021-06-16 14:45:15 GMT 48.699692 -5.670847 11,175 115 300 -1216
2021-06-16 14:45:14 GMT 48.700699 -5.674086 11,200 115 300 -1216
2021-06-16 14:45:12 GMT 48.701881 -5.677908 11,250 115 300 -1216
2021-06-16 14:45:10 GMT 48.703045 -5.681666 11,275 115 300 -1216
2021-06-16 14:45:07 GMT 48.704590 -5.686622 11,350 115 301 -1152
2021-06-16 14:45:06 GMT 48.705418 -5.689256 11,375 115 301 -1152
2021-06-16 14:45:03 GMT 48.707794 -5.696904 11,450 115 302 -1088
2021-06-16 14:45:01 GMT 48.708443 -5.699013 11,450 115 302 -1088
2021-06-16 14:44:59 GMT 48.709656 -5.702844 11,475 115 304 -1088
2021-06-16 14:44:56 GMT 48.711143 -5.707614 11,550 115 304 -1088
2021-06-16 14:44:55 GMT 48.712097 -5.710707 11,575 115 304 -1088
2021-06-16 14:44:53 GMT 48.713425 -5.714914 11,625 115 304 -1152
2021-06-16 14:44:51 GMT 48.715164 -5.720497 11,675 115 305 -1088
2021-06-16 14:44:48 GMT 48.716358 -5.724311 11,700 115 305 -1088
2021-06-16 14:44:47 GMT 48.716965 -5.726262 11,725 115 305 -1088
2021-06-16 14:44:46 GMT 48.717522 -5.727997 11,750 115 305 -1088
2021-06-16 14:44:45 GMT 48.718731 -5.731828 11,775 115 306 -1088
2021-06-16 14:44:43 GMT 48.719925 -5.735708 11,825 115 306 -1088
2021-06-16 14:44:41 GMT 48.720966 -5.738983 11,850 115 306 -1216
2021-06-16 14:44:39 GMT 48.721806 -5.741730 11,900 115 306 -1280
2021-06-16 14:44:37 GMT 48.723129 -5.745990 11,900 115 306 -1344
2021-06-16 14:44:36 GMT 48.723434 -5.746934 11,950 115 306 -1408
2021-06-16 14:44:35 GMT 48.724045 -5.748878 11,975 115 306 -1408
2021-06-16 14:44:32 GMT 48.726135 -5.755463 12,050 115 306 -1664
2021-06-16 14:44:31 GMT 48.726654 -5.757188 12,075 115 306 -1664
2021-06-16 14:44:29 GMT 48.727810 -5.760884 12,125 115 306 -1920
2021-06-16 14:44:26 GMT 48.729630 -5.766695 12,225 115 306 -2176
2021-06-16 14:44:25 GMT 48.730232 -5.768617 12,275 115 306 -2240
2021-06-16 14:44:23 GMT 48.731415 -5.772329 12,350 115 306 -2432
2021-06-16 14:44:21 GMT 48.732838 -5.776929 12,400 115 306 -2496
2021-06-16 14:44:19 GMT 48.733521 -5.779090 12,500 115 307 -2560
2021-06-16 14:44:18 GMT 48.734047 -5.780832 12,525 115 307 -2560
2021-06-16 14:44:17 GMT 48.735676 -5.786109 12,625 115 308 -2496
2021-06-16 14:44:16 GMT 48.735676 -5.786109 12,625 115 308 -2496
2021-06-16 14:44:14 GMT 48.737213 -5.790951 12,725 115 308 -2496
2021-06-16 14:44:11 GMT 48.738785 -5.795992 12,850 115 309 -2496
2021-06-16 14:44:09 GMT 48.739449 -5.798179 12,900 115 310 -2496
2021-06-16 14:44:08 GMT 48.740986 -5.803094 13,000 115 310 -2496
2021-06-16 14:44:04 GMT 48.742565 -5.808154 13,125 115 311 -2560
2021-06-16 14:44:02 GMT 48.743591 -5.811478 13,175 115 311 -2560
2021-06-16 14:44:00 GMT 48.744896 -5.815671 13,275 115 311 -2688
2021-06-16 14:43:59 GMT 48.745560 -5.817824 13,325 115 312 -2688
2021-06-16 14:43:57 GMT 48.746750 -5.821557 13,400 115 313 -2752
2021-06-16 14:43:56 GMT 48.748619 -5.827524 13,525 115 313 -2752
2021-06-16 14:43:54 GMT 48.748619 -5.827524 13,550 115 313 -2752
2021-06-16 14:43:53 GMT 48.749771 -5.831275 13,650 115 313 -2752
2021-06-16 14:43:50 GMT 48.751099 -5.835430 13,725 115 313 -2752
2021-06-16 14:43:49 GMT 48.751644 -5.837210 13,825 115 314 -2752
2021-06-16 14:43:47 GMT 48.753693 -5.843715 13,875 115 314 -2752
2021-06-16 14:43:44 GMT 48.754944 -5.847684 14,025 115 314 -2752
2021-06-16 14:43:43 GMT 48.755604 -5.849858 14,075 115 315 -2752
2021-06-16 14:43:41 GMT 48.756866 -5.853882 14,125 115 315 -2752
2021-06-16 14:43:39 GMT 48.758102 -5.857826 14,250 115 315 -2752
2021-06-16 14:43:38 GMT 48.759430 -5.862051 14,350 115 316 -2752
2021-06-16 14:43:36 GMT 48.761169 -5.867615 14,500 115 316 -2752
2021-06-16 14:43:34 GMT 48.761169 -5.867615 14,500 115 316 -2752
2021-06-16 14:43:32 GMT 48.762955 -5.873460 14,625 115 317 -2688
2021-06-16 14:43:30 GMT 48.764877 -5.879657 14,725 115 318 -2624
2021-06-16 14:43:28 GMT 48.764877 -5.879657 14,750 115 318 -2624
2021-06-16 14:43:27 GMT 48.766125 -5.883685 14,800 115 318 -2496
2021-06-16 14:43:25 GMT 48.766636 -5.885275 14,925 115 318 -2496
2021-06-16 14:43:22 GMT 48.768494 -5.891348 15,025 115 321 -2240
2021-06-16 14:43:21 GMT 48.770462 -5.897616 15,075 115 321 -2176
2021-06-16 14:43:19 GMT 48.770462 -5.897616 15,125 115 322 -2112
2021-06-16 14:43:18 GMT 48.771744 -5.901701 15,150 115 323 -2048
2021-06-16 14:43:16 GMT 48.772385 -5.903743 15,200 115 323 -1984
2021-06-16 14:43:15 GMT 48.773010 -5.905802 15,250 115 325 -1856
2021-06-16 14:43:14 GMT 48.774216 -5.909729 15,300 115 327 -1792
2021-06-16 14:43:12 GMT 48.775040 -5.912405 15,325 115 327 -1664
2021-06-16 14:43:10 GMT 48.776272 -5.916282 15,375 115 329 -1536
2021-06-16 14:43:08 GMT 48.777740 -5.920856 15,425 115 331 -1408
2021-06-16 14:43:06 GMT 48.778973 -5.924883 15,475 115 334 -1344
2021-06-16 14:43:04 GMT 48.780441 -5.929518 15,525 115 338 -1344
2021-06-16 14:43:02 GMT 48.782139 -5.935075 15,575 115 341 -1472
2021-06-16 14:43:00 GMT 48.783005 -5.937829 15,625 115 341 -1472
2021-06-16 14:42:56 GMT 48.785934 -5.947125 15,725 115 346 -1664
2021-06-16 14:42:54 GMT 48.787258 -5.951554 15,775 115 348 -1728
2021-06-16 14:42:53 GMT 48.787956 -5.953723 15,825 115 349 -1792
2021-06-16 14:42:52 GMT 48.788269 -5.954801 15,825 115 351 -1856
2021-06-16 14:42:50 GMT 48.789909 -5.960155 15,900 115 352 -1856
2021-06-16 14:42:49 GMT 48.790604 -5.962337 15,925 115 353 -1920
2021-06-16 14:42:47 GMT 48.791912 -5.966588 16,000 115 355 -1920
2021-06-16 14:42:46 GMT 48.792706 -5.969046 16,025 115 356 -1984
2021-06-16 14:42:45 GMT 48.794037 -5.973323 16,100 114 358 -2048
2021-06-16 14:42:43 GMT 48.794704 -5.975623 16,125 114 358 -2048
2021-06-16 14:42:41 GMT 48.796188 -5.980365 16,200 114 361 -2112
2021-06-16 14:42:39 GMT 48.797592 -5.984947 16,275 114 362 -2240
2021-06-16 14:42:36 GMT 48.801037 -5.996222 16,450 115 366 -2304
2021-06-16 14:42:34 GMT 48.801037 -5.996222 16,450 114 367 -2304
2021-06-16 14:42:31 GMT 48.803192 -6.003183 16,550 114 369 -2240
2021-06-16 14:42:30 GMT 48.804157 -6.006269 16,600 115 370 -2048
2021-06-16 14:42:29 GMT 48.806252 -6.013063 16,700 115 372 -1984
2021-06-16 14:42:27 GMT 48.806252 -6.013063 16,700 115 373 -1920
2021-06-16 14:42:25 GMT 48.807415 -6.016822 16,750 115 373 -1792
2021-06-16 14:42:24 GMT 48.809418 -6.023182 16,850 115 374 -1664
2021-06-16 14:42:22 GMT 48.810116 -6.025567 16,875 115 374 -1664
2021-06-16 14:42:20 GMT 48.811295 -6.029381 16,900 115 375 -1664
2021-06-16 14:42:18 GMT 48.812397 -6.032940 16,950 115 375 -1664
2021-06-16 14:42:16 GMT 48.813931 -6.037927 17,000 115 375 -1664
2021-06-16 14:42:15 GMT 48.814678 -6.040312 17,050 115 375 -1664
2021-06-16 14:42:14 GMT 48.815872 -6.044100 17,075 114 376 -1664
2021-06-16 14:42:12 GMT 48.818069 -6.051284 17,175 114 376 -1664
2021-06-16 14:42:10 GMT 48.818401 -6.052455 17,175 114 376 -1664
2021-06-16 14:42:09 GMT 48.819305 -6.055298 17,225 114 376 -1664
2021-06-16 14:42:07 GMT 48.820862 -6.060298 17,275 114 376 -1664
2021-06-16 14:42:06 GMT 48.822189 -6.064594 17,325 114 377 -1664
2021-06-16 14:42:03 GMT 48.823883 -6.070087 17,375 114 377 -1664
2021-06-16 14:42:02 GMT 48.824615 -6.072482 17,425 114 377 -1664
2021-06-16 14:42:01 GMT 48.825348 -6.074876 17,450 114 377 -1664
2021-06-16 14:42:00 GMT 48.826687 -6.079198 17,500 114 378 -1728
2021-06-16 14:41:58 GMT 48.827454 -6.081848 17,525 114 378 -1728
2021-06-16 14:41:55 GMT 48.829666 -6.089028 17,625 114 378 -1792
2021-06-16 14:41:54 GMT 48.831062 -6.093581 17,675 114 378 -1792
2021-06-16 14:41:51 GMT 48.832691 -6.098858 17,725 114 378 -1792
2021-06-16 14:41:50 GMT 48.833450 -6.101285 17,775 114 378 -1792
2021-06-16 14:41:49 GMT 48.834972 -6.106375 17,825 114 378 -1728
2021-06-16 14:41:47 GMT 48.835670 -6.108471 17,850 114 379 -1728
2021-06-16 14:41:46 GMT 48.836975 -6.112807 17,900 114 379 -1728
2021-06-16 14:41:43 GMT 48.838650 -6.118373 17,950 114 379 -1728
2021-06-16 14:41:42 GMT 48.839355 -6.120582 18,000 114 379 -1664
2021-06-16 14:41:41 GMT 48.840912 -6.125653 18,050 115 380 -1664
2021-06-16 14:41:39 GMT 48.841724 -6.128275 18,100 115 380 -1664
2021-06-16 14:41:38 GMT 48.842377 -6.130442 18,125 115 380 -1664
2021-06-16 14:41:37 GMT 48.843864 -6.135286 18,175 115 380 -1664
2021-06-16 14:41:35 GMT 48.844608 -6.137671 18,200 115 380 -1664
2021-06-16 14:41:32 GMT 48.846752 -6.144682 18,275 114 381 -1664
2021-06-16 14:41:30 GMT 48.848236 -6.149527 18,325 114 381 -1664
2021-06-16 14:41:28 GMT 48.849426 -6.153400 18,375 115 382 -1664
2021-06-16 14:41:26 GMT 48.851219 -6.159210 18,425 115 382 -1664
2021-06-16 14:41:25 GMT 48.851898 -6.161429 18,500 115 382 -1664
2021-06-16 14:41:24 GMT 48.853313 -6.166004 18,525 115 382 -1664
2021-06-16 14:41:22 GMT 48.854095 -6.168471 18,550 115 382 -1664
2021-06-16 14:41:20 GMT 48.855503 -6.173088 18,625 114 383 -1664
2021-06-16 14:41:18 GMT 48.856979 -6.177908 18,650 114 383 -1728
2021-06-16 14:41:17 GMT 48.857758 -6.180373 18,675 114 383 -1728
2021-06-16 14:41:16 GMT 48.858490 -6.182838 18,700 114 383 -1728
2021-06-16 14:41:15 GMT 48.860577 -6.189639 18,800 114 383 -1792
2021-06-16 14:41:12 GMT 48.861282 -6.191852 18,825 114 384 -1792
2021-06-16 14:41:11 GMT 48.862106 -6.194528 18,850 114 384 -1856
2021-06-16 14:41:10 GMT 48.862766 -6.196723 18,875 114 384 -1856
2021-06-16 14:41:08 GMT 48.864349 -6.201855 18,950 114 384 -1920
2021-06-16 14:41:07 GMT 48.865093 -6.204312 18,975 114 384 -1920
2021-06-16 14:41:06 GMT 48.866211 -6.207926 19,025 114 384 -2048
2021-06-16 14:41:05 GMT 48.867699 -6.212841 19,100 114 384 -2048
2021-06-16 14:41:02 GMT 48.869236 -6.217756 19,150 114 384 -2048
2021-06-16 14:41:01 GMT 48.871628 -6.225516 19,250 114 384 -2112
2021-06-16 14:40:58 GMT 48.872269 -6.227769 19,300 114 384 -2112
2021-06-16 14:40:56 GMT 48.873779 -6.232628 19,375 114 384 -2176
2021-06-16 14:40:54 GMT 48.875381 -6.237769 19,450 114 384 -2176
2021-06-16 14:40:53 GMT 48.876034 -6.239945 19,475 114 384 -2176
2021-06-16 14:40:51 GMT 48.877476 -6.244643 19,525 114 384 -2112
2021-06-16 14:40:50 GMT 48.878220 -6.247029 19,575 114 384 -2048
2021-06-16 14:40:48 GMT 48.879868 -6.252418 19,650 114 384 -1984
2021-06-16 14:40:47 GMT 48.880547 -6.254618 19,675 114 384 -1984
2021-06-16 14:40:46 GMT 48.882038 -6.259533 19,750 114 385 -1856
2021-06-16 14:40:43 GMT 48.883480 -6.264159 19,775 114 385 -1664
2021-06-16 14:40:42 GMT 48.885574 -6.271025 19,850 114 385 -1344
2021-06-16 14:40:40 GMT 48.886597 -6.274461 19,875 114 387 -1088
2021-06-16 14:40:38 GMT 48.887299 -6.276663 19,925 114 387 -1024
2021-06-16 14:40:36 GMT 48.888882 -6.281867 19,925 114 387 -640
2021-06-16 14:40:35 GMT 48.889484 -6.283818 19,950 114 387 -640
2021-06-16 14:40:33 GMT 48.891022 -6.288950 19,975 114 387 -576
2021-06-16 14:40:32 GMT 48.892559 -6.293937 20,000 114 387 -512
2021-06-16 14:40:30 GMT 48.893234 -6.296152 20,000 114 387 -320
2021-06-16 14:40:29 GMT 48.894745 -6.301021 20,000 114 387 -128
2021-06-16 14:40:27 GMT 48.895569 -6.303758 20,000 114 387 -64
2021-06-16 14:40:26 GMT 48.896236 -6.306008 20,000 114 387 0
2021-06-16 14:40:25 GMT 48.897678 -6.310634 20,000 114 387 -64
2021-06-16 14:40:23 GMT 48.898361 -6.312913 20,000 114 387 0
2021-06-16 14:40:21 GMT 48.899918 -6.318054 20,000 114 387 0
2021-06-16 14:40:20 GMT 48.901356 -6.322776 20,000 114 387 0
2021-06-16 14:40:18 GMT 48.902252 -6.325731 20,000 114 387 0
2021-06-16 14:40:16 GMT 48.903625 -6.330167 20,000 114 387 0
2021-06-16 14:40:15 GMT 48.904358 -6.332632 20,000 114 387 0
2021-06-16 14:40:14 GMT 48.906097 -6.338266 20,000 114 387 0
2021-06-16 14:40:12 GMT 48.906830 -6.340731 20,000 114 387 0
2021-06-16 14:40:11 GMT 48.908340 -6.345689 20,000 114 387 0
2021-06-16 14:40:09 GMT 48.909084 -6.348146 20,000 114 387 0
2021-06-16 14:40:08 GMT 48.909828 -6.350604 20,000 114 387 0
2021-06-16 14:40:06 GMT 48.911270 -6.355302 20,000 114 387 0
2021-06-16 14:40:04 GMT 48.912762 -6.360217 20,000 114 387 64
2021-06-16 14:40:03 GMT 48.913601 -6.362963 20,000 114 387 64
2021-06-16 14:40:00 GMT 48.915985 -6.370873 20,000 114 388 64
2021-06-16 14:39:59 GMT 48.917416 -6.375540 20,000 114 388 64
2021-06-16 14:39:56 GMT 48.918674 -6.379732 20,000 114 388 64
2021-06-16 14:39:55 GMT 48.920212 -6.384719 19,975 114 389 128
2021-06-16 14:39:52 GMT 48.922073 -6.390935 19,975 114 389 64
2021-06-16 14:39:51 GMT 48.922440 -6.392141 19,975 114 389 64
2021-06-16 14:39:50 GMT 48.923328 -6.395127 19,975 114 389 64
2021-06-16 14:39:49 GMT 48.924911 -6.400381 19,975 114 391 64
2021-06-16 14:39:47 GMT 48.925751 -6.403078 19,975 114 391 64
2021-06-16 14:39:44 GMT 48.928123 -6.410812 19,975 114 391 64
2021-06-16 14:39:42 GMT 48.929382 -6.415004 19,975 114 391 64
2021-06-16 14:39:40 GMT 48.932281 -6.424537 19,975 114 391 64
2021-06-16 14:39:37 GMT 48.933430 -6.428231 19,975 114 391 64
2021-06-16 14:39:36 GMT 48.933792 -6.429467 19,975 114 391 64
2021-06-16 14:39:34 GMT 48.937294 -6.440952 20,000 114 391 0
2021-06-16 14:39:32 GMT 48.937294 -6.440952 19,975 114 390 -64
2021-06-16 14:39:29 GMT 48.938461 -6.444890 20,000 114 389 -128
2021-06-16 14:39:27 GMT 48.940979 -6.453130 20,000 114 388 -256
2021-06-16 14:39:25 GMT 48.941711 -6.455595 20,000 114 388 -256
2021-06-16 14:39:24 GMT 48.943222 -6.460524 20,025 114 388 -448
2021-06-16 14:39:21 GMT 48.944420 -6.464514 20,025 114 388 -448
2021-06-16 14:39:20 GMT 48.945999 -6.469719 20,050 114 387 -640
2021-06-16 14:39:18 GMT 48.946838 -6.472426 20,050 114 387 -704
2021-06-16 14:39:16 GMT 48.949493 -6.481088 20,100 114 388 -896
2021-06-16 14:39:13 GMT 48.950821 -6.485525 20,125 114 388 -1088
2021-06-16 14:39:12 GMT 48.952332 -6.490462 20,175 114 388 -1280
2021-06-16 14:39:10 GMT 48.953018 -6.492709 20,175 114 388 -1408
2021-06-16 14:39:09 GMT 48.953842 -6.495455 20,200 114 388 -1408
2021-06-16 14:39:07 GMT 48.955402 -6.500654 20,250 114 389 -1536
2021-06-16 14:39:06 GMT 48.956150 -6.503111 20,300 114 389 -1536
2021-06-16 14:39:03 GMT 48.958199 -6.509833 20,350 114 391 -1600
2021-06-16 14:39:02 GMT 48.959312 -6.513519 20,400 114 391 -1600
2021-06-16 14:39:00 GMT 48.960846 -6.518555 20,450 114 391 -1664
2021-06-16 14:38:59 GMT 48.961548 -6.520747 20,475 114 391 -1728
2021-06-16 14:38:58 GMT 48.962898 -6.525301 20,525 114 392 -1792
2021-06-16 14:38:56 GMT 48.963737 -6.528047 20,575 114 392 -1792
2021-06-16 14:38:55 GMT 48.964417 -6.530245 20,600 114 392 -1792
2021-06-16 14:38:53 GMT 48.966110 -6.535781 20,650 114 392 -1856
2021-06-16 14:38:51 GMT 48.967602 -6.540768 20,725 114 392 -1856
2021-06-16 14:38:49 GMT 48.969044 -6.545539 20,775 114 393 -1856
2021-06-16 14:38:48 GMT 48.969833 -6.547996 20,800 114 393 -1856
2021-06-16 14:38:46 GMT 48.971416 -6.553272 20,875 114 393 -1856
2021-06-16 14:38:45 GMT 48.972347 -6.556236 20,900 114 393 -1856
2021-06-16 14:38:44 GMT 48.973022 -6.558486 20,925 114 393 -1856
2021-06-16 14:38:42 GMT 48.974537 -6.563536 21,000 114 394 -1856
2021-06-16 14:38:40 GMT 48.976120 -6.568812 21,050 114 394 -1856
2021-06-16 14:38:38 GMT 48.977600 -6.573557 21,125 114 394 -1856
2021-06-16 14:38:37 GMT 48.978355 -6.576112 21,150 114 394 -1856
2021-06-16 14:38:36 GMT 48.979202 -6.578839 21,175 114 394 -1856
2021-06-16 14:38:35 GMT 48.980713 -6.583909 21,250 114 395 -1792
2021-06-16 14:38:33 GMT 48.981537 -6.586656 21,275 114 395 -1856
2021-06-16 14:38:32 GMT 48.982315 -6.589191 21,300 114 395 -1856
2021-06-16 14:38:31 GMT 48.983009 -6.591435 21,325 114 395 -1856
2021-06-16 14:38:21 GMT 48.990646 -6.616657 21,650 114 396 -1856
2021-06-16 14:38:19 GMT 48.992249 -6.621939 21,700 114 396 -1856
2021-06-16 14:38:18 GMT 48.992981 -6.624474 21,750 114 396 -1856
2021-06-16 14:38:17 GMT 48.993759 -6.627009 21,775 114 396 -1792
2021-06-16 14:38:15 GMT 48.995300 -6.632056 21,825 114 396 -1664
2021-06-16 14:38:14 GMT 48.996002 -6.634334 21,850 114 397 -1664
2021-06-16 14:38:13 GMT 48.997421 -6.639123 21,900 114 397 -1600
2021-06-16 14:38:10 GMT 48.998745 -6.643476 21,950 114 398 -1600
2021-06-16 14:38:09 GMT 49.000580 -6.649616 22,025 114 399 -1408
2021-06-16 14:38:07 GMT 49.001312 -6.652151 22,050 114 399 -1408
2021-06-16 14:38:06 GMT 49.002235 -6.655185 22,075 114 400 -1344
2021-06-16 14:38:04 GMT 49.003445 -6.659305 22,100 114 400 -1216
2021-06-16 14:38:03 GMT 49.004150 -6.661588 22,125 114 401 -1216
2021-06-16 14:38:01 GMT 49.005821 -6.667256 22,150 114 402 -1152
2021-06-16 14:38:00 GMT 49.006657 -6.670074 22,175 114 403 -1088
2021-06-16 14:37:58 GMT 49.008133 -6.674969 22,200 114 404 -1024
2021-06-16 14:37:57 GMT 49.008911 -6.677504 22,225 114 405 -1024
2021-06-16 14:37:55 GMT 49.010513 -6.682927 22,250 114 406 -960
2021-06-16 14:37:54 GMT 49.011219 -6.685253 22,275 114 406 -960
2021-06-16 14:37:52 GMT 49.012848 -6.690746 22,300 114 407 -960
2021-06-16 14:37:51 GMT 49.013260 -6.692012 22,325 114 408 -1024
2021-06-16 14:37:49 GMT 49.017929 -6.707717 22,425 114 409 -1088
2021-06-16 14:37:46 GMT 49.022507 -6.722929 22,575 114 413 -1408
2021-06-16 14:37:40 GMT 49.022507 -6.722929 22,550 114 413 -1408
2021-06-16 14:37:37 GMT 49.024021 -6.727970 22,600 114 413 -1472
2021-06-16 14:37:35 GMT 49.025650 -6.733535 22,700 114 414 -1920
2021-06-16 14:37:30 GMT 49.030334 -6.749127 22,825 114 414 -2048
2021-06-16 14:37:27 GMT 49.032356 -6.755724 22,975 114 414 -2112
2021-06-16 14:37:24 GMT 49.034409 -6.762648 23,025 114 414 -2176
2021-06-16 14:37:20 GMT 49.038071 -6.774832 23,175 114 414 -2176
2021-06-16 14:37:18 GMT 49.039810 -6.780677 23,275 114 414 -2176
2021-06-16 14:37:15 GMT 49.042175 -6.788611 23,375 114 414 -2112
2021-06-16 14:37:10 GMT 49.046227 -6.802127 23,550 114 415 -1920
2021-06-16 14:37:08 GMT 49.047718 -6.807187 23,600 114 415 -1920
2021-06-16 14:37:05 GMT 49.049721 -6.813836 23,725 114 416 -1984
2021-06-16 14:36:58 GMT 49.055492 -6.833207 23,925 114 416 -2048
2021-06-16 14:36:52 GMT 49.060547 -6.850328 24,125 114 417 -1984
2021-06-16 14:36:50 GMT 49.062057 -6.855398 24,200 114 417 -1984
2021-06-16 14:36:47 GMT 49.063915 -6.861540 24,275 114 417 -2048
2021-06-16 14:36:45 GMT 49.065735 -6.867612 24,350 114 417 -2048
2021-06-16 14:36:40 GMT 49.070015 -6.882067 24,525 114 417 -1984
2021-06-16 14:36:38 GMT 49.071507 -6.887199 24,575 114 418 -1984
2021-06-16 14:36:35 GMT 49.073502 -6.893850 24,750 114 418 -1920
2021-06-16 14:36:31 GMT 49.079498 -6.913922 24,850 114 418 -1856
2021-06-16 14:36:28 GMT 49.079498 -6.913922 24,900 114 419 -1792
2021-06-16 14:36:25 GMT 49.086262 -6.936782 25,000 114 419 -1728
2021-06-16 14:36:19 GMT 49.086262 -6.936782 25,150 114 418 -1664
2021-06-16 14:36:17 GMT 49.087845 -6.942131 25,200 114 418 -1600
2021-06-16 14:36:14 GMT 49.089848 -6.948853 25,275 114 418 -1536
2021-06-16 14:36:11 GMT 49.092865 -6.959064 25,375 114 418 -1600
2021-06-16 14:36:08 GMT 49.095573 -6.968223 25,450 114 417 -1600
2021-06-16 14:36:05 GMT 49.097713 -6.975451 25,525 114 417 -1728
2021-06-16 14:35:59 GMT 49.102432 -6.991178 25,725 114 414 -1984
2021-06-16 14:35:56 GMT 49.104420 -6.997857 25,800 114 413 -2048
2021-06-16 14:35:54 GMT 49.105957 -7.003150 25,875 114 413 -2048
2021-06-16 14:35:49 GMT 49.109848 -7.016109 26,075 114 409 -2176
2021-06-16 14:35:47 GMT 49.111588 -7.021854 26,150 114 409 -2176
2021-06-16 14:35:45 GMT 49.113602 -7.028715 26,225 114 407 -2176
2021-06-16 14:35:39 GMT 49.119873 -7.049490 26,425 114 405 -1792
2021-06-16 14:35:37 GMT 49.119873 -7.049490 26,500 114 404 -1728
2021-06-16 14:35:34 GMT 49.121410 -7.054668 26,550 114 403 -1664
2021-06-16 14:35:29 GMT 49.127060 -7.073505 26,750 114 400 -1920
2021-06-16 14:35:24 GMT 49.129276 -7.080978 26,875 114 400 -1920
2021-06-16 14:35:17 GMT 49.135208 -7.100971 27,125 114 399 -1216
2021-06-16 14:35:14 GMT 49.137039 -7.107168 27,150 114 401 -1472
2021-06-16 14:35:09 GMT 49.141296 -7.121606 27,275 114 410 -1536
2021-06-16 14:35:06 GMT 49.143127 -7.127944 29,250 114 444 -4160
2021-06-16 14:34:59 GMT 49.148758 -7.147099 27,575 114 422 -2048
2021-06-16 14:34:57 GMT 49.150909 -7.154424 27,675 114 425 -2304
2021-06-16 14:34:49 GMT 49.157066 -7.175229 28,000 114 432 -3072
2021-06-16 14:34:46 GMT 49.159103 -7.182171 28,125 114 433 -3200
2021-06-16 14:34:39 GMT 49.165260 -7.203056 28,600 114 437 -3904
2021-06-16 14:34:36 GMT 49.167435 -7.210412 28,725 114 438 -4032
2021-06-16 14:34:29 GMT 49.173595 -7.231245 29,275 114 442 -4224
2021-06-16 14:34:26 GMT 49.176014 -7.239484 29,475 114 442 -4224
2021-06-16 14:34:19 GMT 49.181808 -7.259216 29,975 114 447 -3968
2021-06-16 14:34:16 GMT 49.184299 -7.267817 30,175 114 449 -3904
2021-06-16 14:34:08 GMT 49.191559 -7.292457 30,900 114 455 -4032
2021-06-16 14:34:05 GMT 49.193237 -7.298319 30,850 114 455 -4096
2021-06-16 14:33:59 GMT 49.199020 -7.317951 31,775 114 461 -4608
2021-06-16 14:33:55 GMT 49.201805 -7.327447 31,525 114 461 -4480
2021-06-16 14:33:49 GMT 49.208042 -7.348842 32,075 114 463 -4992
2021-06-16 14:33:47 GMT 49.209251 -7.352961 32,200 114 464 -5120
2021-06-16 14:33:45 GMT 49.210743 -7.358093 32,350 114 464 -5184
2021-06-16 14:33:39 GMT 49.216515 -7.377825 32,900 113 467 -4800
2021-06-16 14:33:36 GMT 49.219666 -7.388658 33,150 113 469 -4160
2021-06-16 14:33:27 GMT 49.227036 -7.413820 33,625 114 474 -2560
2021-06-16 14:33:25 GMT 49.228455 -7.418659 33,750 114 475 -1280
2021-06-16 14:33:17 GMT 49.236206 -7.445261 34,000 114 476 -128
2021-06-16 14:33:15 GMT 49.237427 -7.449576 33,950 114 476 -832
2021-06-16 14:33:07 GMT 49.246674 -7.481196 34,000 114 476 0
2021-06-16 14:32:59 GMT 49.252258 -7.500211 34,000 114 476 0
2021-06-16 14:32:56 GMT 49.256363 -7.514287 34,000 114 476 0
2021-06-16 14:32:49 GMT 49.261391 -7.531489 34,000 114 476 0
2021-06-16 14:32:46 GMT 49.263519 -7.538875 34,000 114 476 0
2021-06-16 14:32:44 GMT 49.264801 -7.543171 34,000 114 476 0
2021-06-16 14:32:39 GMT 49.270050 -7.561268 34,000 114 476 0
2021-06-16 14:32:37 GMT 49.272034 -7.568031 34,000 114 476 0
2021-06-16 14:32:34 GMT 49.274288 -7.575724 34,000 114 476 0
2021-06-16 14:32:27 GMT 49.280895 -7.598419 34,000 113 477 0
2021-06-16 14:32:24 GMT 49.282700 -7.604581 34,000 113 477 0
2021-06-16 14:32:18 GMT 49.288330 -7.623948 34,000 113 476 0
2021-06-16 14:32:14 GMT 49.292404 -7.638104 34,000 113 476 0
2021-06-16 14:32:08 GMT 49.297028 -7.654090 34,000 113 475 0
2021-06-16 14:32:06 GMT 49.298813 -7.660288 34,000 113 475 0
2021-06-16 14:32:03 GMT 49.301567 -7.669758 34,000 113 475 0
2021-06-16 14:31:58 GMT 49.306183 -7.685782 34,000 113 475 0
2021-06-16 14:31:54 GMT 49.310028 -7.698951 34,000 113 475 0
2021-06-16 14:31:48 GMT 49.314880 -7.715872 34,000 113 475 0
2021-06-16 14:31:44 GMT 49.318954 -7.730009 34,000 113 475 0
2021-06-16 14:31:38 GMT 49.327469 -7.759798 34,000 113 475 0
2021-06-16 14:31:34 GMT 49.327469 -7.759798 34,000 113 475 0
2021-06-16 14:31:28 GMT 49.332733 -7.778250 34,000 113 475 0
2021-06-16 14:31:26 GMT 49.334335 -7.783813 34,000 113 476 0
2021-06-16 14:31:23 GMT 49.337414 -7.794583 34,000 113 476 0
2021-06-16 14:31:18 GMT 49.341614 -7.809378 34,000 113 476 64
2021-06-16 14:31:16 GMT 49.342953 -7.814026 34,000 113 476 64
2021-06-16 14:31:13 GMT 49.345688 -7.823533 34,000 113 476 0
2021-06-16 14:31:10 GMT 49.348396 -7.833107 34,000 113 476 0
2021-06-16 14:31:06 GMT 49.352077 -7.846118 34,000 113 476 0
2021-06-16 14:31:03 GMT 49.354218 -7.853490 34,000 113 476 0
2021-06-16 14:30:58 GMT 49.359154 -7.870837 34,000 113 476 0
2021-06-16 14:30:56 GMT 49.360733 -7.876402 34,000 113 476 0
2021-06-16 14:30:51 GMT 49.365601 -7.893395 34,000 113 476 0
2021-06-16 14:30:46 GMT 49.369625 -7.907627 34,000 113 476 0
2021-06-16 14:30:44 GMT 49.372284 -7.916917 34,000 113 476 0
2021-06-16 14:30:41 GMT 49.376541 -7.931706 34,000 113 477 0
2021-06-16 14:30:38 GMT 49.376541 -7.931706 34,000 113 477 0
2021-06-16 14:30:35 GMT 49.378983 -7.940369 34,000 113 477 0
2021-06-16 14:30:33 GMT 49.381405 -7.948681 34,000 113 477 0
2021-06-16 14:30:28 GMT 49.385834 -7.964172 34,000 113 476 0
2021-06-16 14:30:26 GMT 49.387222 -7.969135 34,000 113 477 0
2021-06-16 14:30:23 GMT 49.389969 -7.978676 34,000 113 477 0
2021-06-16 14:30:20 GMT 49.392517 -7.987694 34,000 113 477 0
2021-06-16 14:30:18 GMT 49.394531 -7.994807 34,000 113 477 0
2021-06-16 14:30:16 GMT 49.396484 -8.001661 34,000 114 477 0
2021-06-16 14:30:11 GMT 49.400940 -8.017062 34,000 116 476 0
2021-06-16 14:30:08 GMT 49.403687 -8.025935 34,000 116 476 0
2021-06-16 14:30:06 GMT 49.405426 -8.031358 34,000 116 475 0
2021-06-16 14:30:00 GMT 49.411423 -8.049387 34,000 118 474 0
2021-06-16 14:29:58 GMT 49.413574 -8.055584 34,000 118 474 0
2021-06-16 14:29:56 GMT 49.415619 -8.061146 34,000 119 473 0
2021-06-16 14:29:52 GMT 49.419624 -8.071915 34,000 121 472 0
2021-06-16 14:29:48 GMT 49.424423 -8.084318 34,000 121 472 0
2021-06-16 14:29:46 GMT 49.426712 -8.089952 34,000 122 470 0
2021-06-16 14:29:40 GMT 49.434036 -8.107332 34,000 124 469 0
2021-06-16 14:29:38 GMT 49.436428 -8.112884 34,000 124 468 0
2021-06-16 14:29:36 GMT 49.438663 -8.117783 34,000 125 467 0
2021-06-16 14:29:33 GMT 49.443146 -8.127498 34,000 126 467 0
2021-06-16 14:29:30 GMT 49.446484 -8.134485 34,000 127 465 -64
2021-06-16 14:29:28 GMT 49.449051 -8.139785 34,000 127 465 -64
2021-06-16 14:29:22 GMT 49.457291 -8.155831 34,000 129 462 0
2021-06-16 14:29:18 GMT 49.462326 -8.165155 34,000 130 462 0
2021-06-16 14:29:16 GMT 49.465244 -8.170413 34,000 130 462 0
2021-06-16 14:29:11 GMT 49.472580 -8.183586 34,000 130 461 0
2021-06-16 14:29:08 GMT 49.476334 -8.190308 34,000 130 461 0
2021-06-16 14:29:06 GMT 49.479397 -8.195801 34,000 130 461 0
2021-06-16 14:29:02 GMT 49.485634 -8.207010 34,000 130 461 0
2021-06-16 14:28:58 GMT 49.490570 -8.215966 34,000 130 461 0
2021-06-16 14:28:56 GMT 49.493362 -8.220891 34,000 130 461 0
2021-06-16 14:28:50 GMT 49.501236 -8.235120 34,000 130 461 0
2021-06-16 14:28:46 GMT 49.506767 -8.245017 34,000 130 460 0
2021-06-16 14:28:40 GMT 49.515152 -8.260201 34,000 130 460 0
2021-06-16 14:28:33 GMT 49.524410 -8.276862 34,000 130 460 0
2021-06-16 14:28:30 GMT 49.528694 -8.284508 34,000 130 460 0
2021-06-16 14:28:25 GMT 49.535339 -8.296412 34,000 130 459 0
2021-06-16 14:28:20 GMT 49.542660 -8.309524 34,000 130 459 0
2021-06-16 14:28:16 GMT 49.548759 -8.320436 34,000 130 459 0
2021-06-16 14:28:11 GMT 49.554245 -8.330311 34,000 130 458 0
2021-06-16 14:28:08 GMT 49.559372 -8.339490 34,000 130 458 0
2021-06-16 14:28:06 GMT 49.562119 -8.344413 34,000 130 458 0
2021-06-16 14:27:58 GMT 49.573517 -8.364932 34,000 130 457 0
2021-06-16 14:27:55 GMT 49.577065 -8.371359 34,000 130 457 0
2021-06-16 14:27:50 GMT 49.584045 -8.383942 34,000 130 457 0
2021-06-16 14:27:47 GMT 49.587631 -8.390363 34,000 130 457 0
2021-06-16 14:27:41 GMT 49.596661 -8.406694 34,000 130 456 0
2021-06-16 14:27:38 GMT 49.601074 -8.414588 34,000 130 456 0
2021-06-16 14:27:34 GMT 49.606251 -8.423916 34,000 130 456 0
2021-06-16 14:27:29 GMT 49.612396 -8.435050 34,000 130 456 0
2021-06-16 14:27:27 GMT 49.615002 -8.439727 34,000 130 456 0
2021-06-16 14:27:25 GMT 49.617325 -8.443933 34,000 130 456 0
2021-06-16 14:27:21 GMT 49.623642 -8.455281 34,000 130 456 0
2021-06-16 14:27:17 GMT 49.628952 -8.464894 34,000 130 456 0
2021-06-16 14:27:14 GMT 49.632088 -8.470533 34,000 130 455 0
2021-06-16 14:27:11 GMT 49.637859 -8.480926 34,000 130 455 0
2021-06-16 14:27:08 GMT 49.642097 -8.488497 34,000 130 455 0
2021-06-16 14:27:05 GMT 49.644844 -8.493471 34,000 130 455 0
2021-06-16 14:26:59 GMT 49.653034 -8.508243 34,000 130 455 0
2021-06-16 14:26:57 GMT 49.655731 -8.513176 34,000 130 455 0
2021-06-16 14:26:49 GMT 49.666534 -8.532591 34,000 130 455 0
2021-06-16 14:26:47 GMT 49.669235 -8.537533 34,000 130 455 0
2021-06-16 14:26:43 GMT 49.674683 -8.547438 34,000 130 455 0
2021-06-16 14:26:41 GMT 49.677662 -8.552856 34,000 130 455 0
2021-06-16 14:26:37 GMT 49.683243 -8.563048 34,000 130 455 0
2021-06-16 14:26:32 GMT 49.689205 -8.573938 34,000 130 455 0
2021-06-16 14:26:30 GMT 49.693268 -8.581334 34,000 130 455 0
2021-06-16 14:26:27 GMT 49.696426 -8.587044 34,000 130 455 0
2021-06-16 14:26:25 GMT 49.699261 -8.592274 34,000 130 454 0
2021-06-16 14:26:19 GMT 49.707363 -8.607120 34,000 130 454 0
2021-06-16 14:26:16 GMT 49.711319 -8.614320 34,000 130 454 0
2021-06-16 14:26:13 GMT 49.715378 -8.621738 34,000 130 454 0
2021-06-16 14:26:09 GMT 49.720768 -8.631691 34,000 130 454 0
2021-06-16 14:26:07 GMT 49.724854 -8.639085 34,000 130 454 0
2021-06-16 14:26:01 GMT 49.732269 -8.652745 34,000 129 454 0
2021-06-16 14:25:57 GMT 49.737534 -8.662431 34,000 129 455 0
2021-06-16 14:25:54 GMT 49.741066 -8.668881 34,000 129 455 0
2021-06-16 14:25:49 GMT 49.748051 -8.681797 34,000 129 454 0
2021-06-16 14:25:47 GMT 49.750626 -8.686499 34,000 129 454 0
2021-06-16 14:25:43 GMT 49.755871 -8.696198 34,000 129 454 0
2021-06-16 14:25:40 GMT 49.759735 -8.703413 34,000 129 454 0
2021-06-16 14:25:37 GMT 49.764450 -8.712158 34,000 129 454 0
2021-06-16 14:25:33 GMT 49.771820 -8.725819 34,000 129 453 0
2021-06-16 14:25:29 GMT 49.775024 -8.731818 34,000 129 453 0
2021-06-16 14:25:27 GMT 49.777702 -8.736803 34,000 129 453 0
2021-06-16 14:25:23 GMT 49.783585 -8.747719 34,000 129 453 0
2021-06-16 14:25:19 GMT 49.788300 -8.756465 34,000 129 453 0
2021-06-16 14:25:15 GMT 49.793903 -8.766941 34,000 129 453 0
2021-06-16 14:25:13 GMT 49.796417 -8.771692 34,000 129 453 0
2021-06-16 14:25:09 GMT 49.807617 -8.792676 34,000 129 453 0
2021-06-16 14:25:05 GMT 49.807617 -8.792676 34,000 129 453 0
2021-06-16 14:25:03 GMT 49.809723 -8.796652 34,000 129 453 0
2021-06-16 14:24:59 GMT 49.814896 -8.806409 34,000 129 452 0
2021-06-16 14:24:57 GMT 49.817688 -8.811613 34,000 129 452 0
2021-06-16 14:24:55 GMT 49.820755 -8.817323 34,000 129 452 0
2021-06-16 14:24:53 GMT 49.823418 -8.822318 34,000 129 452 0
2021-06-16 14:24:49 GMT 49.828911 -8.832488 34,000 129 452 0
2021-06-16 14:24:47 GMT 49.831566 -8.837462 34,000 129 452 0
2021-06-16 14:24:44 GMT 49.834869 -8.843697 34,000 129 451 0
2021-06-16 14:24:42 GMT 49.837429 -8.848448 34,000 129 451 0
2021-06-16 14:24:39 GMT 49.841949 -8.856860 34,000 129 451 0
2021-06-16 14:24:37 GMT 49.844604 -8.861775 34,000 129 451 0
2021-06-16 14:24:32 GMT 49.850739 -8.873195 34,000 129 450 0
2021-06-16 14:24:29 GMT 49.855408 -8.881868 34,000 129 451 0
2021-06-16 14:24:27 GMT 49.858330 -8.887346 34,000 129 451 0
2021-06-16 14:24:22 GMT 49.864288 -8.898555 34,000 128 451 0
2021-06-16 14:24:19 GMT 49.868618 -8.906794 34,000 128 452 0
2021-06-16 14:24:16 GMT 49.872025 -8.913381 34,000 127 452 0
2021-06-16 14:24:12 GMT 49.877373 -8.924090 34,000 126 453 0
2021-06-16 14:24:07 GMT 49.884075 -8.938269 34,000 123 457 0
2021-06-16 14:24:04 GMT 49.887844 -8.946880 34,000 121 460 0
2021-06-16 14:24:00 GMT 49.892036 -8.957124 34,000 120 460 0
2021-06-16 14:23:57 GMT 49.895386 -8.965883 34,000 119 461 0
2021-06-16 14:23:55 GMT 49.897995 -8.973083 34,000 118 462 0
2021-06-16 14:23:52 GMT 49.900459 -8.980061 34,000 118 462 0
2021-06-16 14:23:47 GMT 49.905853 -8.995418 34,000 118 462 0
2021-06-16 14:23:42 GMT 49.910660 -9.009078 34,000 118 462 0
2021-06-16 14:23:39 GMT 49.913914 -9.018365 34,000 118 462 0
2021-06-16 14:23:36 GMT 49.916290 -9.025052 34,000 118 462 0
2021-06-16 14:23:32 GMT 49.920666 -9.037517 34,000 118 463 0
2021-06-16 14:23:27 GMT 49.926250 -9.053551 34,000 118 462 0
2021-06-16 14:23:21 GMT 49.931854 -9.069503 34,000 118 462 0
2021-06-16 14:23:18 GMT 49.934601 -9.077381 34,000 118 462 0
2021-06-16 14:23:16 GMT 49.936615 -9.083236 34,000 118 462 0
2021-06-16 14:23:09 GMT 49.944672 -9.106220 34,000 118 462 0
2021-06-16 14:23:07 GMT 49.946686 -9.112046 34,000 118 463 0
2021-06-16 14:23:02 GMT 49.951668 -9.126298 34,000 118 463 0
2021-06-16 14:22:57 GMT 49.956928 -9.141516 34,000 118 463 0
2021-06-16 14:22:51 GMT 49.962097 -9.156436 34,000 118 463 0
2021-06-16 14:22:46 GMT 49.969078 -9.176627 34,000 118 464 0
2021-06-16 14:22:41 GMT 49.972244 -9.185684 34,000 118 464 0
2021-06-16 14:22:38 GMT 49.975250 -9.194472 34,000 118 464 0
2021-06-16 14:22:36 GMT 49.976761 -9.198897 34,000 118 464 0
2021-06-16 14:22:34 GMT 49.979416 -9.206543 34,000 118 464 0
2021-06-16 14:22:31 GMT 49.982857 -9.216490 34,000 118 464 0
2021-06-16 14:22:26 GMT 49.989624 -9.236177 34,000 118 464 0
2021-06-16 14:22:21 GMT 49.992920 -9.245862 34,000 118 465 0
2021-06-16 14:22:16 GMT 49.997570 -9.259396 34,000 118 465 0
2021-06-16 14:22:10 GMT 50.003666 -9.277063 34,000 118 465 0
2021-06-16 14:22:07 GMT 50.006195 -9.284459 34,000 118 465 0
2021-06-16 14:22:05 GMT 50.008602 -9.291539 34,000 118 465 0
2021-06-16 14:21:58 GMT 50.015957 -9.313066 34,000 117 466 0
2021-06-16 14:21:55 GMT 50.018005 -9.318930 34,000 117 466 0
2021-06-16 14:21:53 GMT 50.020203 -9.325441 34,000 117 466 0
2021-06-16 14:21:51 GMT 50.023407 -9.334910 34,000 117 466 0
2021-06-16 14:21:46 GMT 50.027828 -9.347881 34,000 117 466 0
2021-06-16 14:21:44 GMT 50.029736 -9.353522 34,000 117 467 0
2021-06-16 14:21:38 GMT 50.035583 -9.371049 34,000 117 468 0
2021-06-16 14:21:36 GMT 50.037689 -9.377337 34,000 117 469 0
2021-06-16 14:21:30 GMT 50.044006 -9.396419 34,000 117 469 -64
2021-06-16 14:21:27 GMT 50.046021 -9.402418 34,000 117 469 0
2021-06-16 14:21:25 GMT 50.047985 -9.408380 34,000 117 469 0
2021-06-16 14:21:22 GMT 50.051376 -9.418608 34,000 117 469 0
2021-06-16 14:21:18 GMT 50.055496 -9.430823 34,000 118 469 0
2021-06-16 14:21:16 GMT 50.057510 -9.436822 34,000 118 469 0
2021-06-16 14:21:08 GMT 50.066254 -9.461252 34,000 121 466 0
2021-06-16 14:21:06 GMT 50.068771 -9.467830 34,000 122 464 0
2021-06-16 14:20:58 GMT 50.077641 -9.488699 34,000 126 460 0
2021-06-16 14:20:56 GMT 50.091064 -9.515027 34,000 134 452 0
2021-06-16 14:20:48 GMT 50.091064 -9.515027 34,000 132 454 0
2021-06-16 14:20:46 GMT 50.093887 -9.519876 34,000 134 452 0
2021-06-16 14:20:38 GMT 50.105896 -9.538373 34,000 139 448 0
2021-06-16 14:20:36 GMT 50.109192 -9.542782 34,000 140 446 0
2021-06-16 14:20:30 GMT 50.119816 -9.555953 34,000 144 443 0
2021-06-16 14:20:26 GMT 50.125492 -9.562262 34,000 147 440 0
2021-06-16 14:20:18 GMT 50.138809 -9.575019 34,000 151 436 0
2021-06-16 14:20:16 GMT 50.142906 -9.578519 34,000 153 435 0
2021-06-16 14:20:09 GMT 50.154694 -9.587306 34,000 159 431 0
2021-06-16 14:20:06 GMT 50.161339 -9.591510 34,000 160 429 0
2021-06-16 14:20:02 GMT 50.170898 -9.596774 34,000 163 428 0
2021-06-16 14:19:58 GMT 50.176563 -9.599378 34,000 165 425 0
2021-06-16 14:19:55 GMT 50.180923 -9.601183 34,000 167 425 0
2021-06-16 14:19:52 GMT 50.187241 -9.603496 34,000 176 420 0
2021-06-16 14:19:49 GMT 50.193604 -9.605303 34,000 176 420 0
2021-06-16 14:19:46 GMT 50.198776 -9.606604 34,000 175 420 0
2021-06-16 14:19:39 GMT 50.212688 -9.608583 34,000 181 418 0
2021-06-16 14:19:36 GMT 50.218693 -9.608806 34,000 181 417 0
2021-06-16 14:19:33 GMT 50.223301 -9.608806 34,000 183 416 0
2021-06-16 14:19:29 GMT 50.231960 -9.608212 34,000 190 414 0
2021-06-16 14:19:26 GMT 50.237869 -9.607327 34,000 188 414 0
2021-06-16 14:19:19 GMT 50.251839 -9.603907 34,000 195 413 0
2021-06-16 14:19:15 GMT 50.257416 -9.601979 34,000 195 413 0
2021-06-16 14:19:06 GMT 50.275673 -9.593217 34,000 202 413 0
2021-06-16 14:18:58 GMT 50.288773 -9.584487 34,000 208 413 0
2021-06-16 14:18:55 GMT 50.293030 -9.581090 34,000 209 414 0
2021-06-16 14:18:48 GMT 50.304768 -9.570502 34,000 215 415 0
2021-06-16 14:18:44 GMT 50.312073 -9.562804 34,000 217 416 0
2021-06-16 14:18:42 GMT 50.314682 -9.559768 34,000 219 416 0
2021-06-16 14:18:38 GMT 50.320862 -9.552106 34,000 222 417 0
2021-06-16 14:18:34 GMT 50.326042 -9.544966 34,000 224 418 0
2021-06-16 14:18:32 GMT 50.329021 -9.540587 34,000 226 420 0
2021-06-16 14:18:26 GMT 50.337215 -9.527373 34,000 230 422 0
2021-06-16 14:18:23 GMT 50.339912 -9.522548 34,000 230 422 0
2021-06-16 14:18:21 GMT 50.343498 -9.515793 34,000 233 422 0
2021-06-16 14:18:16 GMT 50.349106 -9.504041 34,000 238 427 0
2021-06-16 14:18:13 GMT 50.351349 -9.498982 34,000 238 427 0
2021-06-16 14:18:07 GMT 50.358353 -9.481129 34,000 242 429 0
2021-06-16 14:18:04 GMT 50.361603 -9.471588 34,000 244 432 0
2021-06-16 14:17:57 GMT 50.367233 -9.452218 34,000 249 436 0
2021-06-16 14:17:54 GMT 50.369614 -9.442897 34,000 252 438 0
2021-06-16 14:17:44 GMT 50.375481 -9.412759 34,000 258 445 0
2021-06-16 14:17:38 GMT 50.377808 -9.395166 34,000 260 447 0
2021-06-16 14:17:35 GMT 50.378952 -9.384276 34,000 264 451 0
2021-06-16 14:17:33 GMT 50.379250 -9.380097 34,000 266 453 0
2021-06-16 14:17:30 GMT 50.379948 -9.370002 34,000 267 454 0
2021-06-16 14:17:23 GMT 50.380646 -9.337078 34,000 273 460 0
2021-06-16 14:17:20 GMT 50.380646 -9.337078 34,000 273 460 0
2021-06-16 14:17:15 GMT 50.380051 -9.318791 34,000 276 464 0
2021-06-16 14:17:13 GMT 50.379730 -9.313154 34,000 277 465 0
2021-06-16 14:17:10 GMT 50.379017 -9.303119 34,000 279 467 0
2021-06-16 14:17:05 GMT 50.377064 -9.283744 34,000 281 470 0
2021-06-16 14:17:03 GMT 50.376617 -9.280050 34,000 282 471 0
2021-06-16 14:17:00 GMT 50.375385 -9.270086 34,000 282 471 0
2021-06-16 14:16:54 GMT 50.372547 -9.249078 34,000 282 472 0
2021-06-16 14:16:52 GMT 50.371307 -9.239719 34,000 282 472 0
2021-06-16 14:16:49 GMT 50.370529 -9.234081 34,000 282 472 -64
2021-06-16 14:16:43 GMT 50.367661 -9.213075 34,000 282 472 0
2021-06-16 14:16:40 GMT 50.366169 -9.202089 34,000 282 472 0
2021-06-16 14:16:35 GMT 50.363754 -9.184426 34,000 283 472 0
2021-06-16 14:16:33 GMT 50.363022 -9.179077 34,000 283 472 0
2021-06-16 14:16:29 GMT 50.361374 -9.167126 34,000 283 472 0
2021-06-16 14:16:25 GMT 50.359138 -9.150795 34,000 283 472 0
2021-06-16 14:16:23 GMT 50.358490 -9.146118 34,000 283 472 0
2021-06-16 14:16:19 GMT 50.356857 -9.134093 34,000 283 473 0
2021-06-16 14:16:15 GMT 50.354507 -9.116701 34,000 283 473 0
2021-06-16 14:16:13 GMT 50.353867 -9.112075 34,000 283 473 0
2021-06-16 14:16:09 GMT 50.352249 -9.100391 34,000 283 473 0
2021-06-16 14:16:05 GMT 50.350067 -9.084320 34,000 283 474 0
2021-06-16 14:16:03 GMT 50.349270 -9.078641 34,000 283 474 0
2021-06-16 14:16:00 GMT 50.347828 -9.067878 34,000 283 474 0
2021-06-16 14:15:55 GMT 50.344803 -9.045796 34,000 283 475 0
2021-06-16 14:15:53 GMT 50.344803 -9.045796 34,000 283 475 0
2021-06-16 14:15:49 GMT 50.343174 -9.033731 34,000 283 475 0
2021-06-16 14:15:45 GMT 50.340008 -9.010942 34,000 283 475 0
2021-06-16 14:15:43 GMT 50.340008 -9.010942 34,000 283 475 0
2021-06-16 14:15:39 GMT 50.338531 -9.000188 34,000 283 475 0
2021-06-16 14:15:34 GMT 50.336048 -8.982066 34,000 283 475 0
2021-06-16 14:15:29 GMT 50.333771 -8.965639 34,000 283 475 0
2021-06-16 14:15:25 GMT 50.331482 -8.949232 34,000 283 475 0
2021-06-16 14:15:23 GMT 50.330841 -8.944533 34,000 283 477 0
2021-06-16 14:15:19 GMT 50.329102 -8.931812 34,000 283 475 0
2021-06-16 14:15:15 GMT 50.326813 -8.915333 34,000 283 475 0
2021-06-16 14:15:13 GMT 50.326042 -8.909986 34,000 283 475 0
2021-06-16 14:15:09 GMT 50.324318 -8.897590 34,000 283 475 0
2021-06-16 14:15:04 GMT 50.322037 -8.881184 34,000 283 475 0
2021-06-16 14:15:02 GMT 50.321247 -8.875468 34,000 283 475 0
2021-06-16 14:14:59 GMT 50.319717 -8.864377 34,000 283 476 0
2021-06-16 14:14:54 GMT 50.317196 -8.846592 34,000 283 476 0
2021-06-16 14:14:52 GMT 50.315735 -8.835827 34,000 283 477 0
2021-06-16 14:14:49 GMT 50.315002 -8.830839 34,000 283 477 0
2021-06-16 14:14:44 GMT 50.312447 -8.812371 34,000 283 477 0
2021-06-16 14:14:41 GMT 50.311111 -8.802940 34,000 283 477 0
2021-06-16 14:14:38 GMT 50.310104 -8.795568 34,000 283 477 0
2021-06-16 14:14:34 GMT 50.307083 -8.774101 34,000 283 476 0
2021-06-16 14:14:29 GMT 50.305527 -8.763042 34,000 283 476 0
2021-06-16 14:14:24 GMT 50.303043 -8.745266 34,000 283 476 0
2021-06-16 14:14:18 GMT 50.300629 -8.727770 34,000 283 476 0
2021-06-16 14:14:14 GMT 50.298531 -8.713049 34,000 283 476 0
2021-06-16 14:14:12 GMT 50.297737 -8.707333 34,000 283 476 0
2021-06-16 14:14:07 GMT 50.295593 -8.691920 34,000 283 476 0
2021-06-16 14:14:04 GMT 50.293900 -8.680211 34,000 283 476 0
2021-06-16 14:14:02 GMT 50.292938 -8.673200 34,000 283 476 0
2021-06-16 14:13:58 GMT 50.291126 -8.660493 34,000 283 476 0
2021-06-16 14:13:54 GMT 50.288986 -8.645053 34,000 283 476 0
2021-06-16 14:13:52 GMT 50.288101 -8.639040 34,000 283 476 0
2021-06-16 14:13:47 GMT 50.285934 -8.623617 34,000 283 476 0
2021-06-16 14:13:44 GMT 50.284515 -8.613578 34,000 283 476 0
2021-06-16 14:13:42 GMT 50.283279 -8.604825 34,000 283 476 0
2021-06-16 14:13:38 GMT 50.279480 -8.578082 34,000 283 476 0
2021-06-16 14:13:34 GMT 50.279480 -8.578082 34,000 283 476 0
2021-06-16 14:13:32 GMT 50.278519 -8.570998 34,000 283 476 0
2021-06-16 14:13:28 GMT 50.276871 -8.559651 34,000 283 476 0
2021-06-16 14:13:24 GMT 50.274811 -8.544906 34,000 283 476 0
2021-06-16 14:13:22 GMT 50.273804 -8.537895 34,000 283 476 0
2021-06-16 14:13:17 GMT 50.271652 -8.522789 34,000 283 476 0
2021-06-16 14:13:14 GMT 50.270004 -8.511079 34,000 283 476 0
2021-06-16 14:13:11 GMT 50.268738 -8.502379 34,000 283 476 0
2021-06-16 14:13:07 GMT 50.266781 -8.488646 34,000 283 476 0
2021-06-16 14:13:04 GMT 50.265198 -8.477253 34,000 283 476 0
2021-06-16 14:13:01 GMT 50.264126 -8.469939 34,000 283 476 0
2021-06-16 14:12:57 GMT 50.261986 -8.454870 34,000 283 475 0
2021-06-16 14:12:54 GMT 50.260254 -8.442849 34,000 283 475 0
2021-06-16 14:12:52 GMT 50.259472 -8.437500 34,000 283 475 0
2021-06-16 14:12:47 GMT 50.257187 -8.421454 34,000 283 475 0
2021-06-16 14:12:44 GMT 50.255630 -8.410396 34,000 283 475 0
2021-06-16 14:12:41 GMT 50.254349 -8.401722 34,000 283 475 0
2021-06-16 14:12:36 GMT 50.252151 -8.386327 34,000 283 475 0
2021-06-16 14:12:34 GMT 50.250824 -8.377003 34,000 283 475 0
2021-06-16 14:12:31 GMT 50.249836 -8.370320 34,000 283 474 0
2021-06-16 14:12:27 GMT 50.247787 -8.355993 34,000 283 474 0
2021-06-16 14:12:24 GMT 50.246063 -8.343972 34,000 283 474 0
2021-06-16 14:12:21 GMT 50.245056 -8.336961 34,000 283 474 0
2021-06-16 14:12:16 GMT 50.242435 -8.318952 34,000 283 474 0
2021-06-16 14:12:14 GMT 50.241177 -8.309970 34,000 283 474 0
2021-06-16 14:12:12 GMT 50.240154 -8.302992 34,000 283 473 0
2021-06-16 14:12:06 GMT 50.237453 -8.284359 34,000 283 473 0
2021-06-16 14:12:03 GMT 50.236290 -8.276342 34,000 283 473 0
2021-06-16 14:12:01 GMT 50.235264 -8.269365 34,000 283 473 0
2021-06-16 14:11:55 GMT 50.232147 -8.247763 34,000 283 472 0
2021-06-16 14:11:53 GMT 50.231369 -8.242493 34,000 283 472 0
2021-06-16 14:11:51 GMT 50.230408 -8.235843 34,000 283 472 0
2021-06-16 14:11:47 GMT 50.228394 -8.221893 34,000 283 472 0
2021-06-16 14:11:43 GMT 50.226746 -8.210647 34,000 283 472 0
2021-06-16 14:11:41 GMT 50.225536 -8.202333 34,000 283 471 0
2021-06-16 14:11:37 GMT 50.223579 -8.188749 34,000 283 471 0
2021-06-16 14:11:34 GMT 50.221939 -8.177514 34,000 283 471 0
2021-06-16 14:11:31 GMT 50.220703 -8.169202 34,000 283 471 0
2021-06-16 14:11:27 GMT 50.218643 -8.154963 34,000 283 471 0
2021-06-16 14:11:24 GMT 50.215202 -8.131516 34,000 283 471 0
2021-06-16 14:11:20 GMT 50.215202 -8.131516 34,000 283 471 0
2021-06-16 14:11:16 GMT 50.213654 -8.120920 34,000 283 471 0
2021-06-16 14:11:13 GMT 50.212189 -8.110657 34,000 283 471 0
2021-06-16 14:11:10 GMT 50.210873 -8.101749 34,000 283 471 0
2021-06-16 14:11:06 GMT 50.208710 -8.086805 34,000 283 471 0
2021-06-16 14:11:03 GMT 50.207241 -8.076881 34,000 283 471 0
2021-06-16 14:11:01 GMT 50.205963 -8.068302 34,000 283 472 0
2021-06-16 14:10:56 GMT 50.203934 -8.054463 34,000 283 471 0
2021-06-16 14:10:53 GMT 50.202400 -8.044219 34,000 283 471 0
2021-06-16 14:10:49 GMT 50.200378 -8.030283 34,000 284 471 0
2021-06-16 14:10:46 GMT 50.198906 -8.020391 34,000 284 471 0
2021-06-16 14:10:43 GMT 50.197449 -8.010479 34,000 283 470 0
2021-06-16 14:10:37 GMT 50.194565 -7.990964 34,000 283 470 0
2021-06-16 14:10:35 GMT 50.193649 -7.984748 34,000 284 471 0
2021-06-16 14:10:32 GMT 50.192413 -7.976436 34,000 284 471 0
2021-06-16 14:10:28 GMT 50.190536 -7.963570 34,000 284 471 0
2021-06-16 14:10:26 GMT 50.189026 -7.953379 34,000 283 470 0
2021-06-16 14:10:23 GMT 50.187790 -7.945067 34,000 283 470 0
2021-06-16 14:10:20 GMT 50.186096 -7.933502 34,000 283 472 0
2021-06-16 14:10:17 GMT 50.184662 -7.923592 34,000 283 472 0
2021-06-16 14:10:14 GMT 50.182892 -7.911746 34,000 283 472 0
2021-06-16 14:10:10 GMT 50.180878 -7.898158 34,000 284 471 0
2021-06-16 14:10:06 GMT 50.179214 -7.886922 34,000 284 471 0
2021-06-16 14:10:03 GMT 50.178085 -7.879366 34,000 284 471 0
2021-06-16 14:10:00 GMT 50.176563 -7.868809 34,000 284 471 0
2021-06-16 14:09:57 GMT 50.174793 -7.856932 34,000 284 471 0
2021-06-16 14:09:53 GMT 50.173141 -7.845684 34,000 284 471 0
2021-06-16 14:09:49 GMT 50.170898 -7.830794 34,000 284 471 0
2021-06-16 14:09:46 GMT 50.169846 -7.823567 34,000 284 471 0
2021-06-16 14:09:43 GMT 50.167995 -7.811354 34,000 284 471 0
2021-06-16 14:09:40 GMT 50.166687 -7.802461 34,000 284 471 0
2021-06-16 14:09:35 GMT 50.164459 -7.787599 34,000 284 472 0
2021-06-16 14:09:32 GMT 50.162922 -7.777355 34,000 284 472 -64
2021-06-16 14:09:30 GMT 50.161560 -7.768057 34,000 284 472 0
2021-06-16 14:09:23 GMT 50.158173 -7.745578 34,000 284 472 0
2021-06-16 14:09:20 GMT 50.156937 -7.737338 34,000 284 472 0
2021-06-16 14:09:13 GMT 50.153275 -7.712836 34,000 284 473 0
2021-06-16 14:09:10 GMT 50.151749 -7.702901 34,000 284 473 0
2021-06-16 14:09:05 GMT 50.149467 -7.687683 34,000 284 473 0
2021-06-16 14:09:02 GMT 50.147747 -7.676103 34,000 284 473 0
2021-06-16 14:09:00 GMT 50.146816 -7.670090 34,000 284 473 0
2021-06-16 14:08:56 GMT 50.144485 -7.654580 34,000 284 473 0
2021-06-16 14:08:53 GMT 50.143295 -7.646629 34,000 284 473 0
2021-06-16 14:08:49 GMT 50.141506 -7.634681 34,000 284 473 0
2021-06-16 14:08:43 GMT 50.138168 -7.612513 34,000 284 473 0
2021-06-16 14:08:40 GMT 50.136703 -7.602900 34,000 284 473 0
2021-06-16 14:08:33 GMT 50.133175 -7.579379 34,000 284 473 0
2021-06-16 14:08:31 GMT 50.132172 -7.572760 34,000 284 473 0
2021-06-16 14:08:28 GMT 50.130844 -7.564159 34,000 284 473 0
2021-06-16 14:08:22 GMT 50.127590 -7.542634 34,000 284 473 0
2021-06-16 14:08:20 GMT 50.126770 -7.537344 34,000 284 473 0
2021-06-16 14:08:16 GMT 50.124657 -7.523408 34,000 284 474 0
2021-06-16 14:08:13 GMT 50.122971 -7.512191 34,000 284 474 0
2021-06-16 14:08:11 GMT 50.122143 -7.506854 34,000 284 474 -64
2021-06-16 14:08:09 GMT 50.121506 -7.502578 34,000 284 474 0
2021-06-16 14:07:59 GMT 50.114182 -7.454440 34,000 284 474 0
2021-06-16 14:07:53 GMT 50.112881 -7.445835 34,000 284 474 0
2021-06-16 14:07:51 GMT 50.111809 -7.438932 34,000 284 474 0
2021-06-16 14:07:47 GMT 50.110039 -7.427277 34,000 284 474 0
2021-06-16 14:07:43 GMT 50.107849 -7.413025 34,000 284 474 0
2021-06-16 14:07:41 GMT 50.106720 -7.405797 34,000 284 473 0
2021-06-16 14:07:39 GMT 50.106174 -7.402113 34,000 284 473 0
2021-06-16 14:07:33 GMT 50.102829 -7.380572 34,000 284 474 0
2021-06-16 14:07:29 GMT 50.101044 -7.369007 34,000 284 474 0
2021-06-16 14:07:23 GMT 50.097610 -7.346456 34,000 284 475 0
2021-06-16 14:07:21 GMT 50.096680 -7.340500 34,000 284 475 0
2021-06-16 14:07:18 GMT 50.095608 -7.333522 34,000 284 475 0
2021-06-16 14:07:13 GMT 50.092438 -7.312919 34,000 284 475 0
2021-06-16 14:07:10 GMT 50.091232 -7.305017 34,000 284 475 0
2021-06-16 14:07:07 GMT 50.089417 -7.293363 34,000 284 476 0
2021-06-16 14:07:03 GMT 50.087402 -7.280105 34,000 284 476 0
2021-06-16 14:06:59 GMT 50.085617 -7.268468 34,000 284 476 0
2021-06-16 14:06:56 GMT 50.084297 -7.259810 34,000 284 476 0
2021-06-16 14:06:53 GMT 50.082386 -7.247562 34,000 284 476 0
2021-06-16 14:06:50 GMT 50.081318 -7.240584 34,000 284 476 0
2021-06-16 14:06:46 GMT 50.078987 -7.225589 34,000 284 476 64
2021-06-16 14:06:42 GMT 50.077080 -7.213267 34,000 284 477 0
2021-06-16 14:06:39 GMT 50.075363 -7.201972 34,000 284 477 0
2021-06-16 14:06:35 GMT 50.073853 -7.192359 34,000 284 477 0
2021-06-16 14:06:32 GMT 50.071678 -7.178378 34,000 284 477 0
2021-06-16 14:06:30 GMT 50.070984 -7.173701 34,000 284 477 0
2021-06-16 14:06:28 GMT 50.070004 -7.167391 34,000 284 477 0
2021-06-16 14:06:22 GMT 50.065796 -7.140463 34,000 284 477 0
2021-06-16 14:06:20 GMT 50.065796 -7.140463 34,000 284 477 0
2021-06-16 14:06:18 GMT 50.064697 -7.133452 34,000 284 477 0
2021-06-16 14:06:15 GMT 50.063187 -7.123766 34,000 284 478 0
2021-06-16 14:06:12 GMT 50.061722 -7.114443 34,000 284 478 64
2021-06-16 14:06:10 GMT 50.060440 -7.106130 34,000 284 478 0
2021-06-16 14:06:08 GMT 50.059433 -7.099770 34,000 284 478 0
2021-06-16 14:06:02 GMT 50.056412 -7.080392 34,000 284 479 0
2021-06-16 14:05:58 GMT 50.054260 -7.066739 34,000 284 479 0
2021-06-16 14:05:52 GMT 50.051010 -7.045995 34,000 284 479 0
2021-06-16 14:05:50 GMT 50.049938 -7.038970 34,000 284 479 0
2021-06-16 14:05:48 GMT 50.048962 -7.032660 34,000 284 479 -64
2021-06-16 14:05:42 GMT 50.045883 -7.012964 34,000 284 479 0
2021-06-16 14:05:40 GMT 50.044830 -7.006242 34,000 284 479 0
2021-06-16 14:05:37 GMT 50.043468 -6.997623 34,000 284 478 0
2021-06-16 14:05:33 GMT 50.040848 -6.980872 34,000 284 478 0
2021-06-16 14:05:30 GMT 50.039520 -6.972560 34,000 284 478 0
2021-06-16 14:05:28 GMT 50.038536 -6.966223 34,000 284 478 0
2021-06-16 14:05:23 GMT 50.035416 -6.946254 34,000 284 478 0
2021-06-16 14:05:20 GMT 50.034256 -6.938878 34,000 284 478 0
2021-06-16 14:05:18 GMT 50.033020 -6.931217 34,000 284 478 0
2021-06-16 14:05:12 GMT 50.030201 -6.913221 34,000 284 478 64
2021-06-16 14:05:10 GMT 50.028992 -6.905575 34,000 284 478 64
2021-06-16 14:05:07 GMT 50.027710 -6.897607 34,000 284 478 0
2021-06-16 14:05:02 GMT 50.024895 -6.879594 34,000 284 477 0
2021-06-16 14:05:00 GMT 50.023727 -6.872310 34,000 284 477 0
2021-06-16 14:04:57 GMT 50.022381 -6.863634 34,000 284 477 0
2021-06-16 14:04:52 GMT 50.019562 -6.845711 34,000 284 477 0
2021-06-16 14:04:50 GMT 50.018612 -6.839732 34,000 284 477 0
2021-06-16 14:04:48 GMT 50.017307 -6.831418 34,000 284 476 0
2021-06-16 14:04:42 GMT 50.014435 -6.813475 34,000 284 476 0
2021-06-16 14:04:40 GMT 50.013210 -6.805511 34,000 284 476 0
2021-06-16 14:04:37 GMT 50.011917 -6.797574 34,000 284 476 0
2021-06-16 14:04:32 GMT 50.007935 -6.772421 34,000 284 475 0
2021-06-16 14:04:30 GMT 50.007935 -6.772421 34,000 284 475 0
2021-06-16 14:04:27 GMT 50.006424 -6.762808 34,000 284 475 0
2021-06-16 14:04:22 GMT 50.003540 -6.744594 34,000 284 475 0
2021-06-16 14:04:19 GMT 50.002213 -6.736282 34,000 284 475 0
2021-06-16 14:04:17 GMT 50.000885 -6.728042 34,000 284 475 0
2021-06-16 14:04:12 GMT 49.998505 -6.713152 34,000 284 475 0
2021-06-16 14:04:10 GMT 49.997337 -6.705891 34,000 284 476 0
2021-06-16 14:04:07 GMT 49.995667 -6.695300 34,000 284 476 0
2021-06-16 14:04:02 GMT 49.993240 -6.680133 34,000 284 476 0
2021-06-16 14:04:00 GMT 49.992123 -6.673155 34,000 284 476 0
2021-06-16 14:03:56 GMT 49.990166 -6.660907 34,000 284 476 0
2021-06-16 14:03:52 GMT 49.987980 -6.647397 34,000 284 476 0
2021-06-16 14:03:50 GMT 49.986603 -6.638778 34,000 284 476 0
2021-06-16 14:03:47 GMT 49.985001 -6.628839 34,000 284 476 0
2021-06-16 14:03:42 GMT 49.982437 -6.612974 34,000 284 476 0
2021-06-16 14:03:39 GMT 49.981018 -6.604012 34,000 284 476 0
2021-06-16 14:03:36 GMT 49.979507 -6.594766 34,000 285 476 0
2021-06-16 14:03:32 GMT 49.975891 -6.572209 34,000 285 476 0
2021-06-16 14:03:29 GMT 49.975891 -6.572209 34,000 285 476 0
2021-06-16 14:03:26 GMT 49.973873 -6.559654 34,000 285 476 0
2021-06-16 14:03:22 GMT 49.971313 -6.543769 34,000 285 477 0
2021-06-16 14:03:19 GMT 49.970428 -6.538498 34,000 285 477 0
2021-06-16 14:03:16 GMT 49.968567 -6.526918 34,000 285 477 0
2021-06-16 14:03:11 GMT 49.966187 -6.512291 34,000 285 477 0
2021-06-16 14:03:09 GMT 49.964859 -6.504051 34,000 285 477 0
2021-06-16 14:03:06 GMT 49.963120 -6.493426 34,000 285 476 0
2021-06-16 14:03:02 GMT 49.961166 -6.481562 34,000 285 477 0
2021-06-16 14:03:00 GMT 49.959721 -6.472580 34,000 285 476 0
2021-06-16 14:02:56 GMT 49.957489 -6.458660 34,000 285 476 0
2021-06-16 14:02:52 GMT 49.955795 -6.448469 34,000 285 476 0
2021-06-16 14:02:49 GMT 49.954330 -6.439145 34,000 285 476 0
2021-06-16 14:02:45 GMT 49.952225 -6.426279 34,000 285 477 0
2021-06-16 14:02:42 GMT 49.948967 -6.406069 34,000 285 477 0
2021-06-16 14:02:39 GMT 49.948967 -6.406069 34,000 285 477 0
2021-06-16 14:02:35 GMT 49.946686 -6.392164 34,000 285 476 0
2021-06-16 14:02:32 GMT 49.943253 -6.370986 34,000 285 477 0
2021-06-16 14:02:29 GMT 49.943253 -6.370986 34,000 285 477 0
2021-06-16 14:02:26 GMT 49.941879 -6.362385 34,000 285 476 0
2021-06-16 14:02:22 GMT 49.939564 -6.348168 34,000 285 476 0
2021-06-16 14:02:19 GMT 49.938171 -6.339545 34,000 285 476 0
2021-06-16 14:02:16 GMT 49.936523 -6.329643 34,000 285 476 0
2021-06-16 14:02:12 GMT 49.934189 -6.315115 34,000 285 476 0
2021-06-16 14:02:09 GMT 49.932495 -6.304851 34,000 285 476 0
2021-06-16 14:02:05 GMT 49.930069 -6.289962 34,000 285 476 0
2021-06-16 14:02:02 GMT 49.928719 -6.281730 34,000 285 476 0
2021-06-16 14:01:59 GMT 49.927322 -6.273121 34,000 285 476 0
2021-06-16 14:01:52 GMT 49.923225 -6.248326 34,000 285 476 0
2021-06-16 14:01:48 GMT 49.917801 -6.215298 34,000 285 476 0
2021-06-16 14:01:42 GMT 49.917801 -6.215298 34,000 285 476 0
2021-06-16 14:01:39 GMT 49.916382 -6.206682 34,000 285 477 0
2021-06-16 14:01:35 GMT 49.914551 -6.195494 34,000 285 477 0
2021-06-16 14:01:32 GMT 49.912331 -6.182259 34,000 285 477 0
2021-06-16 14:01:29 GMT 49.910748 -6.172609 34,000 285 478 0
2021-06-16 14:01:25 GMT 49.908783 -6.160728 34,000 285 479 0
2021-06-16 14:01:22 GMT 49.906998 -6.149814 34,000 285 478 0
2021-06-16 14:01:19 GMT 49.905075 -6.138177 34,000 285 478 0
2021-06-16 14:01:14 GMT 49.902325 -6.121612 34,000 285 478 0
2021-06-16 14:01:11 GMT 49.901230 -6.114976 34,000 285 479 0
2021-06-16 14:01:08 GMT 49.899445 -6.104062 34,000 285 478 0
2021-06-16 14:01:04 GMT 49.897343 -6.091399 34,000 285 479 0
2021-06-16 14:01:01 GMT 49.895527 -6.080487 34,000 285 479 0
2021-06-16 14:00:58 GMT 49.893944 -6.070837 34,000 285 479 0
2021-06-16 14:00:55 GMT 49.892548 -6.062226 34,000 285 479 0
2021-06-16 14:00:51 GMT 49.890358 -6.049236 34,000 285 479 0
2021-06-16 14:00:49 GMT 49.889191 -6.041975 34,000 285 479 0
2021-06-16 14:00:47 GMT 49.888046 -6.035325 34,000 285 479 0
2021-06-16 14:00:44 GMT 49.886353 -6.025061 34,000 285 478 0
2021-06-16 14:00:40 GMT 49.884659 -6.014798 34,000 285 478 0
2021-06-16 14:00:38 GMT 49.882957 -6.004845 34,000 285 478 -64
2021-06-16 14:00:35 GMT 49.881142 -5.993933 34,000 285 478 -64
2021-06-16 14:00:31 GMT 49.879166 -5.982056 34,000 285 478 0
2021-06-16 14:00:29 GMT 49.878117 -5.975746 34,000 285 478 0
2021-06-16 14:00:27 GMT 49.877014 -5.969118 34,000 285 478 0
2021-06-16 14:00:24 GMT 49.875557 -5.960528 34,000 285 478 0
2021-06-16 14:00:21 GMT 49.873787 -5.949987 34,000 285 478 0
2021-06-16 14:00:18 GMT 49.870056 -5.927485 34,000 285 478 0
2021-06-16 14:00:14 GMT 49.870056 -5.927485 34,000 285 478 0
2021-06-16 14:00:11 GMT 49.868061 -5.915618 34,000 285 478 0
2021-06-16 14:00:09 GMT 49.866665 -5.907304 34,000 285 478 0
2021-06-16 14:00:06 GMT 49.865616 -5.901031 34,000 285 478 0
2021-06-16 14:00:01 GMT 49.862659 -5.883550 34,000 285 478 0
2021-06-16 13:59:58 GMT 49.860992 -5.873638 34,000 285 478 0
2021-06-16 13:59:55 GMT 49.858612 -5.859399 34,000 285 478 0
2021-06-16 13:59:51 GMT 49.857262 -5.851111 34,000 285 478 0
2021-06-16 13:59:49 GMT 49.855865 -5.842871 34,000 285 478 0
2021-06-16 13:59:47 GMT 49.854767 -5.836270 34,000 285 477 0
2021-06-16 13:59:44 GMT 49.853119 -5.826688 34,000 285 477 0
2021-06-16 13:59:41 GMT 49.851536 -5.817112 34,000 285 477 0
2021-06-16 13:59:39 GMT 49.850327 -5.809816 34,000 285 477 0
2021-06-16 13:59:37 GMT 49.849113 -5.802934 34,000 285 477 0
2021-06-16 13:59:34 GMT 49.847443 -5.792975 34,000 285 478 0
2021-06-16 13:59:31 GMT 49.845901 -5.783782 34,000 285 477 0
2021-06-16 13:59:29 GMT 49.844505 -5.775542 34,000 285 477 0
2021-06-16 13:59:27 GMT 49.843155 -5.767600 34,000 285 477 0
2021-06-16 13:59:21 GMT 49.840267 -5.750452 34,000 285 477 0
2021-06-16 13:59:19 GMT 49.837463 -5.733924 34,000 285 478 0
2021-06-16 13:59:16 GMT 49.837463 -5.733924 34,000 285 478 0
2021-06-16 13:59:11 GMT 49.834671 -5.717444 34,000 285 478 0
2021-06-16 13:59:09 GMT 49.833435 -5.710144 34,000 285 478 0
2021-06-16 13:59:06 GMT 49.831982 -5.701607 34,000 285 478 0
2021-06-16 13:59:01 GMT 49.828949 -5.683762 34,000 285 478 0
2021-06-16 13:58:59 GMT 49.827747 -5.676517 34,000 285 478 0
2021-06-16 13:58:57 GMT 49.826397 -5.668574 34,000 285 478 0
2021-06-16 13:58:51 GMT 49.823502 -5.651382 34,000 285 478 0
2021-06-16 13:58:49 GMT 49.822254 -5.644152 34,000 285 478 0
2021-06-16 13:58:46 GMT 49.820572 -5.634252 34,000 285 477 0
2021-06-16 13:58:41 GMT 49.817688 -5.617411 34,000 285 477 0
2021-06-16 13:58:39 GMT 49.816544 -5.610472 34,000 285 477 0
2021-06-16 13:58:36 GMT 49.814991 -5.601543 34,000 285 477 0
2021-06-16 13:58:31 GMT 49.812378 -5.586042 34,000 285 477 0
2021-06-16 13:58:29 GMT 49.811005 -5.578164 34,000 285 477 0
2021-06-16 13:58:26 GMT 49.809544 -5.569623 34,000 285 477 0
2021-06-16 13:58:21 GMT 49.806610 -5.552505 34,000 285 477 0
2021-06-16 13:58:19 GMT 49.805099 -5.543614 34,000 285 477 0
2021-06-16 13:58:16 GMT 49.800980 -5.519546 34,000 285 477 0
2021-06-16 13:58:11 GMT 49.800980 -5.519546 34,000 285 476 0
2021-06-16 13:58:08 GMT 49.799194 -5.508993 34,000 285 476 0
2021-06-16 13:58:05 GMT 49.797485 -5.499177 34,000 285 476 0
2021-06-16 13:58:01 GMT 49.795254 -5.485964 34,000 285 477 0
2021-06-16 13:57:58 GMT 49.793564 -5.476106 34,000 286 478 0
2021-06-16 13:57:55 GMT 49.791779 -5.465915 34,000 285 477 0
2021-06-16 13:57:51 GMT 49.789490 -5.452399 34,000 285 477 0
2021-06-16 13:57:48 GMT 49.788300 -5.445533 34,000 285 477 0
2021-06-16 13:57:46 GMT 49.786560 -5.435630 34,000 285 477 -64
2021-06-16 13:57:41 GMT 49.783722 -5.419223 34,000 285 478 64
2021-06-16 13:57:38 GMT 49.780773 -5.402081 34,000 285 478 0
2021-06-16 13:57:36 GMT 49.780773 -5.402081 34,000 285 478 0
2021-06-16 13:57:31 GMT 49.778076 -5.386270 34,000 285 478 0
2021-06-16 13:57:29 GMT 49.776913 -5.379663 34,000 286 478 0
2021-06-16 13:57:27 GMT 49.776398 -5.376723 34,000 286 478 0
2021-06-16 13:57:24 GMT 49.772507 -5.354317 34,000 286 478 0
2021-06-16 13:57:21 GMT 49.770813 -5.344477 34,000 286 478 0
2021-06-16 13:57:18 GMT 49.769211 -5.335236 34,000 286 478 0
2021-06-16 13:57:15 GMT 49.769211 -5.335236 34,000 285 478 0
2021-06-16 13:57:12 GMT 49.767609 -5.325984 34,000 286 478 0
2021-06-16 13:57:09 GMT 49.766342 -5.318719 34,000 286 478 0
2021-06-16 13:57:07 GMT 49.764862 -5.310155 34,000 285 478 0
2021-06-16 13:57:04 GMT 49.762756 -5.298012 34,000 285 477 0
2021-06-16 13:57:01 GMT 49.761017 -5.287821 34,000 286 477 0
2021-06-16 13:56:58 GMT 49.759415 -5.278642 34,000 286 477 0
2021-06-16 13:56:55 GMT 49.757687 -5.268761 34,000 286 477 0
2021-06-16 13:56:52 GMT 49.756058 -5.259259 34,000 286 477 0
2021-06-16 13:56:49 GMT 49.754837 -5.252332 34,000 286 477 0
2021-06-16 13:56:46 GMT 49.750095 -5.225409 34,000 286 477 -64
2021-06-16 13:56:43 GMT 49.750095 -5.225409 34,000 286 477 -64
2021-06-16 13:56:40 GMT 49.749306 -5.220807 34,000 286 477 0
2021-06-16 13:56:38 GMT 49.748199 -5.214603 34,000 286 477 0
2021-06-16 13:56:35 GMT 49.746094 -5.202398 34,000 286 477 0
2021-06-16 13:56:31 GMT 49.743858 -5.189630 34,000 286 477 0
2021-06-16 13:56:28 GMT 49.741905 -5.178421 34,000 286 477 0
2021-06-16 13:56:24 GMT 49.740135 -5.168622 34,000 286 477 0
2021-06-16 13:56:21 GMT 49.737854 -5.155483 34,000 286 477 0
2021-06-16 13:56:18 GMT 49.736549 -5.147911 34,000 286 477 0
2021-06-16 13:56:15 GMT 49.734467 -5.136108 34,000 286 477 0
2021-06-16 13:56:12 GMT 49.733059 -5.128240 34,000 286 477 0
2021-06-16 13:56:10 GMT 49.731617 -5.120000 34,000 286 477 0
2021-06-16 13:56:08 GMT 49.729939 -5.110498 34,000 286 477 0
2021-06-16 13:56:05 GMT 49.729149 -5.105896 34,000 286 477 0
2021-06-16 13:56:02 GMT 49.726311 -5.089862 34,000 286 477 0
2021-06-16 13:56:00 GMT 49.726311 -5.089862 34,000 286 477 0
2021-06-16 13:55:57 GMT 49.723099 -5.071452 34,000 286 477 0
2021-06-16 13:55:55 GMT 49.723099 -5.071452 34,000 286 477 0
2021-06-16 13:55:52 GMT 49.721279 -5.061283 34,000 286 477 0
2021-06-16 13:55:50 GMT 49.720348 -5.056012 34,000 286 477 0
2021-06-16 13:55:48 GMT 49.718994 -5.048145 34,000 286 477 0
2021-06-16 13:55:45 GMT 49.717232 -5.038271 34,000 286 477 0
2021-06-16 13:55:42 GMT 49.715462 -5.028101 34,000 286 477 0
2021-06-16 13:55:40 GMT 49.714531 -5.022905 34,000 286 477 0
2021-06-16 13:55:38 GMT 49.713322 -5.016001 34,000 286 477 0
2021-06-16 13:55:35 GMT 49.711853 -5.007742 34,000 286 477 0
2021-06-16 13:55:32 GMT 49.709782 -4.995958 34,000 286 477 0
2021-06-16 13:55:30 GMT 49.708527 -4.989055 34,000 286 477 0
2021-06-16 13:55:28 GMT 49.707130 -4.981186 34,000 286 477 0
2021-06-16 13:55:25 GMT 49.705856 -4.973916 34,000 286 478 0
2021-06-16 13:55:22 GMT 49.703842 -4.962423 34,000 286 478 0
2021-06-16 13:55:20 GMT 49.702972 -4.957508 34,000 286 478 0
2021-06-16 13:55:18 GMT 49.699997 -4.940740 34,000 286 479 0
2021-06-16 13:55:15 GMT 49.699997 -4.940740 34,000 286 479 0
2021-06-16 13:55:12 GMT 49.697113 -4.924622 34,000 286 480 0
2021-06-16 13:55:10 GMT 49.695648 -4.916382 34,000 286 480 0
2021-06-16 13:55:08 GMT 49.695648 -4.916382 34,000 286 480 0
2021-06-16 13:55:05 GMT 49.693676 -4.905173 34,000 286 480 0
2021-06-16 13:55:02 GMT 49.692261 -4.897300 34,000 286 480 0
2021-06-16 13:55:00 GMT 49.691116 -4.891069 34,000 286 481 0
2021-06-16 13:54:58 GMT 49.689903 -4.884091 34,000 286 481 0
2021-06-16 13:54:56 GMT 49.688553 -4.876484 34,000 286 481 0
2021-06-16 13:54:53 GMT 49.687019 -4.867908 34,000 286 481 0
2021-06-16 13:54:50 GMT 49.685211 -4.857692 34,000 286 481 0
2021-06-16 13:54:47 GMT 49.683746 -4.849452 34,000 286 481 0
2021-06-16 13:54:45 GMT 49.682281 -4.841212 34,000 286 481 0
2021-06-16 13:54:42 GMT 49.680496 -4.831310 34,000 286 481 0
2021-06-16 13:54:39 GMT 49.677750 -4.815770 34,000 286 481 0
2021-06-16 13:54:37 GMT 49.677750 -4.815770 34,000 286 481 0
2021-06-16 13:54:35 GMT 49.676743 -4.810132 34,000 286 481 0
2021-06-16 13:54:32 GMT 49.673401 -4.791340 34,000 286 481 0
2021-06-16 13:54:30 GMT 49.672215 -4.784694 34,000 286 481 0
2021-06-16 13:54:28 GMT 49.672215 -4.784694 34,000 286 481 0
2021-06-16 13:54:25 GMT 49.670563 -4.775439 34,000 286 481 0
2021-06-16 13:54:22 GMT 49.668537 -4.763909 34,000 286 481 0
2021-06-16 13:54:20 GMT 49.666210 -4.750993 34,000 286 481 0
2021-06-16 13:54:17 GMT 49.666210 -4.750993 34,000 286 481 0
2021-06-16 13:54:15 GMT 49.664474 -4.741107 34,000 286 481 0
2021-06-16 13:54:12 GMT 49.661648 -4.725309 34,000 286 480 0
2021-06-16 13:54:10 GMT 49.659668 -4.714074 34,000 286 480 0
2021-06-16 13:54:07 GMT 49.658340 -4.706485 34,000 286 480 0
2021-06-16 13:54:04 GMT 49.658340 -4.706485 34,000 286 480 0
2021-06-16 13:54:01 GMT 49.656876 -4.698245 34,000 286 480 0
2021-06-16 13:53:59 GMT 49.655548 -4.690642 34,000 286 480 0
2021-06-16 13:53:57 GMT 49.654129 -4.682778 34,000 286 480 0
2021-06-16 13:53:54 GMT 49.652710 -4.674534 34,000 286 480 0
2021-06-16 13:53:51 GMT 49.650970 -4.664636 34,000 286 480 0
2021-06-16 13:53:48 GMT 49.648682 -4.651770 34,000 286 480 0
2021-06-16 13:53:46 GMT 49.647720 -4.646133 34,000 286 480 0
2021-06-16 13:53:43 GMT 49.645866 -4.635637 34,000 286 480 0
2021-06-16 13:53:39 GMT 49.643646 -4.623076 34,000 286 480 0
2021-06-16 13:53:37 GMT 49.642700 -4.617450 34,000 286 479 0
2021-06-16 13:53:34 GMT 49.639584 -4.599708 34,000 286 479 0
2021-06-16 13:53:31 GMT 49.639584 -4.599708 34,000 286 479 0
2021-06-16 13:53:29 GMT 49.638000 -4.590801 34,000 286 479 0
2021-06-16 13:53:27 GMT 49.635952 -4.578923 34,000 285 479 0
2021-06-16 13:53:22 GMT 49.634136 -4.568754 34,000 285 479 0
2021-06-16 13:53:20 GMT 49.632740 -4.560514 34,000 285 479 0
2021-06-16 13:53:18 GMT 49.631653 -4.554267 34,000 285 479 0
2021-06-16 13:53:16 GMT 49.630417 -4.547328 34,000 285 479 0
2021-06-16 13:53:13 GMT 49.628456 -4.536092 34,000 285 480 0
2021-06-16 13:53:10 GMT 49.625988 -4.521988 34,000 285 480 0
2021-06-16 13:53:06 GMT 49.623428 -4.507141 34,000 286 480 0
2021-06-16 13:53:03 GMT 49.623428 -4.507141 34,000 286 480 0
2021-06-16 13:53:00 GMT 49.621124 -4.493914 34,000 286 481 0
2021-06-16 13:52:57 GMT 49.619431 -4.484373 34,000 286 482 0
2021-06-16 13:52:54 GMT 49.617470 -4.473143 34,000 286 482 0
2021-06-16 13:52:50 GMT 49.615356 -4.461244 34,000 286 481 0
2021-06-16 13:52:47 GMT 49.613094 -4.448721 34,000 287 482 0
2021-06-16 13:52:43 GMT 49.609085 -4.427635 34,000 287 483 0
2021-06-16 13:52:40 GMT 49.609085 -4.427635 34,000 287 483 0
2021-06-16 13:52:37 GMT 49.607117 -4.417444 34,000 287 482 0
2021-06-16 13:52:34 GMT 49.605457 -4.408858 34,000 287 482 0
2021-06-16 13:52:31 GMT 49.603970 -4.400989 34,000 285 480 0
2021-06-16 13:52:27 GMT 49.599655 -4.376895 34,000 285 480 0
2021-06-16 13:52:24 GMT 49.599655 -4.376895 34,000 285 479 0
2021-06-16 13:52:21 GMT 49.597183 -4.361717 34,000 284 479 0
2021-06-16 13:52:19 GMT 49.597183 -4.361717 34,000 284 479 0
2021-06-16 13:52:16 GMT 49.595638 -4.352145 34,000 284 478 0
2021-06-16 13:52:14 GMT 49.594437 -4.344153 34,000 283 478 0
2021-06-16 13:52:11 GMT 49.593079 -4.334849 34,000 283 477 0
2021-06-16 13:52:09 GMT 49.592148 -4.328541 34,000 282 477 0
2021-06-16 13:52:07 GMT 49.590981 -4.319928 34,000 282 477 0
2021-06-16 13:52:04 GMT 49.588577 -4.301653 34,000 281 476 0
2021-06-16 13:52:01 GMT 49.587799 -4.295004 34,000 280 476 0
2021-06-16 13:51:59 GMT 49.587799 -4.295004 34,000 281 476 0
2021-06-16 13:51:57 GMT 49.586838 -4.287043 34,000 280 474 0
2021-06-16 13:51:54 GMT 49.585674 -4.276725 34,000 279 474 0
2021-06-16 13:51:51 GMT 49.583771 -4.257347 34,000 279 474 0
2021-06-16 13:51:48 GMT 49.583206 -4.251041 34,000 278 474 0
2021-06-16 13:51:46 GMT 49.583206 -4.251041 34,000 278 474 0
2021-06-16 13:51:43 GMT 49.582275 -4.240723 34,000 278 474 0
2021-06-16 13:51:40 GMT 49.581627 -4.233671 34,000 278 474 0
2021-06-16 13:51:38 GMT 49.580750 -4.223665 34,000 278 474 0
2021-06-16 13:51:35 GMT 49.579651 -4.211016 34,000 278 474 0
2021-06-16 13:51:32 GMT 49.578140 -4.194320 34,000 278 474 0
2021-06-16 13:51:29 GMT 49.578140 -4.194320 34,000 278 474 0
2021-06-16 13:51:26 GMT 49.577389 -4.186014 34,000 278 474 0
2021-06-16 13:51:23 GMT 49.576363 -4.174285 34,000 278 474 0
2021-06-16 13:51:20 GMT 49.575394 -4.163602 34,000 278 474 0
2021-06-16 13:51:17 GMT 49.574501 -4.153649 34,000 278 474 0
2021-06-16 13:51:15 GMT 49.572918 -4.135907 34,000 278 474 0
2021-06-16 13:51:12 GMT 49.572918 -4.135907 34,000 278 474 0
2021-06-16 13:51:09 GMT 49.572083 -4.126925 34,000 278 474 0
2021-06-16 13:51:07 GMT 49.571594 -4.121246 34,000 278 474 0
2021-06-16 13:51:04 GMT 49.570679 -4.110911 34,000 278 474 0
2021-06-16 13:51:01 GMT 49.568775 -4.089883 34,000 278 474 0
2021-06-16 13:50:58 GMT 49.568775 -4.089883 34,000 278 474 0
2021-06-16 13:50:56 GMT 49.568344 -4.084890 34,000 278 474 0
2021-06-16 13:50:54 GMT 49.567566 -4.076578 34,000 278 474 0
2021-06-16 13:50:51 GMT 49.566681 -4.066575 34,000 278 474 0
2021-06-16 13:50:48 GMT 49.565983 -4.059226 34,000 278 474 0
2021-06-16 13:50:46 GMT 49.565277 -4.051208 34,000 278 474 0
2021-06-16 13:50:43 GMT 49.564407 -4.041885 34,000 278 474 0
2021-06-16 13:50:41 GMT 49.563629 -4.032850 34,000 278 474 0
2021-06-16 13:50:38 GMT 49.562771 -4.023520 34,000 278 474 0
2021-06-16 13:50:34 GMT 49.561523 -4.010154 34,000 278 474 0
2021-06-16 13:50:31 GMT 49.560333 -3.997144 34,000 279 475 0
2021-06-16 13:50:28 GMT 49.559605 -3.988854 34,000 278 474 0
2021-06-16 13:50:26 GMT 49.559097 -3.983484 34,000 279 475 0
2021-06-16 13:50:24 GMT 49.558365 -3.975822 34,000 279 475 0
2021-06-16 13:50:21 GMT 49.557816 -3.969823 34,000 279 475 0
2021-06-16 13:50:19 GMT 49.556854 -3.959415 34,000 279 475 0
2021-06-16 13:50:17 GMT 49.556160 -3.951738 34,000 279 475 0
2021-06-16 13:50:15 GMT 49.555847 -3.948429 34,000 279 476 0
2021-06-16 13:50:12 GMT 49.554703 -3.935997 34,000 279 476 0
2021-06-16 13:50:09 GMT 49.553925 -3.927687 34,000 279 476 0
2021-06-16 13:50:06 GMT 49.553009 -3.917638 34,000 279 476 0
2021-06-16 13:50:04 GMT 49.552528 -3.912617 34,000 279 476 0
2021-06-16 13:50:01 GMT 49.551224 -3.898556 34,000 279 476 0
2021-06-16 13:49:58 GMT 49.550446 -3.890172 34,000 279 476 0
2021-06-16 13:49:55 GMT 49.549129 -3.876095 34,000 279 477 0
2021-06-16 13:49:52 GMT 49.548573 -3.869711 34,000 279 477 0
2021-06-16 13:49:49 GMT 49.547688 -3.860284 34,000 279 477 0
2021-06-16 13:49:46 GMT 49.546711 -3.849891 34,000 279 477 0
2021-06-16 13:49:43 GMT 49.545593 -3.837842 34,000 279 477 0
2021-06-16 13:49:41 GMT 49.544495 -3.826061 34,000 279 477 0
2021-06-16 13:49:39 GMT 49.544495 -3.826061 34,000 279 477 0
2021-06-16 13:49:36 GMT 49.543545 -3.816042 34,000 279 477 0
2021-06-16 13:49:34 GMT 49.543125 -3.811291 34,000 279 477 0
2021-06-16 13:49:31 GMT 49.541245 -3.791512 34,000 279 477 0
2021-06-16 13:49:29 GMT 49.541245 -3.791512 34,000 279 477 0
2021-06-16 13:49:26 GMT 49.540333 -3.781450 34,000 279 477 0
2021-06-16 13:49:24 GMT 49.539825 -3.776406 34,000 279 477 0
2021-06-16 13:49:21 GMT 49.538750 -3.764970 34,000 279 477 0
2021-06-16 13:49:19 GMT 49.538177 -3.758625 34,000 279 477 0
2021-06-16 13:49:16 GMT 49.537167 -3.747823 34,000 279 477 0
2021-06-16 13:49:14 GMT 49.536575 -3.741495 34,000 279 477 0
2021-06-16 13:49:11 GMT 49.535629 -3.731417 34,000 279 477 0
2021-06-16 13:49:09 GMT 49.534973 -3.724654 34,000 279 477 0
2021-06-16 13:49:07 GMT 49.534515 -3.719614 34,000 279 477 0
2021-06-16 13:49:05 GMT 49.533875 -3.712584 34,000 279 477 0
2021-06-16 13:49:03 GMT 49.533115 -3.704545 34,000 279 477 0
2021-06-16 13:48:59 GMT 49.530975 -3.681682 34,000 279 478 0
2021-06-16 13:48:56 GMT 49.530975 -3.681682 34,000 279 478 0
2021-06-16 13:48:53 GMT 49.530212 -3.673626 34,000 279 478 0
2021-06-16 13:48:50 GMT 49.529205 -3.663198 34,000 279 478 0
2021-06-16 13:48:48 GMT 49.528370 -3.654142 34,000 279 478 0
2021-06-16 13:48:46 GMT 49.527740 -3.647461 34,000 279 478 0
2021-06-16 13:48:44 GMT 49.526917 -3.638715 34,000 279 478 0
2021-06-16 13:48:41 GMT 49.525360 -3.622597 34,000 279 478 0
2021-06-16 13:48:38 GMT 49.525360 -3.622597 34,000 279 478 0
2021-06-16 13:48:35 GMT 49.524319 -3.611533 34,000 279 478 0
2021-06-16 13:48:33 GMT 49.523621 -3.604166 34,000 279 478 0
2021-06-16 13:48:30 GMT 49.522018 -3.587687 34,000 279 478 0
2021-06-16 13:48:28 GMT 49.522018 -3.587687 34,000 279 478 0
2021-06-16 13:48:25 GMT 49.521198 -3.579019 34,000 279 478 0
2021-06-16 13:48:23 GMT 49.519569 -3.561872 34,000 279 478 0
2021-06-16 13:48:20 GMT 49.518860 -3.554511 34,000 279 478 0
2021-06-16 13:48:18 GMT 49.518860 -3.554511 34,000 279 478 0
2021-06-16 13:48:15 GMT 49.517941 -3.544724 34,000 279 478 0
2021-06-16 13:48:12 GMT 49.516964 -3.534331 34,000 279 478 0
2021-06-16 13:48:09 GMT 49.515892 -3.523197 34,000 279 478 0
2021-06-16 13:48:06 GMT 49.514282 -3.506084 34,000 279 478 0
2021-06-16 13:48:04 GMT 49.514282 -3.506084 34,000 279 480 0
2021-06-16 13:48:01 GMT 49.513504 -3.497989 34,000 279 480 0
2021-06-16 13:47:58 GMT 49.512314 -3.485557 34,000 279 480 0
2021-06-16 13:47:55 GMT 49.511517 -3.477470 34,000 279 480 0
2021-06-16 13:47:53 GMT 49.510895 -3.470740 34,000 279 481 0
2021-06-16 13:47:50 GMT 49.509888 -3.460621 34,000 279 480 0
2021-06-16 13:47:48 GMT 49.508911 -3.450524 34,000 279 481 0
2021-06-16 13:47:45 GMT 49.508286 -3.443780 34,000 279 481 0
2021-06-16 13:47:42 GMT 49.507374 -3.434638 34,000 279 481 0
2021-06-16 13:47:40 GMT 49.505699 -3.417119 34,000 279 481 0
2021-06-16 13:47:38 GMT 49.505699 -3.417119 34,000 279 482 0
2021-06-16 13:47:35 GMT 49.504253 -3.402570 34,000 279 482 0
2021-06-16 13:47:33 GMT 49.504253 -3.402570 34,000 279 482 0
2021-06-16 13:47:30 GMT 49.503204 -3.391812 34,000 279 482 0
2021-06-16 13:47:28 GMT 49.502579 -3.385348 34,000 279 482 0
2021-06-16 13:47:25 GMT 49.501556 -3.374881 34,000 279 482 0
2021-06-16 13:47:22 GMT 49.500549 -3.364708 34,000 279 482 0
2021-06-16 13:47:19 GMT 49.499599 -3.354616 34,000 279 482 0
2021-06-16 13:47:17 GMT 49.498901 -3.347787 34,000 279 482 0
2021-06-16 13:47:13 GMT 49.496944 -3.327521 34,000 279 481 0
2021-06-16 13:47:11 GMT 49.496944 -3.327521 34,000 279 481 0
2021-06-16 13:47:08 GMT 49.496429 -3.322497 34,000 279 481 0
2021-06-16 13:47:06 GMT 49.495457 -3.312378 34,000 279 481 0
2021-06-16 13:47:01 GMT 49.493271 -3.289755 34,000 279 481 0
2021-06-16 13:46:59 GMT 49.493271 -3.289755 34,000 279 480 0
2021-06-16 13:46:57 GMT 49.492477 -3.282017 34,000 279 480 0
2021-06-16 13:46:54 GMT 49.491074 -3.267132 34,000 279 480 0
2021-06-16 13:46:51 GMT 49.490383 -3.260416 34,000 279 480 0
2021-06-16 13:46:48 GMT 49.489357 -3.250023 34,000 279 480 0
2021-06-16 13:46:45 GMT 49.488335 -3.239556 34,000 279 479 0
2021-06-16 13:46:41 GMT 49.487045 -3.226150 34,000 279 479 0
2021-06-16 13:46:38 GMT 49.486423 -3.219736 34,000 279 479 0
2021-06-16 13:46:35 GMT 49.485077 -3.206273 34,000 279 479 0
2021-06-16 13:46:31 GMT 49.483795 -3.193191 34,000 279 479 0
2021-06-16 13:46:29 GMT 49.482933 -3.184476 34,000 279 479 0
2021-06-16 13:46:26 GMT 49.482285 -3.177795 34,000 279 479 -64
2021-06-16 13:46:23 GMT 49.481598 -3.171074 34,000 279 479 0
2021-06-16 13:46:21 GMT 49.480747 -3.162355 34,000 279 479 -64
2021-06-16 13:46:19 GMT 49.479950 -3.154594 34,000 279 479 0
2021-06-16 13:46:17 GMT 49.479080 -3.145559 34,000 279 479 0
2021-06-16 13:46:15 GMT 49.478439 -3.139199 34,000 279 479 0
2021-06-16 13:46:12 GMT 49.477478 -3.129441 34,000 279 479 0
2021-06-16 13:46:10 GMT 49.476791 -3.122719 34,000 279 479 0
2021-06-16 13:46:07 GMT 49.475739 -3.112311 34,000 279 479 0
2021-06-16 13:46:05 GMT 49.474594 -3.100602 34,000 279 478 0
2021-06-16 13:46:00 GMT 49.473358 -3.088170 34,000 279 478 0
2021-06-16 13:45:57 GMT 49.472672 -3.081159 34,000 279 478 0
2021-06-16 13:45:54 GMT 49.471340 -3.067709 34,000 279 478 0
2021-06-16 13:45:51 GMT 49.470596 -3.060360 34,000 279 478 0
2021-06-16 13:45:49 GMT 49.469742 -3.051597 34,000 279 478 0
2021-06-16 13:45:47 GMT 49.468037 -3.034528 34,000 279 478 0
2021-06-16 13:45:44 GMT 49.467152 -3.025471 34,000 279 478 0
2021-06-16 13:45:41 GMT 49.467152 -3.025471 34,000 279 478 0
2021-06-16 13:45:39 GMT 49.465755 -3.011739 34,000 279 478 0
2021-06-16 13:45:37 GMT 49.464935 -3.003315 34,000 279 478 0
2021-06-16 13:45:34 GMT 49.464935 -3.003315 34,000 279 478 0
2021-06-16 13:45:31 GMT 49.463882 -2.992907 34,000 279 478 0
2021-06-16 13:45:29 GMT 49.463150 -2.985535 34,000 279 478 0
2021-06-16 13:45:26 GMT 49.462078 -2.975142 34,000 279 478 -64
2021-06-16 13:45:23 GMT 49.461090 -2.965441 34,000 279 478 -64
2021-06-16 13:45:21 GMT 49.460449 -2.959081 34,000 279 478 64
2021-06-16 13:45:17 GMT 49.459122 -2.945998 34,000 279 478 0
2021-06-16 13:45:15 GMT 49.458355 -2.938620 34,000 279 478 0
2021-06-16 13:45:13 GMT 49.456448 -2.919542 34,000 279 478 0
2021-06-16 13:45:10 GMT 49.456448 -2.919542 34,000 279 478 0
2021-06-16 13:45:07 GMT 49.455597 -2.911522 34,000 279 478 0
2021-06-16 13:45:05 GMT 49.454819 -2.903788 34,025 279 478 0
2021-06-16 13:45:02 GMT 49.453838 -2.893710 34,000 279 477 -64
2021-06-16 13:45:00 GMT 49.453094 -2.886361 34,000 279 477 64
2021-06-16 13:44:57 GMT 49.452164 -2.877379 34,000 279 477 0
2021-06-16 13:44:54 GMT 49.451183 -2.868025 34,000 279 477 0
2021-06-16 13:44:51 GMT 49.449230 -2.848948 34,000 279 476 0
2021-06-16 13:44:48 GMT 49.448364 -2.840255 34,000 279 476 0
2021-06-16 13:44:46 GMT 49.448364 -2.840255 34,000 279 476 -64
2021-06-16 13:44:43 GMT 49.447647 -2.833582 34,000 279 476 -64
2021-06-16 13:44:41 GMT 49.445786 -2.815247 34,000 279 476 0
2021-06-16 13:44:38 GMT 49.445786 -2.815247 34,000 279 476 0
2021-06-16 13:44:36 GMT 49.444427 -2.801875 34,000 279 476 0
2021-06-16 13:44:34 GMT 49.444427 -2.801875 34,000 279 476 0
2021-06-16 13:44:31 GMT 49.443550 -2.793200 34,000 279 476 -64
2021-06-16 13:44:29 GMT 49.441597 -2.774196 34,000 279 476 0
2021-06-16 13:44:26 GMT 49.441597 -2.774196 34,000 279 476 0
2021-06-16 13:44:24 GMT 49.441132 -2.769567 34,000 279 476 0
2021-06-16 13:44:22 GMT 49.440125 -2.759881 34,000 279 476 0
2021-06-16 13:44:20 GMT 49.439804 -2.756556 34,000 279 476 0
2021-06-16 13:44:17 GMT 49.438709 -2.745840 34,000 279 476 0
2021-06-16 13:44:15 GMT 49.437881 -2.738198 34,000 280 476 0
2021-06-16 13:44:13 GMT 49.437126 -2.730845 34,000 280 476 0
2021-06-16 13:44:10 GMT 49.435265 -2.712510 34,000 280 476 0
2021-06-16 13:44:07 GMT 49.435265 -2.712510 34,000 280 476 0
2021-06-16 13:44:05 GMT 49.434753 -2.707536 34,000 280 476 0
2021-06-16 13:44:03 GMT 49.433350 -2.694180 34,000 280 476 0
2021-06-16 13:43:58 GMT 49.431911 -2.680144 34,000 280 476 0
2021-06-16 13:43:55 GMT 49.430237 -2.664185 34,000 280 476 0
2021-06-16 13:43:53 GMT 49.430237 -2.664185 34,000 279 476 0
2021-06-16 13:43:50 GMT 49.428982 -2.651788 34,000 279 476 0
2021-06-16 13:43:47 GMT 49.428314 -2.645464 34,000 279 476 0
2021-06-16 13:43:44 GMT 49.427490 -2.637141 34,000 279 476 0
2021-06-16 13:43:42 GMT 49.426605 -2.628479 34,000 279 475 0
2021-06-16 13:43:40 GMT 49.425934 -2.622141 34,000 279 475 0
2021-06-16 13:43:37 GMT 49.424927 -2.612492 34,000 280 475 0
2021-06-16 13:43:35 GMT 49.424057 -2.604182 34,000 280 475 0
2021-06-16 13:43:30 GMT 49.422821 -2.592210 34,000 280 475 0
2021-06-16 13:43:28 GMT 49.421997 -2.584245 34,000 280 475 0
2021-06-16 13:43:26 GMT 49.421345 -2.577884 34,000 280 475 0
2021-06-16 13:43:24 GMT 49.420277 -2.567548 34,000 280 475 0
2021-06-16 13:43:21 GMT 49.419529 -2.560248 34,000 280 475 0
2021-06-16 13:43:19 GMT 49.418644 -2.551936 34,000 280 475 0
2021-06-16 13:43:16 GMT 49.417622 -2.542323 34,000 280 475 0
2021-06-16 13:43:14 GMT 49.416828 -2.534662 34,000 280 475 -64
2021-06-16 13:43:11 GMT 49.415909 -2.525658 34,000 280 475 0
2021-06-16 13:43:08 GMT 49.414764 -2.514672 34,000 280 475 0
2021-06-16 13:43:06 GMT 49.413666 -2.504390 34,000 280 475 0
2021-06-16 13:43:04 GMT 49.412453 -2.492451 34,000 280 475 0
2021-06-16 13:43:01 GMT 49.412453 -2.492451 34,000 280 476 0
2021-06-16 13:42:58 GMT 49.411430 -2.482766 34,000 280 475 0
2021-06-16 13:42:56 GMT 49.410370 -2.472839 34,000 280 475 0
2021-06-16 13:42:54 GMT 49.409195 -2.461516 34,000 280 475 -64
2021-06-16 13:42:50 GMT 49.408638 -2.456239 34,000 280 475 0
2021-06-16 13:42:47 GMT 49.407566 -2.445904 34,000 280 475 0
2021-06-16 13:42:45 GMT 49.406681 -2.437592 34,000 280 475 0
2021-06-16 13:42:41 GMT 49.405334 -2.425021 34,000 280 475 0
2021-06-16 13:42:38 GMT 49.404446 -2.416703 34,000 280 475 0
2021-06-16 13:42:36 GMT 49.403561 -2.408391 34,000 280 475 -64
2021-06-16 13:42:34 GMT 49.403004 -2.403115 34,000 280 475 0
2021-06-16 13:42:32 GMT 49.402084 -2.394456 34,000 280 475 0
2021-06-16 13:42:28 GMT 49.400677 -2.381214 34,000 280 474 -64
2021-06-16 13:42:25 GMT 49.399883 -2.373914 34,000 280 474 0
2021-06-16 13:42:23 GMT 49.398952 -2.364952 34,000 280 473 0
2021-06-16 13:42:20 GMT 49.397930 -2.355411 34,000 280 473 0
2021-06-16 13:42:17 GMT 49.396812 -2.345147 34,000 280 473 0
2021-06-16 13:42:15 GMT 49.396271 -2.340158 34,000 280 473 0
2021-06-16 13:42:13 GMT 49.395538 -2.333257 34,000 280 473 0
2021-06-16 13:42:10 GMT 49.394714 -2.325299 34,000 280 473 0
2021-06-16 13:42:08 GMT 49.393890 -2.317763 34,000 280 472 0
2021-06-16 13:42:06 GMT 49.392975 -2.308819 34,000 280 472 0
2021-06-16 13:42:04 GMT 49.392204 -2.301925 34,000 280 472 0
2021-06-16 13:42:01 GMT 49.391041 -2.291011 34,000 280 472 0
2021-06-16 13:41:58 GMT 49.390045 -2.281776 34,000 280 472 64
2021-06-16 13:41:55 GMT 49.389359 -2.275156 34,000 280 472 64
2021-06-16 13:41:53 GMT 49.388489 -2.267268 34,000 280 472 0
2021-06-16 13:41:50 GMT 49.387268 -2.255739 34,000 280 472 0
2021-06-16 13:41:47 GMT 49.386108 -2.245155 34,000 280 472 0
2021-06-16 13:41:45 GMT 49.384850 -2.233333 34,000 280 473 0
2021-06-16 13:41:40 GMT 49.383686 -2.222780 34,000 280 474 0
2021-06-16 13:41:37 GMT 49.382538 -2.212196 34,000 280 473 0
2021-06-16 13:41:34 GMT 49.381622 -2.203252 34,000 280 474 -64
2021-06-16 13:41:30 GMT 49.380333 -2.191339 34,000 280 474 0
2021-06-16 13:41:27 GMT 49.379105 -2.180152 34,000 280 474 0
2021-06-16 13:41:25 GMT 49.378464 -2.174166 34,000 280 474 -64
2021-06-16 13:41:23 GMT 49.377911 -2.168860 34,000 280 474 0
2021-06-16 13:41:21 GMT 49.377167 -2.162211 34,000 280 474 0
2021-06-16 13:41:19 GMT 49.376404 -2.154940 34,000 280 475 0
2021-06-16 13:41:16 GMT 49.375305 -2.144728 34,000 280 475 0
2021-06-16 13:41:14 GMT 49.374516 -2.137419 34,000 280 475 0
2021-06-16 13:41:10 GMT 49.373257 -2.126144 34,000 280 475 0
2021-06-16 13:41:07 GMT 49.371368 -2.108530 34,000 280 475 0
2021-06-16 13:41:05 GMT 49.371368 -2.108530 34,000 280 475 0
2021-06-16 13:41:03 GMT 49.370407 -2.099938 34,000 280 475 0
2021-06-16 13:41:00 GMT 49.369534 -2.091956 34,000 280 475 0
2021-06-16 13:40:58 GMT 49.367672 -2.074754 34,000 280 476 0
2021-06-16 13:40:55 GMT 49.367672 -2.074754 34,000 280 476 0
2021-06-16 13:40:53 GMT 49.366928 -2.068106 34,000 280 476 0
2021-06-16 13:40:51 GMT 49.366058 -2.060077 34,000 280 476 0
2021-06-16 13:40:49 GMT 49.364456 -2.045499 34,000 280 476 0
2021-06-16 13:40:46 GMT 49.363541 -2.037541 34,000 280 476 0
2021-06-16 13:40:44 GMT 49.363541 -2.037541 34,000 280 476 0
2021-06-16 13:40:41 GMT 49.362457 -2.027556 34,000 280 476 0
2021-06-16 13:40:38 GMT 49.361198 -2.015919 34,000 280 476 0
2021-06-16 13:40:35 GMT 49.359604 -2.001343 34,000 280 476 0
2021-06-16 13:40:33 GMT 49.359604 -2.001343 34,000 280 476 -64
2021-06-16 13:40:30 GMT 49.358685 -1.992645 34,000 280 476 0
2021-06-16 13:40:28 GMT 49.356903 -1.976060 34,000 280 476 0
2021-06-16 13:40:25 GMT 49.356903 -1.976060 34,000 280 476 0
2021-06-16 13:40:23 GMT 49.355942 -1.967116 34,000 280 476 0
2021-06-16 13:40:20 GMT 49.354961 -1.958458 34,000 280 475 0
2021-06-16 13:40:18 GMT 49.353973 -1.949158 34,000 280 475 0
2021-06-16 13:40:15 GMT 49.353241 -1.942538 34,000 280 475 0
2021-06-16 13:40:13 GMT 49.352215 -1.933232 34,000 280 479 -64
2021-06-16 13:40:10 GMT 49.351273 -1.924650 34,000 280 475 0
2021-06-16 13:40:08 GMT 49.350586 -1.918311 34,000 280 475 0
2021-06-16 13:40:06 GMT 49.348618 -1.900776 34,000 280 475 0
2021-06-16 13:40:03 GMT 49.348618 -1.900776 34,000 280 475 0
2021-06-16 13:40:01 GMT 49.348072 -1.895792 34,000 280 475 -64
2021-06-16 13:39:59 GMT 49.346649 -1.883169 34,000 280 475 0
2021-06-16 13:39:57 GMT 49.345745 -1.875193 34,000 280 475 64
2021-06-16 13:39:55 GMT 49.345745 -1.875193 34,000 280 475 64
2021-06-16 13:39:53 GMT 49.345001 -1.868239 34,000 280 475 0
2021-06-16 13:39:51 GMT 49.344116 -1.860303 34,000 280 476 0
2021-06-16 13:39:48 GMT 49.343090 -1.851341 34,000 280 476 64
2021-06-16 13:39:46 GMT 49.342529 -1.846337 34,000 280 476 0
2021-06-16 13:39:43 GMT 49.341274 -1.835078 34,000 280 476 0
2021-06-16 13:39:40 GMT 49.340343 -1.826766 34,000 280 476 0
2021-06-16 13:39:38 GMT 49.339371 -1.818167 34,000 280 477 0
2021-06-16 13:39:36 GMT 49.338867 -1.813448 34,000 280 477 0
2021-06-16 13:39:34 GMT 49.337952 -1.805138 34,000 280 477 0
2021-06-16 13:39:32 GMT 49.336529 -1.792506 34,000 280 477 0
2021-06-16 13:39:30 GMT 49.336529 -1.792506 34,000 280 478 0
2021-06-16 13:39:28 GMT 49.335781 -1.785495 34,000 280 478 0
2021-06-16 13:39:26 GMT 49.335068 -1.779222 34,000 280 478 0
2021-06-16 13:39:24 GMT 49.334339 -1.772557 34,000 280 478 0
2021-06-16 13:39:21 GMT 49.333237 -1.762531 34,000 280 478 0
2021-06-16 13:39:19 GMT 49.332504 -1.755841 34,000 280 478 0
2021-06-16 13:39:16 GMT 49.331219 -1.744513 34,000 280 479 0
2021-06-16 13:39:13 GMT 49.330399 -1.737178 34,000 280 479 0
2021-06-16 13:39:11 GMT 49.329453 -1.728829 34,000 280 479 -64
2021-06-16 13:39:09 GMT 49.328705 -1.721818 34,000 280 479 0
2021-06-16 13:39:06 GMT 49.326752 -1.704471 34,000 280 480 0
2021-06-16 13:39:04 GMT 49.326752 -1.704471 34,000 280 480 0
2021-06-16 13:39:02 GMT 49.326195 -1.699773 34,000 280 480 0
2021-06-16 13:38:59 GMT 49.325027 -1.689437 34,000 280 479 0
2021-06-16 13:38:56 GMT 49.324005 -1.680041 34,000 280 478 0
2021-06-16 13:38:54 GMT 49.323074 -1.672035 34,000 280 479 0
2021-06-16 13:38:52 GMT 49.322296 -1.665063 34,000 280 479 0
2021-06-16 13:38:49 GMT 49.321445 -1.657418 34,000 280 479 -64
2021-06-16 13:38:47 GMT 49.320511 -1.649358 34,000 280 479 -64
2021-06-16 13:38:44 GMT 49.319534 -1.640721 34,000 280 479 0
2021-06-16 13:38:41 GMT 49.318176 -1.628723 34,000 280 479 0
2021-06-16 13:38:39 GMT 49.317627 -1.624075 34,000 280 479 0
2021-06-16 13:38:37 GMT 49.316883 -1.617375 34,000 280 479 0
2021-06-16 13:38:35 GMT 49.316025 -1.609708 34,000 280 479 0
2021-06-16 13:38:33 GMT 49.315155 -1.602102 34,000 280 479 0
2021-06-16 13:38:30 GMT 49.313965 -1.591750 34,000 280 479 0
2021-06-16 13:38:27 GMT 49.312973 -1.583043 34,000 280 479 0
2021-06-16 13:38:24 GMT 49.311810 -1.572780 34,000 280 479 0
2021-06-16 13:38:22 GMT 49.311062 -1.566130 34,000 280 479 0
2021-06-16 13:38:20 GMT 49.310505 -1.561432 34,000 280 479 0
2021-06-16 13:38:17 GMT 49.309250 -1.550446 34,000 280 479 0
2021-06-16 13:38:15 GMT 49.308289 -1.541748 34,000 280 479 0
2021-06-16 13:38:13 GMT 49.307804 -1.537797 34,000 280 479 0
2021-06-16 13:38:11 GMT 49.306732 -1.528112 34,000 280 479 64
2021-06-16 13:38:09 GMT 49.305897 -1.520811 34,000 280 479 64
2021-06-16 13:38:06 GMT 49.304993 -1.512803 34,000 280 479 0
2021-06-16 13:38:03 GMT 49.303150 -1.496815 34,000 280 479 0
2021-06-16 13:38:01 GMT 49.303150 -1.496815 34,000 280 479 0
2021-06-16 13:37:58 GMT 49.300781 -1.475830 34,000 280 479 0
2021-06-16 13:37:55 GMT 49.300781 -1.475830 34,000 280 479 0
2021-06-16 13:37:53 GMT 49.299984 -1.469205 34,000 280 479 0
2021-06-16 13:37:51 GMT 49.299225 -1.462168 34,000 280 478 0
2021-06-16 13:37:49 GMT 49.298447 -1.455544 34,000 280 479 0
2021-06-16 13:37:47 GMT 49.297516 -1.447521 34,000 280 478 -64
2021-06-16 13:37:44 GMT 49.296616 -1.439561 34,000 280 478 0
2021-06-16 13:37:41 GMT 49.295517 -1.429913 34,000 280 478 0
2021-06-16 13:37:38 GMT 49.294395 -1.419911 34,000 280 478 0
2021-06-16 13:37:35 GMT 49.292488 -1.403648 34,000 280 478 0
2021-06-16 13:37:33 GMT 49.292488 -1.403648 34,000 280 478 0
2021-06-16 13:37:31 GMT 49.291557 -1.395336 34,000 280 478 0
2021-06-16 13:37:28 GMT 49.290482 -1.386038 34,000 280 478 0
2021-06-16 13:37:25 GMT 49.289429 -1.376671 34,000 280 478 0
2021-06-16 13:37:22 GMT 49.287556 -1.360425 34,000 281 477 0
2021-06-16 13:37:20 GMT 49.287556 -1.360425 34,000 281 477 0
2021-06-16 13:37:18 GMT 49.286957 -1.355473 34,000 281 477 0
2021-06-16 13:37:16 GMT 49.286064 -1.347488 34,000 281 477 0
2021-06-16 13:37:14 GMT 49.285088 -1.339176 34,000 281 477 -64
2021-06-16 13:37:12 GMT 49.284348 -1.332867 34,000 281 477 -64
2021-06-16 13:37:09 GMT 49.283226 -1.322913 34,000 281 477 0
2021-06-16 13:37:06 GMT 49.281967 -1.311927 34,000 281 477 0
2021-06-16 13:37:04 GMT 49.281326 -1.306669 34,000 281 477 0
2021-06-16 13:37:02 GMT 49.280502 -1.299697 34,000 281 477 0
2021-06-16 13:36:59 GMT 49.279495 -1.291034 34,000 281 477 64
2021-06-16 13:36:56 GMT 49.278198 -1.279763 34,000 281 477 0
2021-06-16 13:36:54 GMT 49.277683 -1.275137 34,000 281 477 0
2021-06-16 13:36:52 GMT 49.276848 -1.268198 34,000 281 477 0
2021-06-16 13:36:50 GMT 49.276150 -1.262199 34,000 281 477 0
2021-06-16 13:36:48 GMT 49.275169 -1.253887 34,000 281 477 -64
2021-06-16 13:36:46 GMT 49.274414 -1.247230 34,000 281 477 -64
2021-06-16 13:36:44 GMT 49.273540 -1.239937 34,000 281 477 -64
2021-06-16 13:36:42 GMT 49.273041 -1.235610 34,000 281 477 -64
2021-06-16 13:36:40 GMT 49.272190 -1.228373 34,000 281 477 0
2021-06-16 13:36:38 GMT 49.271168 -1.219699 34,000 281 477 0
2021-06-16 13:36:36 GMT 49.269726 -1.207484 34,000 281 477 0
2021-06-16 13:36:34 GMT 49.269726 -1.207484 34,000 281 477 0
2021-06-16 13:36:32 GMT 49.269104 -1.202158 34,000 281 476 0
2021-06-16 13:36:30 GMT 49.268375 -1.195847 34,000 281 476 0
2021-06-16 13:36:28 GMT 49.267303 -1.186885 34,000 281 476 0
2021-06-16 13:36:26 GMT 49.266701 -1.181609 34,000 281 476 0
2021-06-16 13:36:24 GMT 49.265671 -1.173002 34,000 281 476 0
2021-06-16 13:36:22 GMT 49.263977 -1.158424 34,000 281 476 0
2021-06-16 13:36:19 GMT 49.263977 -1.158424 34,000 281 476 0
2021-06-16 13:36:16 GMT 49.261917 -1.140958 34,000 281 476 0
2021-06-16 13:36:14 GMT 49.261917 -1.140958 34,000 281 476 0
2021-06-16 13:36:12 GMT 49.261158 -1.134338 34,000 281 476 0
2021-06-16 13:36:10 GMT 49.260601 -1.129713 34,000 281 475 0
2021-06-16 13:36:08 GMT 49.259575 -1.120750 34,000 281 475 0
2021-06-16 13:36:06 GMT 49.258926 -1.115474 34,000 281 475 0
2021-06-16 13:36:04 GMT 49.258041 -1.107884 34,000 281 475 0
2021-06-16 13:36:02 GMT 49.257111 -1.099645 34,000 281 475 0
2021-06-16 13:36:00 GMT 49.256691 -1.096320 34,000 281 475 0
2021-06-16 13:35:58 GMT 49.255573 -1.086707 34,000 281 475 0
2021-06-16 13:35:54 GMT 49.254044 -1.073561 34,000 281 475 0
2021-06-16 13:35:52 GMT 49.252304 -1.058631 34,000 281 475 0
2021-06-16 13:35:49 GMT 49.252304 -1.058631 34,000 281 475 0
2021-06-16 13:35:45 GMT 49.250198 -1.040814 34,000 281 475 0
2021-06-16 13:35:42 GMT 49.247131 -1.015109 34,000 281 475 0
2021-06-16 13:35:37 GMT 49.247131 -1.015109 34,000 281 474 0
2021-06-16 13:35:34 GMT 49.246353 -1.008489 34,000 281 474 0
2021-06-16 13:35:31 GMT 49.245392 -1.000249 34,000 281 474 0
2021-06-16 13:35:29 GMT 49.244354 -0.991733 34,000 281 474 0
2021-06-16 13:35:27 GMT 49.243793 -0.987107 34,000 281 474 0
2021-06-16 13:35:25 GMT 49.242966 -0.980178 34,000 281 474 0
2021-06-16 13:35:23 GMT 49.242004 -0.971938 34,000 281 474 0
2021-06-16 13:35:21 GMT 49.240490 -0.959424 34,000 281 474 0
2021-06-16 13:35:19 GMT 49.240490 -0.959424 34,000 281 474 0
2021-06-16 13:35:16 GMT 49.239185 -0.948510 34,000 281 475 0
2021-06-16 13:35:14 GMT 49.238571 -0.943557 34,000 281 475 0
2021-06-16 13:35:12 GMT 49.237370 -0.933693 34,000 281 475 0
2021-06-16 13:35:09 GMT 49.236256 -0.924153 34,000 281 475 0
2021-06-16 13:35:06 GMT 49.235462 -0.917503 34,000 281 475 0
2021-06-16 13:35:04 GMT 49.233673 -0.902710 34,000 281 475 0
2021-06-16 13:35:02 GMT 49.233673 -0.902710 34,000 281 475 0
2021-06-16 13:35:00 GMT 49.233032 -0.897428 34,000 281 475 0
2021-06-16 13:34:58 GMT 49.232025 -0.889118 34,000 281 475 0
2021-06-16 13:34:56 GMT 49.231201 -0.882216 34,000 281 475 0
2021-06-16 13:34:53 GMT 49.229969 -0.871968 34,000 281 476 0
2021-06-16 13:34:51 GMT 49.228455 -0.859398 34,000 281 476 0
2021-06-16 13:34:45 GMT 49.227081 -0.847849 34,000 281 476 0
2021-06-16 13:34:43 GMT 49.226059 -0.839225 34,000 281 476 0
2021-06-16 13:34:41 GMT 49.225250 -0.832637 34,000 281 476 0
2021-06-16 13:34:37 GMT 49.223732 -0.820072 34,000 281 476 0
2021-06-16 13:34:35 GMT 49.223125 -0.814795 34,000 281 476 0
2021-06-16 13:34:33 GMT 49.222103 -0.806555 34,000 281 476 0
2021-06-16 13:34:31 GMT 49.220425 -0.792317 34,000 281 476 0
2021-06-16 13:34:28 GMT 49.220425 -0.792317 34,000 281 476 0
2021-06-16 13:34:26 GMT 49.219299 -0.783058 34,000 281 476 0
2021-06-16 13:34:23 GMT 49.218239 -0.774464 34,000 281 476 0
2021-06-16 13:34:21 GMT 49.217541 -0.768465 34,000 281 476 0
2021-06-16 13:34:19 GMT 49.216507 -0.759888 34,000 281 477 0
2021-06-16 13:34:15 GMT 49.214859 -0.746296 34,000 281 477 0
2021-06-16 13:34:12 GMT 49.212883 -0.730085 34,000 281 477 0
2021-06-16 13:34:10 GMT 49.212883 -0.730085 34,000 281 477 0
2021-06-16 13:34:07 GMT 49.210510 -0.710238 34,000 281 477 0
2021-06-16 13:34:04 GMT 49.210510 -0.710238 34,000 281 478 0
2021-06-16 13:34:01 GMT 49.208973 -0.697704 34,000 281 478 0
2021-06-16 13:33:57 GMT 49.207809 -0.688091 34,000 281 478 0
2021-06-16 13:33:54 GMT 49.205841 -0.672138 34,000 281 478 64
2021-06-16 13:33:52 GMT 49.204056 -0.657560 34,000 281 478 64
2021-06-16 13:33:49 GMT 49.204056 -0.657560 34,000 281 479 0
2021-06-16 13:33:46 GMT 49.203434 -0.652602 34,000 281 479 0
2021-06-16 13:33:44 GMT 49.202503 -0.645013 34,000 281 479 0
2021-06-16 13:33:42 GMT 49.201904 -0.640024 34,000 281 479 -64
2021-06-16 13:33:40 GMT 49.200874 -0.631714 34,000 281 479 0
2021-06-16 13:33:36 GMT 49.198406 -0.611476 34,000 281 479 0
2021-06-16 13:33:34 GMT 49.198406 -0.611476 34,000 281 479 0
2021-06-16 13:33:31 GMT 49.197189 -0.601501 34,000 281 480 0
2021-06-16 13:33:26 GMT 49.195240 -0.585167 34,000 281 480 0
2021-06-16 13:33:23 GMT 49.194122 -0.576219 34,000 281 480 -64
2021-06-16 13:33:20 GMT 49.191010 -0.550936 34,000 281 480 0
2021-06-16 13:33:16 GMT 49.191010 -0.550936 34,000 281 480 0
2021-06-16 13:33:13 GMT 49.190025 -0.542956 34,000 281 480 0
2021-06-16 13:33:10 GMT 49.188957 -0.534355 34,000 281 480 0
2021-06-16 13:33:08 GMT 49.187931 -0.525970 34,000 281 480 0
2021-06-16 13:33:05 GMT 49.186443 -0.513683 34,000 281 480 0
2021-06-16 13:33:02 GMT 49.185417 -0.505371 34,000 281 480 0
2021-06-16 13:33:00 GMT 49.184326 -0.496427 34,000 281 480 0
2021-06-16 13:32:56 GMT 49.182812 -0.484410 34,000 281 480 0
2021-06-16 13:32:54 GMT 49.182205 -0.479423 34,000 281 480 0
2021-06-16 13:32:52 GMT 49.181416 -0.472774 34,000 281 480 0
2021-06-16 13:32:50 GMT 49.180756 -0.467482 34,000 281 480 0
2021-06-16 13:32:47 GMT 49.179474 -0.457200 34,000 281 480 0
2021-06-16 13:32:44 GMT 49.178238 -0.447200 34,000 281 480 0
2021-06-16 13:32:42 GMT 49.177002 -0.436918 34,000 281 480 0
2021-06-16 13:32:39 GMT 49.176014 -0.428900 34,000 281 480 0
2021-06-16 13:32:35 GMT 49.174530 -0.416987 34,000 281 480 0
2021-06-16 13:32:33 GMT 49.173595 -0.409313 34,000 281 480 0
2021-06-16 13:32:31 GMT 49.172607 -0.401353 34,000 281 480 0
2021-06-16 13:32:29 GMT 49.171783 -0.394733 34,000 281 480 0
2021-06-16 13:32:26 GMT 49.169777 -0.378450 34,000 281 480 0
2021-06-16 13:32:24 GMT 49.169777 -0.378450 34,000 281 480 0
2021-06-16 13:32:22 GMT 49.168938 -0.371439 34,000 281 480 0
2021-06-16 13:32:20 GMT 49.168335 -0.366813 34,000 281 480 0
2021-06-16 13:32:18 GMT 49.167343 -0.358816 34,000 281 480 0
2021-06-16 13:32:15 GMT 49.166382 -0.350858 34,000 281 480 0
2021-06-16 13:32:13 GMT 49.165028 -0.340215 34,000 281 480 0
2021-06-16 13:32:10 GMT 49.164005 -0.331903 34,000 281 480 0
2021-06-16 13:32:07 GMT 49.162674 -0.321280 34,000 281 480 0
2021-06-16 13:32:04 GMT 49.161484 -0.311631 34,000 281 480 0
2021-06-16 13:32:01 GMT 49.160419 -0.303353 34,000 281 480 0
2021-06-16 13:31:59 GMT 49.159630 -0.296992 34,000 281 480 0
2021-06-16 13:31:56 GMT 49.158142 -0.285081 34,000 281 480 0
2021-06-16 13:31:53 GMT 49.156883 -0.275092 34,000 282 480 0
2021-06-16 13:31:51 GMT 49.156082 -0.268813 34,000 282 479 0
2021-06-16 13:31:49 GMT 49.155258 -0.262475 34,000 282 480 0
2021-06-16 13:31:47 GMT 49.154526 -0.256559 34,000 282 480 0
2021-06-16 13:31:44 GMT 49.153393 -0.247915 34,000 282 480 0
2021-06-16 13:31:42 GMT 49.152508 -0.241266 34,000 282 480 0
2021-06-16 13:31:40 GMT 49.151550 -0.233952 34,000 282 480 0
2021-06-16 13:31:38 GMT 49.150681 -0.227332 34,000 282 480 0
2021-06-16 13:31:35 GMT 49.148346 -0.209444 34,000 282 480 0
2021-06-16 13:31:33 GMT 49.148346 -0.209444 34,000 282 480 0
2021-06-16 13:31:31 GMT 49.147751 -0.204796 34,000 282 480 0
2021-06-16 13:31:29 GMT 49.146454 -0.194863 34,000 282 480 0
2021-06-16 13:31:25 GMT 49.144867 -0.182894 34,000 282 480 0
2021-06-16 13:31:22 GMT 49.143566 -0.172962 34,000 282 480 0
2021-06-16 13:31:20 GMT 49.142761 -0.166626 34,000 282 480 0
2021-06-16 13:31:18 GMT 49.141426 -0.156700 34,000 282 480 0
2021-06-16 13:31:15 GMT 49.140541 -0.149761 34,000 282 480 0
2021-06-16 13:31:13 GMT 49.139648 -0.142752 34,000 282 480 0
2021-06-16 13:31:11 GMT 49.138824 -0.136484 34,000 282 480 0
2021-06-16 13:31:09 GMT 49.137890 -0.129523 34,000 282 480 0
2021-06-16 13:31:06 GMT 49.136726 -0.120560 34,000 282 481 0
2021-06-16 13:31:03 GMT 49.135376 -0.110297 34,000 282 480 0
2021-06-16 13:31:00 GMT 49.134201 -0.101342 34,000 282 480 0
2021-06-16 13:30:58 GMT 49.133194 -0.093736 34,000 282 480 0
2021-06-16 13:30:55 GMT 49.130951 -0.076482 34,000 282 480 0
2021-06-16 13:30:53 GMT 49.130951 -0.076482 34,000 282 480 0
2021-06-16 13:30:51 GMT 49.130020 -0.069532 34,000 282 480 0
2021-06-16 13:30:48 GMT 49.128983 -0.061622 34,000 282 480 0
2021-06-16 13:30:46 GMT 49.128113 -0.055002 34,000 282 480 0
2021-06-16 13:30:44 GMT 49.127197 -0.048030 34,000 282 480 0
2021-06-16 13:30:42 GMT 49.126110 -0.039753 34,000 282 480 0
2021-06-16 13:30:40 GMT 49.123672 -0.021480 34,000 282 480 0
2021-06-16 13:30:37 GMT 49.122852 -0.015178 34,000 282 480 0
2021-06-16 13:30:34 GMT 49.122852 -0.015178 34,000 282 480 0
2021-06-16 13:30:32 GMT 49.122013 -0.008890 34,000 282 480 0
2021-06-16 13:30:30 GMT 49.121082 -0.001952 34,000 282 480 0
2021-06-16 13:30:28 GMT 49.119781 0.007676 34,000 282 481 0
2021-06-16 13:30:24 GMT 49.118271 0.018944 34,000 282 481 0
2021-06-16 13:30:22 GMT 49.117493 0.024931 34,000 282 481 0
2021-06-16 13:30:19 GMT 49.114838 0.044861 34,000 282 481 0
2021-06-16 13:30:17 GMT 49.114838 0.044861 34,000 282 481 0
2021-06-16 13:30:14 GMT 49.113819 0.052474 34,000 282 481 0
2021-06-16 13:30:11 GMT 49.112320 0.063805 34,000 282 482 0
2021-06-16 13:30:09 GMT 49.110672 0.076411 34,000 282 482 0
2021-06-16 13:30:07 GMT 49.110672 0.076411 34,000 282 482 0
2021-06-16 13:30:04 GMT 49.109528 0.085074 34,000 282 482 0
2021-06-16 13:30:02 GMT 49.108795 0.090348 34,000 282 482 0
2021-06-16 13:30:00 GMT 49.107513 0.100356 34,000 282 482 0
2021-06-16 13:29:57 GMT 49.106369 0.108666 34,000 282 482 0
2021-06-16 13:29:54 GMT 49.104950 0.119300 34,000 282 482 0
2021-06-16 13:29:52 GMT 49.103905 0.127282 34,000 282 482 0
2021-06-16 13:29:49 GMT 49.102974 0.134293 34,000 282 482 0
2021-06-16 13:29:46 GMT 49.101254 0.146870 34,000 282 482 0
2021-06-16 13:29:42 GMT 49.099995 0.156555 34,000 282 482 0
2021-06-16 13:29:39 GMT 49.098320 0.168843 34,000 282 482 0
2021-06-16 13:29:35 GMT 49.096298 0.184162 34,000 282 482 0
2021-06-16 13:29:32 GMT 49.094879 0.194444 34,000 282 482 0
2021-06-16 13:29:29 GMT 49.092686 0.211125 34,000 282 482 0
2021-06-16 13:29:27 GMT 49.092686 0.211125 34,000 282 482 0
2021-06-16 13:29:24 GMT 49.091721 0.218388 34,000 282 482 -64
2021-06-16 13:29:22 GMT 49.090824 0.225075 34,000 282 482 -64
2021-06-16 13:29:20 GMT 49.089981 0.231417 34,000 282 482 -64
2021-06-16 13:29:18 GMT 49.089203 0.237403 34,000 282 481 -64
2021-06-16 13:29:15 GMT 49.087372 0.250995 34,000 282 481 -64
2021-06-16 13:29:12 GMT 49.085999 0.261630 34,000 282 481 -64
2021-06-16 13:29:09 GMT 49.084866 0.269888 34,000 282 481 -64
2021-06-16 13:29:06 GMT 49.083935 0.277188 34,025 282 481 -64
2021-06-16 13:29:03 GMT 49.082726 0.286150 34,025 282 481 0
2021-06-16 13:29:01 GMT 49.081604 0.294800 34,025 282 481 64
2021-06-16 13:28:59 GMT 49.080368 0.304096 34,000 282 481 192
2021-06-16 13:28:56 GMT 49.079361 0.311702 34,000 282 481 256
2021-06-16 13:28:53 GMT 49.078163 0.320989 33,975 282 481 384
2021-06-16 13:28:51 GMT 49.077347 0.327266 33,975 282 481 448
2021-06-16 13:28:49 GMT 49.076614 0.332900 33,950 282 481 576
2021-06-16 13:28:47 GMT 49.075321 0.342889 33,925 282 480 768
2021-06-16 13:28:45 GMT 49.074623 0.348165 33,900 282 480 896
2021-06-16 13:28:43 GMT 49.072861 0.362126 33,825 281 480 1472
2021-06-16 13:28:41 GMT 49.072861 0.362126 33,825 281 480 1472
2021-06-16 13:28:39 GMT 49.072159 0.367464 33,800 281 480 1280
2021-06-16 13:28:35 GMT 49.070663 0.379380 33,700 281 480 1600
2021-06-16 13:28:33 GMT 49.069061 0.392339 33,575 281 481 1792
2021-06-16 13:28:31 GMT 49.069061 0.392339 33,575 281 480 1856
2021-06-16 13:28:29 GMT 49.067875 0.401941 33,500 281 480 1856
2021-06-16 13:28:26 GMT 49.066635 0.411917 33,400 281 481 1920
2021-06-16 13:28:22 GMT 49.065033 0.425579 33,275 280 482 1984
2021-06-16 13:28:20 GMT 49.064209 0.432622 33,200 280 482 1984
2021-06-16 13:28:18 GMT 49.063499 0.438947 33,125 280 481 1984
2021-06-16 13:28:16 GMT 49.061401 0.457667 33,075 280 482 1984
2021-06-16 13:28:13 GMT 49.061401 0.457667 32,850 279 482 2048
2021-06-16 13:28:10 GMT 49.059906 0.471708 32,850 279 482 2048
2021-06-16 13:28:08 GMT 49.059906 0.471708 32,800 279 483 2048
2021-06-16 13:28:03 GMT 49.058239 0.487807 32,650 279 484 2048
2021-06-16 13:28:00 GMT 49.057213 0.498216 32,550 278 483 2048
2021-06-16 13:27:58 GMT 49.056610 0.504937 32,475 278 484 2048
2021-06-16 13:27:55 GMT 49.055862 0.513394 32,100 278 483 2112
2021-06-16 13:27:52 GMT 49.054825 0.525513 32,250 277 484 2112
2021-06-16 13:27:50 GMT 49.053772 0.538682 32,150 277 484 2112
2021-06-16 13:27:48 GMT 49.053772 0.538682 32,125 277 484 2176
2021-06-16 13:27:45 GMT 49.052582 0.555232 32,000 276 485 2304
2021-06-16 13:27:43 GMT 49.052582 0.555232 31,925 276 485 2368
2021-06-16 13:27:41 GMT 49.052235 0.560664 31,900 275 485 2432
2021-06-16 13:27:39 GMT 49.051720 0.568832 31,775 275 485 2432
2021-06-16 13:27:36 GMT 49.051163 0.578661 31,650 275 486 2432
2021-06-16 13:27:33 GMT 49.050568 0.590938 31,500 274 486 2432
2021-06-16 13:27:30 GMT 49.050232 0.599767 31,400 273 486 2432
2021-06-16 13:27:28 GMT 49.050018 0.604882 31,275 273 487 2432
2021-06-16 13:27:26 GMT 49.049721 0.614439 31,225 273 487 2432
2021-06-16 13:27:24 GMT 49.049606 0.618896 31,175 273 487 2432
2021-06-16 13:27:21 GMT 49.049286 0.629531 31,050 273 488 2496
2021-06-16 13:27:19 GMT 49.049057 0.638123 30,950 273 489 2560
2021-06-16 13:27:16 GMT 49.048786 0.648410 30,800 273 489 2560
2021-06-16 13:27:14 GMT 49.048645 0.653546 30,750 273 490 2560
2021-06-16 13:27:11 GMT 49.048325 0.664180 30,600 273 491 2624
2021-06-16 13:27:08 GMT 49.048088 0.672840 30,525 273 491 2560
2021-06-16 13:27:05 GMT 49.047775 0.683899 30,300 273 492 2496
2021-06-16 13:27:02 GMT 49.047485 0.695608 30,175 273 493 2368
2021-06-16 13:26:59 GMT 49.047253 0.703559 30,125 273 493 2240
2021-06-16 13:26:57 GMT 49.047066 0.709775 30,075 273 493 2240
2021-06-16 13:26:54 GMT 49.046722 0.722985 29,900 273 493 1856
2021-06-16 13:26:50 GMT 49.046272 0.738903 29,800 273 493 1728
2021-06-16 13:26:48 GMT 49.045856 0.753431 29,725 273 492 1600
2021-06-16 13:26:45 GMT 49.045574 0.763839 29,650 273 492 1664
2021-06-16 13:26:42 GMT 49.045303 0.772776 29,575 273 491 1792
2021-06-16 13:26:40 GMT 49.045303 0.772776 29,550 273 491 1792
2021-06-16 13:26:37 GMT 49.044983 0.783480 29,450 273 491 1984
2021-06-16 13:26:35 GMT 49.044846 0.788339 29,400 273 491 1984
2021-06-16 13:26:31 GMT 49.044411 0.803881 29,200 273 490 1728
2021-06-16 13:26:28 GMT 49.043995 0.817253 29,125 273 490 1472
2021-06-16 13:26:25 GMT 49.043808 0.823469 29,100 273 490 1344
2021-06-16 13:26:22 GMT 49.043289 0.841722 29,050 273 489 768
2021-06-16 13:26:20 GMT 49.043289 0.841722 29,025 273 488 448
2021-06-16 13:26:17 GMT 49.043060 0.848260 29,025 273 488 448
2021-06-16 13:26:15 GMT 49.042786 0.857849 29,000 273 488 192
2021-06-16 13:26:12 GMT 49.042511 0.867427 29,000 273 488 64
2021-06-16 13:26:08 GMT 49.042084 0.882159 29,000 273 488 0
2021-06-16 13:26:05 GMT 49.041779 0.892780 29,000 273 488 0
2021-06-16 13:26:02 GMT 49.041458 0.903414 29,000 273 487 0
2021-06-16 13:26:00 GMT 49.041229 0.909893 29,000 273 487 0
2021-06-16 13:25:58 GMT 49.040909 0.921584 29,000 273 487 0
2021-06-16 13:25:56 GMT 49.040909 0.921584 29,000 273 487 0
2021-06-16 13:25:54 GMT 49.040588 0.932148 29,000 273 487 0
2021-06-16 13:25:51 GMT 49.040314 0.941444 29,000 273 487 0
2021-06-16 13:25:48 GMT 49.039993 0.951374 29,000 273 487 0
2021-06-16 13:25:46 GMT 49.039856 0.956796 29,000 273 487 -64
2021-06-16 13:25:44 GMT 49.039673 0.962642 29,000 273 487 -64
2021-06-16 13:25:41 GMT 49.038986 0.985882 29,000 273 487 -128
2021-06-16 13:25:38 GMT 49.038986 0.985882 29,000 273 487 -64
2021-06-16 13:25:36 GMT 49.038872 0.989709 29,025 273 487 -128
2021-06-16 13:25:33 GMT 49.038452 1.003731 29,025 273 487 -128
2021-06-16 13:25:30 GMT 49.038300 1.008841 29,025 273 487 -128
2021-06-16 13:25:28 GMT 49.037979 1.019475 29,025 273 487 -64
2021-06-16 13:25:25 GMT 49.037659 1.030039 29,025 273 486 64
2021-06-16 13:25:23 GMT 49.037521 1.035172 29,025 273 486 64
2021-06-16 13:25:20 GMT 49.037102 1.048182 29,000 273 486 256
2021-06-16 13:25:17 GMT 49.036869 1.056350 28,975 273 486 576
2021-06-16 13:25:13 GMT 49.036125 1.080563 28,950 273 486 704
2021-06-16 13:25:10 GMT 49.036125 1.080563 28,925 273 486 832
2021-06-16 13:25:08 GMT 49.035919 1.087717 28,875 273 486 1024
2021-06-16 13:25:04 GMT 49.035519 1.101379 28,825 273 485 1344
2021-06-16 13:25:02 GMT 49.035053 1.116702 28,700 273 484 1472
2021-06-16 13:24:59 GMT 49.035053 1.116702 28,725 273 484 1600
2021-06-16 13:24:56 GMT 49.034405 1.137808 28,575 273 482 1728
2021-06-16 13:24:52 GMT 49.034405 1.137808 28,500 273 483 1664
2021-06-16 13:24:50 GMT 49.034122 1.148288 28,450 273 482 1664
2021-06-16 13:24:48 GMT 49.033890 1.155371 28,300 273 481 1920
2021-06-16 13:24:45 GMT 49.033264 1.177016 28,150 273 481 1856
2021-06-16 13:24:42 GMT 49.033081 1.184129 28,150 273 480 1920
2021-06-16 13:24:39 GMT 49.033081 1.184129 28,125 273 480 1984
2021-06-16 13:24:37 GMT 49.032898 1.190186 27,825 273 467 1024
2021-06-16 13:24:34 GMT 49.032494 1.203726 27,925 273 480 2112
2021-06-16 13:24:31 GMT 49.032074 1.217863 27,800 273 480 2112
2021-06-16 13:24:29 GMT 49.032074 1.217863 27,700 273 480 2048
2021-06-16 13:24:25 GMT 49.031708 1.231032 27,550 273 480 1984
2021-06-16 13:24:23 GMT 49.031479 1.239413 27,550 273 480 1984
2021-06-16 13:24:20 GMT 49.030930 1.259625 27,450 273 479 1984
2021-06-16 13:24:18 GMT 49.030930 1.259625 27,325 273 478 1984
2021-06-16 13:24:15 GMT 49.030727 1.266030 27,200 273 478 1984
2021-06-16 13:24:12 GMT 49.030518 1.274132 27,225 273 478 2048
2021-06-16 13:24:10 GMT 49.030289 1.282161 27,125 273 478 2176
2021-06-16 13:24:08 GMT 49.030151 1.287231 27,025 273 478 2176
2021-06-16 13:24:05 GMT 49.029610 1.307301 26,875 273 478 2112
2021-06-16 13:24:00 GMT 49.029327 1.318078 26,750 273 475 960
2021-06-16 13:23:57 GMT 49.029099 1.326458 26,700 273 476 1344
2021-06-16 13:23:54 GMT 49.028816 1.336501 26,575 273 475 960
2021-06-16 13:23:51 GMT 49.028584 1.344813 26,575 273 475 960
2021-06-16 13:23:48 GMT 49.028164 1.359486 26,525 273 471 704
2021-06-16 13:23:45 GMT 49.027794 1.373363 26,475 273 469 768
2021-06-16 13:23:43 GMT 49.027794 1.373363 26,475 273 468 960
2021-06-16 13:23:41 GMT 49.027328 1.388831 26,400 273 467 1280
2021-06-16 13:23:38 GMT 49.027328 1.388831 26,400 273 466 1600
2021-06-16 13:23:35 GMT 49.026955 1.402275 26,225 274 464 2112
2021-06-16 13:23:32 GMT 49.026672 1.410053 26,175 273 465 2048
2021-06-16 13:23:30 GMT 49.026489 1.415646 26,000 274 464 2048
2021-06-16 13:23:27 GMT 49.026211 1.423814 26,025 274 464 2048
2021-06-16 13:23:24 GMT 49.025700 1.435812 25,900 275 463 1856
2021-06-16 13:23:22 GMT 49.025391 1.443294 25,825 275 463 1792
2021-06-16 13:23:19 GMT 49.024292 1.464703 25,750 275 462 1728
2021-06-16 13:23:15 GMT 49.024292 1.464703 25,500 275 460 1856
2021-06-16 13:23:11 GMT 49.023651 1.477011 25,475 275 460 1856
2021-06-16 13:23:08 GMT 49.022903 1.490888 25,250 275 458 1920
2021-06-16 13:23:05 GMT 49.021973 1.508235 25,225 275 458 1920
2021-06-16 13:23:01 GMT 49.021973 1.508235 25,225 275 458 1920
2021-06-16 13:22:59 GMT 49.021591 1.515620 24,950 275 457 1920
2021-06-16 13:22:57 GMT 49.021042 1.526255 24,975 275 456 1920
2021-06-16 13:22:54 GMT 49.020767 1.531325 24,975 275 456 1920
2021-06-16 13:22:50 GMT 49.019833 1.548277 24,750 275 455 2048
2021-06-16 13:22:47 GMT 49.019440 1.555270 24,675 275 455 2048
2021-06-16 13:22:44 GMT 49.019073 1.561678 24,625 276 453 2112
2021-06-16 13:22:41 GMT 49.018433 1.572806 24,525 276 453 2112
2021-06-16 13:22:38 GMT 49.017242 1.593158 24,300 276 452 2112
2021-06-16 13:22:35 GMT 49.017242 1.593158 24,175 276 451 2176
2021-06-16 13:22:32 GMT 49.016510 1.606117 24,175 276 451 2176
2021-06-16 13:22:29 GMT 49.015690 1.619399 24,075 276 451 2112
2021-06-16 13:22:26 GMT 49.015690 1.619399 23,950 276 450 2048
2021-06-16 13:22:24 GMT 49.015228 1.627596 23,925 276 450 1984
2021-06-16 13:22:21 GMT 49.014496 1.639921 23,775 276 447 2048
2021-06-16 13:22:18 GMT 49.014107 1.645925 23,700 276 448 1856
2021-06-16 13:22:15 GMT 49.013489 1.656259 23,225 277 445 2240
2021-06-16 13:22:11 GMT 49.012665 1.668838 23,525 276 447 1984
2021-06-16 13:22:08 GMT 49.011497 1.685968 23,425 277 446 2112
2021-06-16 13:22:05 GMT 49.011497 1.685968 23,300 277 446 2176
2021-06-16 13:22:02 GMT 49.010799 1.696304 23,200 277 445 2240
2021-06-16 13:21:58 GMT 49.009266 1.718059 22,950 277 444 2240
2021-06-16 13:21:55 GMT 49.009266 1.718059 22,900 277 443 2176
2021-06-16 13:21:52 GMT 49.008518 1.728323 22,775 276 442 2112
2021-06-16 13:21:49 GMT 49.007858 1.738234 22,700 276 442 2112
2021-06-16 13:21:46 GMT 49.006798 1.753620 22,575 276 441 2176
2021-06-16 13:21:43 GMT 49.006798 1.753620 22,400 276 440 2240
2021-06-16 13:21:39 GMT 49.005215 1.776099 22,275 276 439 2304
2021-06-16 13:21:36 GMT 49.005215 1.776099 22,200 276 439 2304
2021-06-16 13:21:33 GMT 49.004005 1.793879 22,075 277 438 2304
2021-06-16 13:21:30 GMT 49.004005 1.793879 21,925 277 438 2304
2021-06-16 13:21:27 GMT 49.002655 1.813756 21,850 277 437 2304
2021-06-16 13:21:24 GMT 49.002655 1.813756 21,450 276 434 2112
2021-06-16 13:21:18 GMT 49.001396 1.832042 21,500 276 434 2112
2021-06-16 13:21:15 GMT 49.000626 1.843027 21,425 276 434 2112
2021-06-16 13:21:11 GMT 48.999817 1.854521 21,275 276 433 2176
2021-06-16 13:21:08 GMT 48.999397 1.861171 21,125 276 431 2176
2021-06-16 13:21:06 GMT 48.998840 1.869084 21,075 276 431 2176
2021-06-16 13:21:03 GMT 48.998337 1.876620 20,875 276 431 2176
2021-06-16 13:21:00 GMT 48.997673 1.886251 20,925 276 430 2240
2021-06-16 13:20:57 GMT 48.996597 1.902466 20,700 276 429 2304
2021-06-16 13:20:54 GMT 48.996597 1.902466 20,675 276 428 2304
2021-06-16 13:20:51 GMT 48.996002 1.911128 20,600 276 428 2240
2021-06-16 13:20:47 GMT 48.995041 1.926058 20,500 276 425 2112
2021-06-16 13:20:44 GMT 48.994507 1.935039 20,325 276 424 2112
2021-06-16 13:20:40 GMT 48.993759 1.946904 20,150 276 423 2048
2021-06-16 13:20:37 GMT 48.993298 1.954627 20,075 276 421 2240
2021-06-16 13:20:34 GMT 48.992786 1.962939 19,975 276 421 2240
2021-06-16 13:20:31 GMT 48.992134 1.973564 19,850 276 420 2304
2021-06-16 13:20:28 GMT 48.991653 1.982046 19,675 275 419 2496
2021-06-16 13:20:25 GMT 48.991016 1.992645 19,575 275 418 2496
2021-06-16 13:20:20 GMT 48.990417 2.003737 19,375 275 417 2560
2021-06-16 13:20:17 GMT 48.989868 2.013456 19,275 275 417 2560
2021-06-16 13:20:15 GMT 48.989479 2.020400 18,725 276 412 2560
2021-06-16 13:20:12 GMT 48.989044 2.027400 18,725 276 412 2560
2021-06-16 13:20:07 GMT 48.988129 2.043746 18,850 276 414 2432
2021-06-16 13:20:04 GMT 48.987663 2.050974 18,700 276 412 2432
2021-06-16 13:20:00 GMT 48.986893 2.063739 18,575 276 412 2432
2021-06-16 13:19:57 GMT 48.986160 2.075571 18,400 276 412 2560
2021-06-16 13:19:54 GMT 48.985794 2.080994 18,325 277 411 2688
2021-06-16 13:19:50 GMT 48.984879 2.093952 18,125 277 410 2752
2021-06-16 13:19:47 GMT 48.984329 2.102262 17,450 276 408 2304
2021-06-16 13:19:44 GMT 48.983780 2.110009 17,875 277 410 2688
2021-06-16 13:19:41 GMT 48.983009 2.120867 17,700 276 409 2496
2021-06-16 13:19:38 GMT 48.982265 2.131998 17,600 276 405 2176
2021-06-16 13:19:36 GMT 48.982265 2.131998 17,500 276 406 2240
2021-06-16 13:19:33 GMT 48.981754 2.139732 17,100 276 405 2176
2021-06-16 13:19:30 GMT 48.981194 2.148189 17,350 276 405 2176
2021-06-16 13:19:27 GMT 48.980576 2.158109 17,250 276 403 2304
2021-06-16 13:19:24 GMT 48.980171 2.165174 17,050 275 402 2624
2021-06-16 13:19:21 GMT 48.979660 2.174237 17,050 275 402 2624
2021-06-16 13:19:18 GMT 48.979099 2.183750 16,800 276 401 2816
2021-06-16 13:19:16 GMT 48.978790 2.189378 16,600 276 400 2816
2021-06-16 13:19:13 GMT 48.978424 2.196139 16,450 276 397 2560
2021-06-16 13:19:10 GMT 48.977840 2.205650 16,425 276 399 2688
2021-06-16 13:19:07 GMT 48.977379 2.213745 16,325 276 399 2560
2021-06-16 13:19:04 GMT 48.976910 2.221840 16,125 276 397 2560
2021-06-16 13:19:01 GMT 48.975769 2.240436 16,000 276 396 2624
2021-06-16 13:18:58 GMT 48.975769 2.240436 15,825 276 395 2752
2021-06-16 13:18:56 GMT 48.975494 2.244873 15,750 276 394 2880
2021-06-16 13:18:53 GMT 48.974491 2.261738 15,600 276 393 3008
2021-06-16 13:18:50 GMT 48.974491 2.261738 15,525 276 393 2944
2021-06-16 13:18:47 GMT 48.974030 2.269733 15,425 276 393 2944
2021-06-16 13:18:44 GMT 48.973022 2.286213 15,175 276 392 2944
2021-06-16 13:18:41 GMT 48.973022 2.286213 15,025 276 391 2880
2021-06-16 13:18:38 GMT 48.972488 2.295492 14,900 276 391 2752
2021-06-16 13:18:36 GMT 48.972244 2.299875 14,800 275 390 2688
2021-06-16 13:18:33 GMT 48.971745 2.307852 14,700 276 389 2624
2021-06-16 13:18:30 GMT 48.971283 2.316002 14,575 276 388 2624
2021-06-16 13:18:27 GMT 48.970718 2.325777 14,350 276 386 2560
2021-06-16 13:18:24 GMT 48.970207 2.334161 14,275 276 385 2624
2021-06-16 13:18:21 GMT 48.969833 2.340955 14,050 276 384 2752
2021-06-16 13:18:18 GMT 48.969269 2.350088 14,025 276 383 2816
2021-06-16 13:18:15 GMT 48.968903 2.356497 13,900 276 382 2944
2021-06-16 13:18:12 GMT 48.968533 2.362422 13,800 276 380 3008
2021-06-16 13:18:09 GMT 48.967987 2.371498 13,675 276 381 2944
2021-06-16 13:18:06 GMT 48.967438 2.380864 13,425 276 379 3072
2021-06-16 13:18:03 GMT 48.967041 2.387792 13,275 276 372 2880
2021-06-16 13:18:00 GMT 48.966568 2.395442 13,100 276 378 3136
2021-06-16 13:17:57 GMT 48.966156 2.402625 13,025 276 377 3136
2021-06-16 13:17:55 GMT 48.965691 2.409981 12,800 276 376 3200
2021-06-16 13:17:52 GMT 48.965225 2.417643 12,725 276 375 3200
2021-06-16 13:17:49 GMT 48.964714 2.426316 12,550 276 374 3200
2021-06-16 13:17:46 GMT 48.964279 2.433613 12,350 276 373 3008
2021-06-16 13:17:43 GMT 48.963829 2.440700 12,150 276 372 2752
2021-06-16 13:17:40 GMT 48.963272 2.450385 11,950 276 368 2112
2021-06-16 13:17:36 GMT 48.962666 2.459998 11,925 276 367 1984
2021-06-16 13:17:33 GMT 48.962246 2.466937 11,825 276 365 1664
2021-06-16 13:17:30 GMT 48.961395 2.481783 11,775 276 363 1536
2021-06-16 13:17:27 GMT 48.961395 2.481783 11,725 276 361 1408
2021-06-16 13:17:25 GMT 48.961075 2.487065 11,550 276 356 1344
2021-06-16 13:17:22 GMT 48.960571 2.495125 11,600 276 353 1344
2021-06-16 13:17:19 GMT 48.960159 2.501784 11,550 276 352 1344
2021-06-16 13:17:16 GMT 48.959656 2.509953 11,475 276 348 1344
2021-06-16 13:17:13 GMT 48.959244 2.516503 11,400 276 344 1344
2021-06-16 13:17:10 GMT 48.958664 2.526133 11,325 276 342 1344
2021-06-16 13:17:07 GMT 48.958374 2.530729 11,275 276 338 1344
2021-06-16 13:17:05 GMT 48.958012 2.536902 11,200 276 334 1280
2021-06-16 13:17:02 GMT 48.957458 2.545307 11,125 276 331 1280
2021-06-16 13:16:59 GMT 48.957172 2.549768 11,025 276 326 1280
2021-06-16 13:16:56 GMT 48.956680 2.558054 11,025 276 325 1280
2021-06-16 13:16:53 GMT 48.955872 2.570584 10,975 276 323 1280
2021-06-16 13:16:50 GMT 48.955872 2.570584 10,900 276 319 1280
2021-06-16 13:16:47 GMT 48.955357 2.577956 10,850 276 317 1280
2021-06-16 13:16:43 GMT 48.954704 2.587497 10,750 277 311 1152
2021-06-16 13:16:40 GMT 48.954239 2.594291 10,700 277 308 1152
2021-06-16 13:16:37 GMT 48.953842 2.599886 10,650 277 306 1088
2021-06-16 13:16:35 GMT 48.953613 2.602915 10,575 277 301 1024
2021-06-16 13:16:32 GMT 48.953030 2.610626 10,575 277 301 1024
2021-06-16 13:16:27 GMT 48.952286 2.621323 10,475 277 296 960
2021-06-16 13:16:25 GMT 48.951912 2.626527 10,425 277 286 2048
2021-06-16 13:16:22 GMT 48.951542 2.631442 10,400 277 290 960
2021-06-16 13:16:17 GMT 48.950775 2.641367 10,300 277 286 1728
2021-06-16 13:16:15 GMT 48.950516 2.645175 10,125 277 285 2240
2021-06-16 13:16:12 GMT 48.950050 2.651319 10,100 277 285 2368
2021-06-16 13:16:07 GMT 48.949024 2.664907 9,775 277 285 2496
2021-06-16 13:16:05 GMT 48.949024 2.664907 9,775 277 285 2496
2021-06-16 13:16:02 GMT 48.948578 2.671650 9,425 270 284 2624
2021-06-16 13:15:57 GMT 48.947891 2.681439 9,500 276 284 2432
2021-06-16 13:15:54 GMT 48.947491 2.687747 9,100 276 284 2496
2021-06-16 13:15:51 GMT 48.947205 2.691932 9,275 276 284 2560
2021-06-16 13:15:47 GMT 48.946697 2.700685 9,075 275 284 2496
2021-06-16 13:15:42 GMT 48.946106 2.711651 8,850 275 284 2496
2021-06-16 13:15:37 GMT 48.945534 2.721501 8,650 275 283 2560
2021-06-16 13:15:34 GMT 48.945164 2.728874 8,475 270 284 2624
2021-06-16 13:15:31 GMT 48.945114 2.732488 8,400 270 284 2624
2021-06-16 13:15:27 GMT 48.945236 2.740878 8,225 262 282 2560
2021-06-16 13:15:24 GMT 48.945721 2.746799 7,450 151 268 2688
2021-06-16 13:15:21 GMT 48.946518 2.752568 7,975 251 280 2304
2021-06-16 13:15:17 GMT 48.948578 2.761371 7,775 243 279 2048
2021-06-16 13:15:14 GMT 48.949726 2.765302 7,525 240 279 2048
2021-06-16 13:15:11 GMT 48.951508 2.770034 7,625 236 278 2048
2021-06-16 13:15:07 GMT 48.954937 2.777373 7,475 228 276 2176
2021-06-16 13:15:04 GMT 48.957031 2.780987 7,350 220 278 2368
2021-06-16 13:15:01 GMT 48.960430 2.785974 7,250 218 277 2368
2021-06-16 13:14:57 GMT 48.964233 2.790457 7,100 213 277 2176
2021-06-16 13:14:55 GMT 48.965832 2.792045 7,050 211 276 2176
2021-06-16 13:14:52 GMT 48.968765 2.794719 6,950 206 276 2112
2021-06-16 13:14:49 GMT 48.973618 2.798063 6,800 198 276 2112
2021-06-16 13:14:46 GMT 48.976593 2.799612 6,700 193 271 1984
2021-06-16 13:14:43 GMT 48.978912 2.800502 6,600 188 271 1984
2021-06-16 13:14:40 GMT 48.983707 2.801731 6,525 183 271 1984
2021-06-16 13:14:36 GMT 48.988449 2.802007 6,400 178 269 2240
2021-06-16 13:14:33 GMT 48.992844 2.801725 6,225 151 268 2688
2021-06-16 13:14:30 GMT 48.995911 2.801021 6,025 162 268 2496
2021-06-16 13:14:27 GMT 49.000050 2.799634 6,000 161 268 2368
2021-06-16 13:14:24 GMT 49.004288 2.797359 5,825 155 268 2432
2021-06-16 13:14:21 GMT 49.007587 2.795153 5,675 151 268 2688
2021-06-16 13:14:17 GMT 49.011566 2.791936 5,575 146 268 2496
2021-06-16 13:14:13 GMT 49.015503 2.787925 5,425 140 268 2112
2021-06-16 13:14:07 GMT 49.021225 2.780245 5,225 130 266 1792
2021-06-16 13:14:03 GMT 49.024719 2.773831 5,100 123 265 1664
2021-06-16 13:14:00 GMT 49.028458 2.764329 5,025 118 264 1792
2021-06-16 13:13:57 GMT 49.028458 2.764329 4,925 113 264 2176
2021-06-16 13:13:53 GMT 49.029922 2.759047 4,775 106 264 2432
2021-06-16 13:13:50 GMT 49.031479 2.751512 4,625 101 265 2432
2021-06-16 13:13:46 GMT 49.032169 2.746437 4,525 97 265 2176
2021-06-16 13:13:42 GMT 49.032715 2.738976 4,350 89 265 1920
2021-06-16 13:13:39 GMT 49.032852 2.733553 3,850 86 263 1920
2021-06-16 13:13:36 GMT 49.032776 2.728006 4,200 85 263 1984
2021-06-16 13:13:32 GMT 49.032261 2.718972 4,025 84 262 2368
2021-06-16 13:13:29 GMT 49.031982 2.715313 3,950 84 262 2368
2021-06-16 13:13:26 GMT 49.031616 2.709257 3,800 84 260 2624
2021-06-16 13:13:22 GMT 49.031067 2.701369 3,575 84 258 1984
2021-06-16 13:13:19 GMT 49.030773 2.696132 3,475 84 256 1472
2021-06-16 13:13:16 GMT 49.030472 2.691439 3,475 84 256 1408
2021-06-16 13:13:12 GMT 49.029934 2.683266 3,375 84 250 1152
2021-06-16 13:13:09 GMT 49.029655 2.678496 3,275 84 236 576
2021-06-16 13:13:05 GMT 49.029282 2.672636 3,275 84 242 640
2021-06-16 13:13:02 GMT 49.028824 2.665804 3,225 84 231 960
2021-06-16 13:12:59 GMT 49.028549 2.661368 3,200 84 227 1088
2021-06-16 13:12:56 GMT 49.028305 2.657390 3,150 84 224 1280
2021-06-16 13:12:52 GMT 49.027931 2.651391 3,075 85 220 1408
2021-06-16 13:12:49 GMT 49.027634 2.646367 2,975 84 215 1408
2021-06-16 13:12:46 GMT 49.027374 2.641851 2,900 84 211 1600
2021-06-16 13:12:43 GMT 49.026718 2.631437 2,725 84 206 1920
2021-06-16 13:12:39 GMT 49.026718 2.631437 2,675 84 204 1920
2021-06-16 13:12:36 GMT 49.026443 2.627000 2,550 84 198 2176
2021-06-16 13:12:32 GMT 49.026031 2.620098 2,400 85 196 2304
2021-06-16 13:12:27 GMT 49.025711 2.614746 2,175 85 193 2240
2021-06-16 13:12:23 GMT 49.025417 2.609325 2,050 85 193 2368
2021-06-16 13:12:20 GMT 49.025185 2.603760 1,925 86 193 2432
2021-06-16 13:12:17 GMT 49.025093 2.601591 1,775 86 192 2624
2021-06-16 13:12:14 GMT 49.024719 2.593207 1,550 86 191 2560
2021-06-16 13:12:11 GMT 49.024719 2.593207 1,575 86 191 2496
2021-06-16 13:12:07 GMT 49.024475 2.587280 1,200 86 187 2496
2021-06-16 13:12:02 GMT 49.024162 2.580558 1,200 86 187 2496
2021-06-16 13:11:57 GMT 49.023834 2.574463 1,000 86 188 2688
2021-06-16 13:11:49 GMT 49.023323 2.563501 600 85 191 2752
2021-06-16 13:11:26 GMT 49.021835 2.535963 475 85 118 64
2021-06-16 13:11:19 GMT 49.021507 2.530253 450 85 93 64
2021-06-16 13:10:56 GMT 49.021111 2.522278 0 84 9
2021-06-16 13:10:44 GMT 49.021103 2.521561 0 70 6
2021-06-16 13:10:37 GMT 49.021103 2.521344 0 45 6
2021-06-16 13:10:27 GMT 49.021019 2.521028 0 0 6
2021-06-16 13:10:15 GMT 49.020645 2.521055 0 357 9
2021-06-16 13:09:56 GMT 49.019783 2.521151 0 354 11
2021-06-16 13:09:41 GMT 49.019062 2.521239 0 354 13
2021-06-16 13:09:29 GMT 49.018391 2.521326 0 357 10
2021-06-16 13:09:27 GMT 49.018284 2.521327 0 357 9
2021-06-16 13:09:16 GMT 49.017899 2.521362 0 357 8
2021-06-16 13:09:03 GMT 49.017471 2.521345 0 351 9
2021-06-16 13:08:57 GMT 49.017200 2.521326 0 306 9
2021-06-16 13:08:46 GMT 49.017029 2.521850 0 264 11
2021-06-16 13:08:36 GMT 49.017075 2.522772 0 264 18
2021-06-16 13:08:19 GMT 49.017216 2.525338 0 264 23
2021-06-16 13:06:51 GMT 49.017986 2.539655 0 264 23
2021-06-16 13:06:45 GMT 49.018044 2.540659 0 267 22
2021-06-16 13:06:32 GMT 49.018158 2.542648 0 264 21
2021-06-16 13:06:25 GMT 49.018204 2.543534 0 264 21
2021-06-16 13:06:14 GMT 49.018284 2.545124 0 264 20
2021-06-16 13:06:03 GMT 49.018353 2.546451 0 264 16
2021-06-16 13:05:55 GMT 49.018387 2.547349 0 261 12
2021-06-16 13:05:45 GMT 49.018528 2.548051 0 292 10
2021-06-16 13:05:34 GMT 49.018353 2.548575 0 354 10
2021-06-16 13:04:44 GMT 49.014317 2.549117 0 348 20
2021-06-16 13:04:34 GMT 49.013397 2.549424 0 343 19
2021-06-16 13:04:23 GMT 49.012562 2.549779 0 343 18
2021-06-16 13:04:10 GMT 49.011513 2.550256 0 343 19
2021-06-16 13:03:59 GMT 49.010521 2.550689 0 343 20
2021-06-16 13:03:36 GMT 49.008568 2.551522 0 345 16
2021-06-16 13:03:27 GMT 49.007927 2.551804 0 343 13
2021-06-16 13:03:20 GMT 49.007603 2.551954 0 340 10
2021-06-16 13:03:11 GMT 49.007240 2.552138 0 329 8
2021-06-16 13:02:53 GMT 49.006840 2.552684 0 239 10
2021-06-16 13:02:47 GMT 49.006985 2.553056 0 241 11
2021-06-16 13:02:33 GMT 49.007240 2.554092 0 264 16
2021-06-16 13:02:28 GMT 49.007275 2.554691 0 264 19
2021-06-16 13:02:14 GMT 49.007401 2.556575 0 261 21
2021-06-16 13:02:10 GMT 49.007458 2.557191 0 261 22
2021-06-16 13:02:02 GMT 49.007587 2.558604 0 261 24
2021-06-16 13:01:52 GMT 49.007729 2.560031 0 261 26
2021-06-16 13:01:40 GMT 49.007858 2.562050 0 261 25
We lost coverage of the aircraft here for a total of 6 minutes
2021-06-16 12:55:53 GMT 49.007111 2.582365 0 354 0
2021-06-16 12:55:02 GMT 49.007103 2.582368 0 354 0
2021-06-16 12:54:52 GMT 49.007114 2.582368 0 354 0

Making use of Plane Finder data

You are free to use the raw flight data, aircraft information and images provided in this report for your own purposes provided the data is correctly attributed to Plane Finder. We ask that you please credit Plane Finder and link to planefinder.net in close proximity to the content.

Optionally one of the following logos (no smaller then 150x24px) can be used and must link to planefinder.net

Embedding the Plane Finder map

You are welcome to embed the Plane Finder playback map on your website to offer visitors a more interactive experience. We suggest using the following HTML code:

<iframe src="//planefinder.net/data/report/AF6-F-GSQH-7700-squawk-2021-06-16/map" width="800" height="600" seamless="seamless"></iframe>

Where our data comes from

Plane Finder has a global network of data feeds and antenna radars that receive data broadcast directly from aircraft. The primary technologies used are ADS-B and MLAT. We also show feeds from the FAA and a FLARM glider feed.

Click here to find out more about the Plane Finder network.

How we collect our data